Wetterdaten: Samstag, 12.08.2017
Datum Zeit Temp. A. Pool Temp. Feuchte A. Luftdruck Regen Wind Richtung Richtung Sonnenschein ET UV Solar Taupunkt Windchill Windben Empfang
12.08.2017 00:00 12,8 C 21,1 C 91 % 1016,1 hPa 0,0 l/m 6,5 km/h (2 Bft) W-SW 256 0 min 0,000 mm 0,0 UV-I 0 W/m 11,4 C 12,8 C 9,7 km/h (2 Bft) 100,00 %
12.08.2017 00:02 12,8 C 21,1 C 91 % 1016,1 hPa 0,0 l/m 6,4 km/h (2 Bft) SW 226 0 min 0,000 mm 0,0 UV-I 0 W/m 11,4 C 12,8 C 9,7 km/h (2 Bft) 100,00 %
12.08.2017 00:04 12,8 C 21,1 C 91 % 1016,2 hPa 0,0 l/m 6,5 km/h (2 Bft) W-SW 252 0 min 0,000 mm 0,0 UV-I 0 W/m 11,4 C 12,8 C 11,3 km/h (2 Bft) 100,00 %
12.08.2017 00:06 12,8 C 21,1 C 91 % 1016,1 hPa 0,0 l/m 6,0 km/h (2 Bft) SW 231 0 min 0,000 mm 0,0 UV-I 0 W/m 11,4 C 12,8 C 8,0 km/h (2 Bft) 100,00 %
12.08.2017 00:08 12,8 C 21,1 C 91 % 1016,1 hPa 0,0 l/m 6,1 km/h (2 Bft) SW 232 0 min 0,000 mm 0,0 UV-I 0 W/m 11,4 C 12,8 C 8,0 km/h (2 Bft) 100,00 %
12.08.2017 00:10 12,8 C 21,1 C 91 % 1016,1 hPa 0,0 l/m 6,8 km/h (2 Bft) SW 229 0 min 0,000 mm 0,0 UV-I 0 W/m 11,4 C 12,6 C 9,7 km/h (2 Bft) 100,00 %
12.08.2017 00:12 12,8 C 21,1 C 91 % 1016,1 hPa 0,0 l/m 7,5 km/h (2 Bft) SW 236 0 min 0,000 mm 0,0 UV-I 0 W/m 11,4 C 12,1 C 11,3 km/h (2 Bft) 98,00 %
12.08.2017 00:14 12,8 C 21,1 C 91 % 1016,0 hPa 0,0 l/m 6,6 km/h (2 Bft) SW 230 0 min 0,000 mm 0,0 UV-I 0 W/m 11,4 C 12,7 C 9,7 km/h (2 Bft) 100,00 %
12.08.2017 00:16 12,8 C 21,1 C 91 % 1016,0 hPa 0,0 l/m 7,5 km/h (2 Bft) SW 233 0 min 0,000 mm 0,0 UV-I 0 W/m 11,4 C 12,1 C 11,3 km/h (2 Bft) 100,00 %
12.08.2017 00:18 12,7 C 21,1 C 91 % 1016,0 hPa 0,0 l/m 5,9 km/h (2 Bft) W-SW 253 0 min 0,000 mm 0,0 UV-I 0 W/m 11,3 C 12,7 C 8,0 km/h (2 Bft) 100,00 %
12.08.2017 00:20 12,7 C 21,1 C 91 % 1016,0 hPa 0,0 l/m 6,2 km/h (2 Bft) SW 236 0 min 0,000 mm 0,0 UV-I 0 W/m 11,3 C 12,7 C 11,3 km/h (2 Bft) 100,00 %
12.08.2017 00:22 12,7 C 21,1 C 91 % 1016,0 hPa 0,0 l/m 8,0 km/h (2 Bft) W-SW 244 0 min 0,000 mm 0,0 UV-I 0 W/m 11,3 C 11,7 C 12,9 km/h (3 Bft) 97,44 %
12.08.2017 00:24 12,7 C 21,1 C 91 % 1016,1 hPa 0,0 l/m 6,3 km/h (2 Bft) W 260 0 min 0,000 mm 0,0 UV-I 0 W/m 11,3 C 12,7 C 11,3 km/h (2 Bft) 100,00 %
12.08.2017 00:26 12,6 C 21,1 C 91 % 1016,1 hPa 0,0 l/m 7,0 km/h (2 Bft) S-SW 213 0 min 0,000 mm 0,0 UV-I 0 W/m 11,2 C 12,2 C 14,5 km/h (3 Bft) 100,00 %
12.08.2017 00:28 12,6 C 21,1 C 91 % 1016,0 hPa 0,0 l/m 6,8 km/h (2 Bft) W-SW 257 0 min 0,000 mm 0,0 UV-I 0 W/m 11,2 C 12,4 C 11,3 km/h (2 Bft) 100,00 %
12.08.2017 00:30 12,6 C 21,1 C 91 % 1016,0 hPa 0,0 l/m 6,6 km/h (2 Bft) W-SW 250 0 min 0,000 mm 0,0 UV-I 0 W/m 11,2 C 12,5 C 11,3 km/h (2 Bft) 100,00 %
12.08.2017 00:32 12,6 C 21,1 C 91 % 1016,0 hPa 0,0 l/m 7,4 km/h (2 Bft) W 277 0 min 0,000 mm 0,0 UV-I 0 W/m 11,2 C 12,0 C 12,9 km/h (3 Bft) 100,00 %
12.08.2017 00:34 12,6 C 21,1 C 91 % 1016,0 hPa 0,0 l/m 6,5 km/h (2 Bft) W-SW 252 0 min 0,000 mm 0,0 UV-I 0 W/m 11,2 C 12,6 C 11,3 km/h (2 Bft) 100,00 %
12.08.2017 00:36 12,6 C 21,1 C 91 % 1016,0 hPa 0,0 l/m 7,3 km/h (2 Bft) W-SW 256 0 min 0,000 mm 0,0 UV-I 0 W/m 11,2 C 12,0 C 11,3 km/h (2 Bft) 100,00 %
12.08.2017 00:38 12,6 C 21,1 C 91 % 1016,0 hPa 0,0 l/m 6,6 km/h (2 Bft) W-SW 250 0 min 0,000 mm 0,0 UV-I 0 W/m 11,2 C 12,5 C 9,7 km/h (2 Bft) 97,37 %
12.08.2017 00:40 12,5 C 21,1 C 91 % 1016,0 hPa 0,0 l/m 5,7 km/h (1 Bft) SW 225 0 min 0,000 mm 0,0 UV-I 0 W/m 11,1 C 12,5 C 12,9 km/h (3 Bft) 100,00 %
12.08.2017 00:42 12,5 C 21,1 C 91 % 1016,0 hPa 0,0 l/m 4,9 km/h (1 Bft) W-SW 244 0 min 0,000 mm 0,0 UV-I 0 W/m 11,1 C 12,5 C 9,7 km/h (2 Bft) 98,00 %
12.08.2017 00:44 12,5 C 21,1 C 91 % 1016,0 hPa 0,0 l/m 4,1 km/h (1 Bft) W-SW 238 0 min 0,000 mm 0,0 UV-I 0 W/m 11,1 C 12,5 C 8,0 km/h (2 Bft) 100,00 %
12.08.2017 00:46 12,5 C 21,1 C 91 % 1016,1 hPa 0,0 l/m 5,3 km/h (1 Bft) SW 236 0 min 0,000 mm 0,0 UV-I 0 W/m 11,1 C 12,5 C 8,0 km/h (2 Bft) 100,00 %
12.08.2017 00:48 12,4 C 21,1 C 91 % 1016,1 hPa 0,0 l/m 4,3 km/h (1 Bft) SW 229 0 min 0,000 mm 0,0 UV-I 0 W/m 11,0 C 12,4 C 6,4 km/h (2 Bft) 100,00 %
12.08.2017 00:50 12,4 C 21,1 C 91 % 1016,1 hPa 0,0 l/m 4,5 km/h (1 Bft) SW 229 0 min 0,000 mm 0,0 UV-I 0 W/m 11,0 C 12,4 C 6,4 km/h (2 Bft) 97,37 %
12.08.2017 00:52 12,4 C 21,1 C 91 % 1016,1 hPa 0,0 l/m 6,0 km/h (2 Bft) W-SW 242 0 min 0,000 mm 0,0 UV-I 0 W/m 11,0 C 12,4 C 8,0 km/h (2 Bft) 98,11 %
12.08.2017 00:54 12,4 C 21,1 C 91 % 1016,1 hPa 0,0 l/m 6,8 km/h (2 Bft) SW 229 0 min 0,000 mm 0,0 UV-I 0 W/m 11,0 C 12,1 C 9,7 km/h (2 Bft) 100,00 %
12.08.2017 00:56 12,4 C 21,1 C 91 % 1016,1 hPa 0,0 l/m 6,1 km/h (2 Bft) SW 218 0 min 0,000 mm 0,0 UV-I 0 W/m 11,0 C 12,4 C 11,3 km/h (2 Bft) 100,00 %
12.08.2017 00:58 12,4 C 21,1 C 92 % 1016,1 hPa 0,0 l/m 7,1 km/h (2 Bft) W-SW 238 0 min 0,000 mm 0,0 UV-I 0 W/m 11,1 C 11,9 C 11,3 km/h (2 Bft) 100,00 %
12.08.2017 01:00 12,4 C 21,1 C 92 % 1016,1 hPa 0,0 l/m 5,8 km/h (2 Bft) W-SW 250 0 min 0,000 mm 0,0 UV-I 0 W/m 11,1 C 12,4 C 8,0 km/h (2 Bft) 100,00 %
12.08.2017 01:02 12,4 C 21,1 C 92 % 1016,0 hPa 0,0 l/m 5,8 km/h (2 Bft) SW 217 0 min 0,000 mm 0,0 UV-I 0 W/m 11,1 C 12,4 C 9,7 km/h (2 Bft) 100,00 %
12.08.2017 01:04 12,4 C 21,1 C 92 % 1016,1 hPa 0,0 l/m 7,7 km/h (2 Bft) SW 228 0 min 0,000 mm 0,0 UV-I 0 W/m 11,1 C 11,6 C 12,9 km/h (3 Bft) 97,56 %
12.08.2017 01:06 12,4 C 21,1 C 92 % 1016,1 hPa 0,0 l/m 6,6 km/h (2 Bft) SW 220 0 min 0,000 mm 0,0 UV-I 0 W/m 11,1 C 12,3 C 9,7 km/h (2 Bft) 96,61 %
12.08.2017 01:08 12,4 C 21,1 C 92 % 1016,1 hPa 0,0 l/m 6,2 km/h (2 Bft) SW 226 0 min 0,000 mm 0,0 UV-I 0 W/m 11,1 C 12,4 C 11,3 km/h (2 Bft) 97,87 %
12.08.2017 01:10 12,4 C 21,1 C 92 % 1016,1 hPa 0,0 l/m 7,8 km/h (2 Bft) SW 236 0 min 0,000 mm 0,0 UV-I 0 W/m 11,1 C 11,5 C 14,5 km/h (3 Bft) 97,14 %
12.08.2017 01:12 12,4 C 21,1 C 92 % 1016,1 hPa 0,0 l/m 9,8 km/h (2 Bft) SW 216 0 min 0,000 mm 0,0 UV-I 0 W/m 11,1 C 10,4 C 16,1 km/h (3 Bft) 98,21 %
12.08.2017 01:14 12,4 C 21,1 C 92 % 1016,0 hPa 0,0 l/m 7,6 km/h (2 Bft) SW 214 0 min 0,000 mm 0,0 UV-I 0 W/m 11,1 C 11,6 C 12,9 km/h (3 Bft) 97,56 %
12.08.2017 01:16 12,4 C 21,1 C 92 % 1016,1 hPa 0,0 l/m 6,4 km/h (2 Bft) SW 235 0 min 0,000 mm 0,0 UV-I 0 W/m 11,1 C 12,4 C 9,7 km/h (2 Bft) 96,23 %
12.08.2017 01:18 12,4 C 21,1 C 92 % 1016,1 hPa 0,0 l/m 8,5 km/h (2 Bft) S-SW 206 0 min 0,000 mm 0,0 UV-I 0 W/m 11,1 C 11,1 C 12,9 km/h (3 Bft) 97,56 %
12.08.2017 01:20 12,4 C 21,1 C 92 % 1016,1 hPa 0,0 l/m 9,1 km/h (2 Bft) SW 214 0 min 0,000 mm 0,0 UV-I 0 W/m 11,1 C 10,7 C 14,5 km/h (3 Bft) 96,00 %
12.08.2017 01:22 12,4 C 21,1 C 92 % 1016,1 hPa 0,0 l/m 9,1 km/h (2 Bft) S-SW 208 0 min 0,000 mm 0,0 UV-I 0 W/m 11,1 C 10,7 C 14,5 km/h (3 Bft) 100,00 %
12.08.2017 01:24 12,4 C 21,1 C 92 % 1016,1 hPa 0,0 l/m 10,7 km/h (2 Bft) S-SW 212 0 min 0,000 mm 0,0 UV-I 0 W/m 11,1 C 9,9 C 14,5 km/h (3 Bft) 96,23 %
12.08.2017 01:26 12,4 C 21,1 C 92 % 1016,1 hPa 0,0 l/m 8,7 km/h (2 Bft) S-SW 209 0 min 0,000 mm 0,0 UV-I 0 W/m 11,1 C 11,0 C 12,9 km/h (3 Bft) 98,00 %
12.08.2017 01:28 12,4 C 21,1 C 92 % 1016,1 hPa 0,0 l/m 7,5 km/h (2 Bft) S-SW 194 0 min 0,000 mm 0,0 UV-I 0 W/m 11,1 C 11,7 C 12,9 km/h (3 Bft) 97,56 %
12.08.2017 01:30 12,4 C 21,1 C 92 % 1016,1 hPa 0,0 l/m 8,7 km/h (2 Bft) S 184 0 min 0,000 mm 0,0 UV-I 0 W/m 11,1 C 11,0 C 16,1 km/h (3 Bft) 98,11 %
12.08.2017 01:32 12,4 C 21,1 C 92 % 1016,2 hPa 0,0 l/m 8,7 km/h (2 Bft) S 189 0 min 0,000 mm 0,0 UV-I 0 W/m 11,1 C 11,0 C 14,5 km/h (3 Bft) 97,56 %
12.08.2017 01:34 12,4 C 21,1 C 92 % 1016,2 hPa 0,0 l/m 11,4 km/h (2 Bft) S-SW 213 0 min 0,000 mm 0,0 UV-I 0 W/m 11,1 C 9,6 C 19,3 km/h (3 Bft) 97,73 %
12.08.2017 01:36 12,5 C 21,1 C 92 % 1016,2 hPa 0,0 l/m 9,3 km/h (2 Bft) SW 228 0 min 0,000 mm 0,0 UV-I 0 W/m 11,2 C 10,7 C 16,1 km/h (3 Bft) 96,36 %
12.08.2017 01:38 12,6 C 21,1 C 92 % 1016,2 hPa 0,0 l/m 9,2 km/h (2 Bft) SW 223 0 min 0,000 mm 0,0 UV-I 0 W/m 11,3 C 10,9 C 16,1 km/h (3 Bft) 96,00 %
12.08.2017 01:40 12,6 C 21,1 C 92 % 1016,2 hPa 0,0 l/m 8,1 km/h (2 Bft) W-SW 238 0 min 0,000 mm 0,0 UV-I 0 W/m 11,3 C 11,5 C 16,1 km/h (3 Bft) 97,22 %
12.08.2017 01:42 12,6 C 21,1 C 92 % 1016,2 hPa 0,0 l/m 10,9 km/h (2 Bft) W-SW 238 0 min 0,000 mm 0,0 UV-I 0 W/m 11,3 C 10,0 C 16,1 km/h (3 Bft) 98,00 %
12.08.2017 01:44 12,7 C 21,1 C 92 % 1016,2 hPa 0,0 l/m 10,0 km/h (2 Bft) S-SW 206 0 min 0,000 mm 0,0 UV-I 0 W/m 11,4 C 10,6 C 16,1 km/h (3 Bft) 100,00 %
12.08.2017 01:46 12,7 C 21,1 C 92 % 1016,2 hPa 0,0 l/m 8,4 km/h (2 Bft) S-SW 205 0 min 0,000 mm 0,0 UV-I 0 W/m 11,4 C 11,5 C 14,5 km/h (3 Bft) 100,00 %
12.08.2017 01:48 12,7 C 21,1 C 92 % 1016,1 hPa 0,0 l/m 8,5 km/h (2 Bft) W-SW 243 0 min 0,000 mm 0,0 UV-I 0 W/m 11,4 C 11,4 C 16,1 km/h (3 Bft) 100,00 %
12.08.2017 01:50 12,8 C 21,1 C 91 % 1016,1 hPa 0,0 l/m 9,1 km/h (2 Bft) SW 225 0 min 0,000 mm 0,0 UV-I 0 W/m 11,4 C 11,2 C 17,7 km/h (3 Bft) 97,56 %
12.08.2017 01:52 12,8 C 21,1 C 91 % 1016,1 hPa 0,0 l/m 9,9 km/h (2 Bft) SW 220 0 min 0,000 mm 0,0 UV-I 0 W/m 11,4 C 10,7 C 16,1 km/h (3 Bft) 93,62 %
12.08.2017 01:54 12,8 C 21,1 C 91 % 1016,1 hPa 0,0 l/m 8,3 km/h (2 Bft) S 169 0 min 0,000 mm 0,0 UV-I 0 W/m 11,4 C 11,6 C 12,9 km/h (3 Bft) 97,87 %
12.08.2017 01:56 12,9 C 21,1 C 91 % 1016,1 hPa 0,0 l/m 9,5 km/h (2 Bft) SW 227 0 min 0,000 mm 0,0 UV-I 0 W/m 11,5 C 11,1 C 16,1 km/h (3 Bft) 98,11 %
12.08.2017 01:58 12,9 C 21,1 C 91 % 1016,1 hPa 0,0 l/m 9,1 km/h (2 Bft) SW 230 0 min 0,000 mm 0,0 UV-I 0 W/m 11,5 C 11,3 C 14,5 km/h (3 Bft) 97,87 %
12.08.2017 02:00 12,9 C 21,1 C 91 % 1016,1 hPa 0,0 l/m 7,9 km/h (2 Bft) SW 216 0 min 0,000 mm 0,0 UV-I 0 W/m 11,5 C 12,0 C 14,5 km/h (3 Bft) 97,37 %
12.08.2017 02:02 12,9 C 21,1 C 91 % 1016,1 hPa 0,0 l/m 11,2 km/h (2 Bft) W-SW 255 0 min 0,000 mm 0,0 UV-I 0 W/m 11,5 C 10,2 C 20,9 km/h (4 Bft) 97,56 %
12.08.2017 02:04 12,9 C 21,1 C 91 % 1016,1 hPa 0,0 l/m 9,6 km/h (2 Bft) S-SW 206 0 min 0,000 mm 0,0 UV-I 0 W/m 11,5 C 11,0 C 16,1 km/h (3 Bft) 98,00 %
12.08.2017 02:06 13,0 C 21,1 C 91 % 1016,1 hPa 0,0 l/m 10,6 km/h (2 Bft) SW 215 0 min 0,000 mm 0,0 UV-I 0 W/m 11,6 C 10,6 C 19,3 km/h (3 Bft) 96,23 %
12.08.2017 02:08 13,0 C 21,1 C 91 % 1016,1 hPa 0,0 l/m 12,2 km/h (2 Bft) S-SW 207 0 min 0,000 mm 0,0 UV-I 0 W/m 11,6 C 9,9 C 19,3 km/h (3 Bft) 95,74 %
12.08.2017 02:10 13,1 C 21,1 C 90 % 1016,1 hPa 0,0 l/m 12,2 km/h (2 Bft) S-SW 206 0 min 0,000 mm 0,0 UV-I 0 W/m 11,5 C 10,0 C 19,3 km/h (3 Bft) 97,87 %
12.08.2017 02:12 13,1 C 21,1 C 90 % 1016,1 hPa 0,0 l/m 10,9 km/h (2 Bft) S-SW 212 0 min 0,000 mm 0,0 UV-I 0 W/m 11,5 C 10,6 C 17,7 km/h (3 Bft) 98,00 %
12.08.2017 02:14 13,1 C 21,1 C 90 % 1016,1 hPa 0,0 l/m 10,2 km/h (2 Bft) S-SW 211 0 min 0,000 mm 0,0 UV-I 0 W/m 11,5 C 10,9 C 17,7 km/h (3 Bft) 98,00 %
12.08.2017 02:16 13,2 C 21,1 C 90 % 1016,1 hPa 0,0 l/m 12,8 km/h (3 Bft) SW 231 0 min 0,000 mm 0,0 UV-I 0 W/m 11,6 C 9,9 C 17,7 km/h (3 Bft) 97,73 %
12.08.2017 02:18 13,2 C 21,1 C 90 % 1016,0 hPa 0,0 l/m 14,5 km/h (3 Bft) SW 225 0 min 0,000 mm 0,0 UV-I 0 W/m 11,6 C 9,2 C 20,9 km/h (4 Bft) 97,62 %
12.08.2017 02:20 13,2 C 21,1 C 90 % 1016,0 hPa 0,0 l/m 13,6 km/h (3 Bft) W-SW 237 0 min 0,000 mm 0,0 UV-I 0 W/m 11,6 C 9,5 C 20,9 km/h (4 Bft) 96,15 %
12.08.2017 02:22 13,2 C 21,1 C 90 % 1016,0 hPa 0,0 l/m 12,1 km/h (2 Bft) SW 234 0 min 0,000 mm 0,0 UV-I 0 W/m 11,6 C 10,2 C 19,3 km/h (3 Bft) 98,46 %
12.08.2017 02:24 13,3 C 21,1 C 90 % 1016,1 hPa 0,0 l/m 14,2 km/h (3 Bft) SW 215 0 min 0,000 mm 0,0 UV-I 0 W/m 11,7 C 9,4 C 20,9 km/h (4 Bft) 96,23 %
12.08.2017 02:26 13,3 C 21,1 C 89 % 1016,0 hPa 0,0 l/m 15,1 km/h (3 Bft) W-SW 244 0 min 0,000 mm 0,0 UV-I 0 W/m 11,5 C 9,1 C 20,9 km/h (4 Bft) 97,56 %
12.08.2017 02:28 13,3 C 21,1 C 89 % 1016,0 hPa 0,0 l/m 13,5 km/h (3 Bft) SW 222 0 min 0,000 mm 0,0 UV-I 0 W/m 11,5 C 9,7 C 17,7 km/h (3 Bft) 96,43 %
12.08.2017 02:30 13,3 C 21,1 C 89 % 1016,0 hPa 0,0 l/m 13,3 km/h (3 Bft) SW 217 0 min 0,000 mm 0,0 UV-I 0 W/m 11,5 C 9,8 C 17,7 km/h (3 Bft) 97,73 %
12.08.2017 02:32 13,3 C 21,1 C 89 % 1016,0 hPa 0,0 l/m 12,3 km/h (3 Bft) S-SW 209 0 min 0,000 mm 0,0 UV-I 0 W/m 11,5 C 10,2 C 16,1 km/h (3 Bft) 97,44 %
12.08.2017 02:34 13,4 C 21,1 C 89 % 1016,0 hPa 0,0 l/m 13,2 km/h (3 Bft) SW 236 0 min 0,000 mm 0,0 UV-I 0 W/m 11,6 C 9,9 C 19,3 km/h (3 Bft) 98,11 %
12.08.2017 02:36 13,4 C 20,6 C 89 % 1016,1 hPa 0,0 l/m 12,0 km/h (2 Bft) W-SW 249 0 min 0,000 mm 0,0 UV-I 0 W/m 11,6 C 10,4 C 16,1 km/h (3 Bft) 97,73 %
12.08.2017 02:38 13,4 C 20,6 C 89 % 1016,0 hPa 0,0 l/m 12,4 km/h (3 Bft) W-SW 242 0 min 0,000 mm 0,0 UV-I 0 W/m 11,6 C 10,3 C 17,7 km/h (3 Bft) 96,23 %
12.08.2017 02:40 13,4 C 20,6 C 89 % 1016,1 hPa 0,0 l/m 11,2 km/h (2 Bft) SW 229 0 min 0,000 mm 0,0 UV-I 0 W/m 11,6 C 10,8 C 16,1 km/h (3 Bft) 94,74 %
12.08.2017 02:42 13,4 C 20,6 C 89 % 1016,1 hPa 0,0 l/m 13,0 km/h (3 Bft) SW 234 0 min 0,000 mm 0,0 UV-I 0 W/m 11,6 C 10,0 C 17,7 km/h (3 Bft) 94,44 %
12.08.2017 02:44 13,5 C 20,6 C 89 % 1016,1 hPa 0,0 l/m 14,0 km/h (3 Bft) SW 231 0 min 0,000 mm 0,0 UV-I 0 W/m 11,7 C 9,7 C 19,3 km/h (3 Bft) 98,63 %
12.08.2017 02:46 13,5 C 20,6 C 89 % 1016,0 hPa 0,0 l/m 14,8 km/h (3 Bft) W-SW 258 0 min 0,000 mm 0,0 UV-I 0 W/m 11,7 C 9,4 C 20,9 km/h (4 Bft) 96,43 %
12.08.2017 02:48 13,5 C 20,6 C 89 % 1016,0 hPa 0,0 l/m 15,2 km/h (3 Bft) SW 235 0 min 0,000 mm 0,0 UV-I 0 W/m 11,7 C 9,3 C 20,9 km/h (4 Bft) 95,45 %
12.08.2017 02:50 13,5 C 20,6 C 89 % 1016,0 hPa 0,0 l/m 14,1 km/h (3 Bft) S-SW 212 0 min 0,000 mm 0,0 UV-I 0 W/m 11,7 C 9,7 C 19,3 km/h (3 Bft) 98,00 %
12.08.2017 02:52 13,6 C 20,6 C 89 % 1016,0 hPa 0,0 l/m 14,6 km/h (3 Bft) SW 231 0 min 0,000 mm 0,0 UV-I 0 W/m 11,8 C 9,6 C 19,3 km/h (3 Bft) 97,56 %
12.08.2017 02:54 13,6 C 20,6 C 89 % 1016,1 hPa 0,0 l/m 13,7 km/h (3 Bft) SW 227 0 min 0,000 mm 0,0 UV-I 0 W/m 11,8 C 10,0 C 19,3 km/h (3 Bft) 98,00 %
12.08.2017 02:56 13,6 C 20,6 C 89 % 1016,1 hPa 0,0 l/m 14,2 km/h (3 Bft) SW 227 0 min 0,000 mm 0,0 UV-I 0 W/m 11,8 C 9,8 C 20,9 km/h (4 Bft) 97,87 %
12.08.2017 02:58 13,6 C 20,6 C 89 % 1016,1 hPa 0,0 l/m 14,6 km/h (3 Bft) SW 233 0 min 0,000 mm 0,0 UV-I 0 W/m 11,8 C 9,6 C 19,3 km/h (3 Bft) 100,00 %
12.08.2017 03:00 13,6 C 20,6 C 89 % 1016,1 hPa 0,0 l/m 13,6 km/h (3 Bft) SW 230 0 min 0,000 mm 0,0 UV-I 0 W/m 11,8 C 10,0 C 20,9 km/h (4 Bft) 100,00 %
12.08.2017 03:02 13,7 C 20,6 C 89 % 1016,1 hPa 0,0 l/m 12,9 km/h (3 Bft) SW 231 0 min 0,025 mm 0,0 UV-I 0 W/m 11,9 C 10,4 C 22,5 km/h (4 Bft) 100,00 %
12.08.2017 03:04 13,7 C 20,6 C 89 % 1016,0 hPa 0,0 l/m 13,6 km/h (3 Bft) SW 227 0 min 0,000 mm 0,0 UV-I 0 W/m 11,9 C 10,1 C 20,9 km/h (4 Bft) 100,00 %
12.08.2017 03:06 13,7 C 20,6 C 89 % 1016,0 hPa 0,0 l/m 13,6 km/h (3 Bft) SW 227 0 min 0,000 mm 0,0 UV-I 0 W/m 11,9 C 10,1 C 20,9 km/h (4 Bft) 98,00 %
12.08.2017 03:08 13,7 C 20,6 C 89 % 1016,0 hPa 0,0 l/m 13,5 km/h (3 Bft) W-SW 241 0 min 0,000 mm 0,0 UV-I 0 W/m 11,9 C 10,2 C 19,3 km/h (3 Bft) 97,37 %
12.08.2017 03:10 13,7 C 20,6 C 88 % 1016,0 hPa 0,0 l/m 14,8 km/h (3 Bft) SW 229 0 min 0,000 mm 0,0 UV-I 0 W/m 11,7 C 9,7 C 20,9 km/h (4 Bft) 98,21 %
12.08.2017 03:12 13,7 C 20,6 C 88 % 1016,0 hPa 0,0 l/m 12,4 km/h (3 Bft) SW 227 0 min 0,000 mm 0,0 UV-I 0 W/m 11,7 C 10,6 C 17,7 km/h (3 Bft) 97,37 %
12.08.2017 03:14 13,7 C 20,6 C 88 % 1016,0 hPa 0,0 l/m 15,2 km/h (3 Bft) SW 236 0 min 0,000 mm 0,0 UV-I 0 W/m 11,7 C 9,5 C 19,3 km/h (3 Bft) 98,21 %
12.08.2017 03:16 13,7 C 20,6 C 88 % 1016,0 hPa 0,0 l/m 15,3 km/h (3 Bft) SW 223 0 min 0,000 mm 0,0 UV-I 0 W/m 11,7 C 9,5 C 20,9 km/h (4 Bft) 95,12 %
12.08.2017 03:18 13,7 C 20,6 C 88 % 1015,9 hPa 0,0 l/m 12,6 km/h (3 Bft) SW 224 0 min 0,000 mm 0,0 UV-I 0 W/m 11,7 C 10,5 C 20,9 km/h (4 Bft) 98,11 %
12.08.2017 03:20 13,7 C 20,6 C 88 % 1015,9 hPa 0,0 l/m 13,2 km/h (3 Bft) S-SW 199 0 min 0,000 mm 0,0 UV-I 0 W/m 11,7 C 10,3 C 20,9 km/h (4 Bft) 97,37 %
12.08.2017 03:22 13,8 C 20,6 C 88 % 1015,9 hPa 0,0 l/m 11,7 km/h (2 Bft) W-SW 240 0 min 0,000 mm 0,0 UV-I 0 W/m 11,8 C 11,0 C 17,7 km/h (3 Bft) 93,62 %
12.08.2017 03:24 13,8 C 20,6 C 88 % 1015,9 hPa 0,0 l/m 10,9 km/h (2 Bft) SW 234 0 min 0,000 mm 0,0 UV-I 0 W/m 11,8 C 11,4 C 17,7 km/h (3 Bft) 98,11 %
12.08.2017 03:26 13,8 C 20,6 C 88 % 1015,9 hPa 0,0 l/m 12,6 km/h (3 Bft) SW 232 0 min 0,000 mm 0,0 UV-I 0 W/m 11,8 C 10,6 C 17,7 km/h (3 Bft) 98,00 %
12.08.2017 03:28 13,8 C 20,6 C 88 % 1015,9 hPa 0,0 l/m 11,6 km/h (2 Bft) W-SW 256 0 min 0,000 mm 0,0 UV-I 0 W/m 11,8 C 11,1 C 16,1 km/h (3 Bft) 97,56 %
12.08.2017 03:30 13,8 C 20,6 C 88 % 1015,9 hPa 0,0 l/m 9,9 km/h (2 Bft) SW 220 0 min 0,000 mm 0,0 UV-I 0 W/m 11,8 C 11,8 C 16,1 km/h (3 Bft) 98,00 %
12.08.2017 03:32 13,8 C 20,6 C 88 % 1015,9 hPa 0,0 l/m 9,9 km/h (2 Bft) W-SW 243 0 min 0,000 mm 0,0 UV-I 0 W/m 11,8 C 11,8 C 16,1 km/h (3 Bft) 97,56 %
12.08.2017 03:34 13,8 C 20,6 C 88 % 1015,9 hPa 0,0 l/m 13,7 km/h (3 Bft) SW 225 0 min 0,000 mm 0,0 UV-I 0 W/m 11,8 C 10,2 C 19,3 km/h (3 Bft) 98,11 %
12.08.2017 03:36 13,8 C 20,6 C 88 % 1015,9 hPa 0,0 l/m 13,2 km/h (3 Bft) S-SW 213 0 min 0,000 mm 0,0 UV-I 0 W/m 11,8 C 10,4 C 20,9 km/h (4 Bft) 97,87 %
12.08.2017 03:38 13,8 C 20,6 C 88 % 1015,9 hPa 0,0 l/m 12,6 km/h (3 Bft) W-SW 240 0 min 0,000 mm 0,0 UV-I 0 W/m 11,8 C 10,6 C 16,1 km/h (3 Bft) 97,44 %
12.08.2017 03:40 13,8 C 20,6 C 88 % 1016,0 hPa 0,0 l/m 13,4 km/h (3 Bft) W-SW 254 0 min 0,000 mm 0,0 UV-I 0 W/m 11,8 C 10,3 C 22,5 km/h (4 Bft) 97,56 %
12.08.2017 03:42 13,8 C 20,6 C 88 % 1016,0 hPa 0,0 l/m 12,2 km/h (2 Bft) SW 229 0 min 0,000 mm 0,0 UV-I 0 W/m 11,8 C 10,8 C 16,1 km/h (3 Bft) 96,61 %
12.08.2017 03:44 13,8 C 20,6 C 88 % 1016,0 hPa 0,0 l/m 13,9 km/h (3 Bft) SW 231 0 min 0,000 mm 0,0 UV-I 0 W/m 11,8 C 10,1 C 24,1 km/h (4 Bft) 100,00 %
12.08.2017 03:46 13,8 C 20,6 C 88 % 1016,0 hPa 0,0 l/m 13,4 km/h (3 Bft) SW 217 0 min 0,000 mm 0,0 UV-I 0 W/m 11,8 C 10,3 C 19,3 km/h (3 Bft) 98,21 %
12.08.2017 03:48 13,8 C 20,6 C 88 % 1016,0 hPa 0,0 l/m 13,1 km/h (3 Bft) SW 215 0 min 0,000 mm 0,0 UV-I 0 W/m 11,8 C 10,4 C 16,1 km/h (3 Bft) 97,56 %
12.08.2017 03:50 13,8 C 20,6 C 88 % 1016,0 hPa 0,0 l/m 10,3 km/h (2 Bft) S-SW 202 0 min 0,000 mm 0,0 UV-I 0 W/m 11,8 C 11,6 C 20,9 km/h (4 Bft) 100,00 %
12.08.2017 03:52 13,8 C 20,6 C 88 % 1016,0 hPa 0,0 l/m 14,4 km/h (3 Bft) SW 234 0 min 0,000 mm 0,0 UV-I 0 W/m 11,8 C 10,0 C 20,9 km/h (4 Bft) 100,00 %
12.08.2017 03:54 13,8 C 20,6 C 88 % 1016,0 hPa 0,0 l/m 13,2 km/h (3 Bft) SW 235 0 min 0,000 mm 0,0 UV-I 0 W/m 11,8 C 10,4 C 20,9 km/h (4 Bft) 98,21 %
12.08.2017 03:56 13,8 C 20,6 C 88 % 1016,0 hPa 0,0 l/m 11,3 km/h (2 Bft) SW 235 0 min 0,000 mm 0,0 UV-I 0 W/m 11,8 C 11,2 C 16,1 km/h (3 Bft) 100,00 %
12.08.2017 03:58 13,8 C 20,6 C 88 % 1016,0 hPa 0,0 l/m 14,3 km/h (3 Bft) SW 235 0 min 0,000 mm 0,0 UV-I 0 W/m 11,8 C 10,0 C 20,9 km/h (4 Bft) 100,00 %
12.08.2017 04:00 13,8 C 20,6 C 88 % 1016,0 hPa 0,0 l/m 11,0 km/h (2 Bft) W-SW 246 0 min 0,026 mm 0,0 UV-I 0 W/m 11,8 C 11,3 C 20,9 km/h (4 Bft) 100,00 %
12.08.2017 04:05 13,9 C 20,6 C 88 % 1016,1 hPa 0,0 l/m 13,9 km/h (3 Bft) SW 227 0 min 0,000 mm 0,0 UV-I 0 W/m 11,9 C 10,3 C 24,1 km/h (4 Bft) 100,00 %
12.08.2017 04:06 13,8 C 20,6 C 88 % 1016,1 hPa 0,0 l/m 15,0 km/h (3 Bft) SW 221 0 min 0,000 mm 0,0 UV-I 0 W/m 11,8 C 9,7 C 25,7 km/h (4 Bft) 100,00 %
12.08.2017 04:08 13,8 C 20,6 C 88 % 1016,0 hPa 0,0 l/m 16,4 km/h (3 Bft) S-SW 212 0 min 0,000 mm 0,0 UV-I 0 W/m 11,8 C 9,3 C 25,7 km/h (4 Bft) 100,00 %
12.08.2017 04:10 13,9 C 20,6 C 88 % 1016,1 hPa 0,0 l/m 12,6 km/h (3 Bft) SW 221 0 min 0,000 mm 0,0 UV-I 0 W/m 11,9 C 10,8 C 19,3 km/h (3 Bft) 100,00 %
12.08.2017 04:12 13,8 C 20,6 C 88 % 1016,0 hPa 0,0 l/m 12,7 km/h (3 Bft) W-SW 242 0 min 0,000 mm 0,0 UV-I 0 W/m 11,8 C 10,6 C 17,7 km/h (3 Bft) 100,00 %
12.08.2017 04:14 13,8 C 20,6 C 88 % 1016,0 hPa 0,0 l/m 12,8 km/h (3 Bft) S-SW 212 0 min 0,000 mm 0,0 UV-I 0 W/m 11,8 C 10,6 C 17,7 km/h (3 Bft) 97,96 %
12.08.2017 04:16 13,8 C 20,6 C 88 % 1016,1 hPa 0,0 l/m 13,8 km/h (3 Bft) W-SW 242 0 min 0,000 mm 0,0 UV-I 0 W/m 11,8 C 10,2 C 17,7 km/h (3 Bft) 100,00 %
12.08.2017 04:18 13,8 C 20,6 C 88 % 1016,2 hPa 0,0 l/m 10,1 km/h (2 Bft) S-SW 202 0 min 0,000 mm 0,0 UV-I 0 W/m 11,8 C 11,7 C 16,1 km/h (3 Bft) 100,00 %
12.08.2017 04:20 13,8 C 20,6 C 88 % 1016,2 hPa 0,0 l/m 10,6 km/h (2 Bft) S-SO 159 0 min 0,000 mm 0,0 UV-I 0 W/m 11,8 C 11,5 C 19,3 km/h (3 Bft) 100,00 %
12.08.2017 04:22 13,8 C 20,6 C 88 % 1016,2 hPa 0,0 l/m 14,2 km/h (3 Bft) W-SW 248 0 min 0,000 mm 0,0 UV-I 0 W/m 11,8 C 10,0 C 22,5 km/h (4 Bft) 100,00 %
12.08.2017 04:24 13,8 C 20,6 C 88 % 1016,2 hPa 0,0 l/m 12,3 km/h (3 Bft) W-SW 242 0 min 0,000 mm 0,0 UV-I 0 W/m 11,8 C 10,8 C 20,9 km/h (4 Bft) 100,00 %
12.08.2017 04:26 13,8 C 20,6 C 88 % 1016,1 hPa 0,0 l/m 13,2 km/h (3 Bft) SW 222 0 min 0,000 mm 0,0 UV-I 0 W/m 11,8 C 10,4 C 17,7 km/h (3 Bft) 100,00 %
12.08.2017 04:28 13,8 C 20,6 C 89 % 1016,2 hPa 0,0 l/m 16,7 km/h (3 Bft) SW 233 0 min 0,000 mm 0,0 UV-I 0 W/m 12,0 C 9,2 C 22,5 km/h (4 Bft) 98,11 %
12.08.2017 04:30 13,8 C 20,6 C 89 % 1016,1 hPa 0,0 l/m 19,5 km/h (3 Bft) SW 231 0 min 0,000 mm 0,0 UV-I 0 W/m 12,0 C 8,3 C 25,7 km/h (4 Bft) 100,00 %
12.08.2017 04:32 13,8 C 20,6 C 89 % 1016,2 hPa 0,0 l/m 16,1 km/h (3 Bft) SW 234 0 min 0,000 mm 0,0 UV-I 0 W/m 12,0 C 9,4 C 25,7 km/h (4 Bft) 98,00 %
12.08.2017 04:34 13,8 C 20,6 C 89 % 1016,3 hPa 0,0 l/m 16,6 km/h (3 Bft) SW 219 0 min 0,000 mm 0,0 UV-I 0 W/m 12,0 C 9,2 C 27,4 km/h (4 Bft) 100,00 %
12.08.2017 04:36 13,8 C 20,6 C 89 % 1016,2 hPa 0,0 l/m 18,3 km/h (3 Bft) SW 215 0 min 0,000 mm 0,0 UV-I 0 W/m 12,0 C 8,7 C 25,7 km/h (4 Bft) 100,00 %
12.08.2017 04:38 13,8 C 20,6 C 89 % 1016,1 hPa 0,0 l/m 15,2 km/h (3 Bft) SW 224 0 min 0,000 mm 0,0 UV-I 0 W/m 12,0 C 9,7 C 22,5 km/h (4 Bft) 100,00 %
12.08.2017 04:40 13,8 C 20,6 C 89 % 1016,1 hPa 0,0 l/m 17,1 km/h (3 Bft) SW 232 0 min 0,000 mm 0,0 UV-I 0 W/m 12,0 C 9,0 C 24,1 km/h (4 Bft) 100,00 %
12.08.2017 04:42 13,8 C 20,6 C 89 % 1016,1 hPa 0,0 l/m 19,4 km/h (3 Bft) W-SW 244 0 min 0,000 mm 0,0 UV-I 0 W/m 12,0 C 8,4 C 25,7 km/h (4 Bft) 100,00 %
12.08.2017 04:44 13,7 C 20,6 C 89 % 1016,1 hPa 0,0 l/m 12,7 km/h (3 Bft) SW 234 0 min 0,000 mm 0,0 UV-I 0 W/m 11,9 C 10,5 C 19,3 km/h (3 Bft) 100,00 %
12.08.2017 04:46 13,7 C 20,6 C 89 % 1016,1 hPa 0,0 l/m 13,0 km/h (3 Bft) W-SW 238 0 min 0,000 mm 0,0 UV-I 0 W/m 11,9 C 10,4 C 22,5 km/h (4 Bft) 98,21 %
12.08.2017 04:48 13,7 C 20,6 C 89 % 1016,1 hPa 0,0 l/m 17,9 km/h (3 Bft) SW 236 0 min 0,000 mm 0,0 UV-I 0 W/m 11,9 C 8,7 C 24,1 km/h (4 Bft) 97,56 %
12.08.2017 04:50 13,7 C 20,6 C 89 % 1016,1 hPa 0,0 l/m 14,6 km/h (3 Bft) SW 223 0 min 0,000 mm 0,0 UV-I 0 W/m 11,9 C 9,8 C 20,9 km/h (4 Bft) 97,44 %
12.08.2017 04:52 13,7 C 20,6 C 89 % 1016,1 hPa 0,0 l/m 15,7 km/h (3 Bft) W 265 0 min 0,000 mm 0,0 UV-I 0 W/m 11,9 C 9,4 C 25,7 km/h (4 Bft) 100,00 %
12.08.2017 04:54 13,7 C 20,6 C 89 % 1016,1 hPa 0,0 l/m 12,6 km/h (3 Bft) W-NW 286 0 min 0,000 mm 0,0 UV-I 0 W/m 11,9 C 10,5 C 17,7 km/h (3 Bft) 97,62 %
12.08.2017 04:56 13,7 C 20,6 C 89 % 1016,1 hPa 0,0 l/m 12,3 km/h (3 Bft) W-SW 245 0 min 0,000 mm 0,0 UV-I 0 W/m 11,9 C 10,6 C 19,3 km/h (3 Bft) 100,00 %
12.08.2017 04:58 13,7 C 20,6 C 89 % 1016,1 hPa 0,0 l/m 14,3 km/h (3 Bft) SW 217 0 min 0,000 mm 0,0 UV-I 0 W/m 11,9 C 9,9 C 20,9 km/h (4 Bft) 100,00 %
12.08.2017 05:00 13,7 C 20,6 C 89 % 1016,1 hPa 0,0 l/m 14,6 km/h (3 Bft) W-SW 242 0 min 0,025 mm 0,0 UV-I 0 W/m 11,9 C 9,8 C 24,1 km/h (4 Bft) 100,00 %
12.08.2017 05:02 13,6 C 20,6 C 90 % 1016,1 hPa 0,0 l/m 13,4 km/h (3 Bft) SW 234 0 min 0,000 mm 0,0 UV-I 0 W/m 12,0 C 10,1 C 24,1 km/h (4 Bft) 100,00 %
12.08.2017 05:04 13,7 C 20,6 C 90 % 1016,1 hPa 0,0 l/m 12,0 km/h (2 Bft) SW 227 0 min 0,000 mm 0,0 UV-I 0 W/m 12,1 C 10,8 C 19,3 km/h (3 Bft) 100,00 %
12.08.2017 05:06 13,6 C 20,6 C 90 % 1016,1 hPa 0,0 l/m 13,6 km/h (3 Bft) SW 220 0 min 0,000 mm 0,0 UV-I 0 W/m 12,0 C 10,0 C 17,7 km/h (3 Bft) 100,00 %
12.08.2017 05:08 13,6 C 20,6 C 90 % 1016,1 hPa 0,0 l/m 9,5 km/h (2 Bft) W-SW 247 0 min 0,000 mm 0,0 UV-I 0 W/m 12,0 C 11,8 C 16,1 km/h (3 Bft) 100,00 %
12.08.2017 05:10 13,6 C 20,6 C 90 % 1016,1 hPa 0,0 l/m 11,4 km/h (2 Bft) W 261 0 min 0,000 mm 0,0 UV-I 0 W/m 12,0 C 10,9 C 19,3 km/h (3 Bft) 96,61 %
12.08.2017 05:12 13,6 C 20,6 C 90 % 1016,1 hPa 0,0 l/m 12,8 km/h (3 Bft) W-SW 241 0 min 0,000 mm 0,0 UV-I 0 W/m 12,0 C 10,3 C 20,9 km/h (4 Bft) 97,56 %
12.08.2017 05:14 13,6 C 20,6 C 90 % 1016,1 hPa 0,0 l/m 12,1 km/h (2 Bft) S-SW 212 0 min 0,000 mm 0,0 UV-I 0 W/m 12,0 C 10,6 C 20,9 km/h (4 Bft) 94,64 %
12.08.2017 05:16 13,6 C 20,6 C 90 % 1016,1 hPa 0,0 l/m 13,6 km/h (3 Bft) SW 233 0 min 0,000 mm 0,0 UV-I 0 W/m 12,0 C 10,0 C 22,5 km/h (4 Bft) 97,14 %
12.08.2017 05:18 13,6 C 20,6 C 90 % 1016,2 hPa 0,0 l/m 14,7 km/h (3 Bft) W-SW 247 0 min 0,000 mm 0,0 UV-I 0 W/m 12,0 C 9,6 C 22,5 km/h (4 Bft) 98,21 %
12.08.2017 05:20 13,6 C 20,6 C 90 % 1016,1 hPa 0,0 l/m 13,3 km/h (3 Bft) SW 215 0 min 0,000 mm 0,0 UV-I 0 W/m 12,0 C 10,1 C 17,7 km/h (3 Bft) 97,73 %
12.08.2017 05:22 13,6 C 20,6 C 90 % 1016,1 hPa 0,0 l/m 11,0 km/h (2 Bft) W-SW 254 0 min 0,000 mm 0,0 UV-I 0 W/m 12,0 C 11,1 C 19,3 km/h (3 Bft) 96,00 %
12.08.2017 05:24 13,6 C 20,6 C 90 % 1016,1 hPa 0,0 l/m 12,0 km/h (2 Bft) W 264 0 min 0,000 mm 0,0 UV-I 0 W/m 12,0 C 10,7 C 17,7 km/h (3 Bft) 97,73 %
12.08.2017 05:26 13,6 C 20,6 C 90 % 1016,1 hPa 0,0 l/m 13,4 km/h (3 Bft) W-SW 239 0 min 0,000 mm 0,0 UV-I 0 W/m 12,0 C 10,1 C 17,7 km/h (3 Bft) 97,56 %
12.08.2017 05:28 13,5 C 20,6 C 90 % 1016,1 hPa 0,0 l/m 13,1 km/h (3 Bft) SW 229 0 min 0,000 mm 0,0 UV-I 0 W/m 11,9 C 10,1 C 20,9 km/h (4 Bft) 98,11 %
12.08.2017 05:30 13,5 C 20,6 C 91 % 1016,2 hPa 0,0 l/m 13,0 km/h (3 Bft) SW 230 0 min 0,000 mm 0,0 UV-I 0 W/m 12,1 C 10,1 C 20,9 km/h (4 Bft) 97,73 %
12.08.2017 05:32 13,5 C 20,6 C 91 % 1016,2 hPa 0,0 l/m 14,4 km/h (3 Bft) SW 235 0 min 0,000 mm 0,0 UV-I 0 W/m 12,1 C 9,6 C 22,5 km/h (4 Bft) 98,00 %
12.08.2017 05:34 13,5 C 20,6 C 91 % 1016,2 hPa 0,0 l/m 12,8 km/h (3 Bft) W-SW 238 0 min 0,000 mm 0,0 UV-I 0 W/m 12,1 C 10,2 C 19,3 km/h (3 Bft) 98,00 %
12.08.2017 05:36 13,4 C 20,6 C 91 % 1016,2 hPa 0,0 l/m 13,9 km/h (3 Bft) SW 230 0 min 0,000 mm 0,0 UV-I 0 W/m 12,0 C 9,7 C 19,3 km/h (3 Bft) 97,44 %
12.08.2017 05:38 13,4 C 20,6 C 91 % 1016,2 hPa 0,0 l/m 13,4 km/h (3 Bft) W-SW 246 0 min 0,000 mm 0,0 UV-I 0 W/m 12,0 C 9,9 C 25,7 km/h (4 Bft) 98,00 %
12.08.2017 05:40 13,4 C 20,6 C 91 % 1016,2 hPa 0,0 l/m 17,2 km/h (3 Bft) SW 222 0 min 0,000 mm 0,0 UV-I 0 W/m 12,0 C 8,5 C 22,5 km/h (4 Bft) 97,56 %
12.08.2017 05:42 13,4 C 20,6 C 91 % 1016,3 hPa 0,0 l/m 15,7 km/h (3 Bft) S-SW 196 0 min 0,000 mm 0,0 UV-I 0 W/m 12,0 C 9,0 C 25,7 km/h (4 Bft) 98,00 %
12.08.2017 05:44 13,4 C 20,6 C 91 % 1016,3 hPa 0,0 l/m 16,8 km/h (3 Bft) W-SW 238 0 min 0,000 mm 0,0 UV-I 0 W/m 12,0 C 8,6 C 24,1 km/h (4 Bft) 98,11 %
12.08.2017 05:46 13,4 C 20,6 C 91 % 1016,3 hPa 0,0 l/m 12,6 km/h (3 Bft) SW 228 0 min 0,000 mm 0,0 UV-I 0 W/m 12,0 C 10,2 C 20,9 km/h (4 Bft) 97,87 %
12.08.2017 05:48 13,4 C 20,6 C 91 % 1016,3 hPa 0,0 l/m 11,7 km/h (2 Bft) SW 236 0 min 0,000 mm 0,0 UV-I 2 W/m 12,0 C 10,6 C 16,1 km/h (3 Bft) 97,37 %
12.08.2017 05:50 13,4 C 20,6 C 91 % 1016,2 hPa 0,0 l/m 8,3 km/h (2 Bft) W 263 0 min 0,000 mm 0,0 UV-I 5 W/m 12,0 C 12,2 C 14,5 km/h (3 Bft) 97,14 %
12.08.2017 05:52 13,4 C 20,6 C 91 % 1016,3 hPa 0,0 l/m 11,3 km/h (2 Bft) W-SW 249 0 min 0,000 mm 0,0 UV-I 5 W/m 12,0 C 10,7 C 24,1 km/h (4 Bft) 97,06 %
12.08.2017 05:54 13,4 C 20,6 C 91 % 1016,3 hPa 0,0 l/m 12,0 km/h (2 Bft) W-SW 239 0 min 0,000 mm 0,0 UV-I 5 W/m 12,0 C 10,4 C 17,7 km/h (3 Bft) 95,45 %
12.08.2017 05:56 13,4 C 20,6 C 91 % 1016,3 hPa 0,0 l/m 11,3 km/h (2 Bft) SW 232 0 min 0,000 mm 0,0 UV-I 6 W/m 12,0 C 10,7 C 17,7 km/h (3 Bft) 92,68 %
12.08.2017 05:58 13,4 C 20,6 C 91 % 1016,3 hPa 0,0 l/m 11,2 km/h (2 Bft) W-SW 251 0 min 0,000 mm 0,0 UV-I 7 W/m 12,0 C 10,8 C 16,1 km/h (3 Bft) 96,43 %
12.08.2017 06:00 13,4 C 20,6 C 91 % 1016,4 hPa 0,0 l/m 13,0 km/h (3 Bft) W-SW 244 0 min 0,026 mm 0,0 UV-I 7 W/m 12,0 C 10,0 C 19,3 km/h (3 Bft) 97,87 %
12.08.2017 06:02 13,4 C 20,6 C 92 % 1016,4 hPa 0,0 l/m 10,8 km/h (2 Bft) W-SW 250 0 min 0,000 mm 0,0 UV-I 7 W/m 12,1 C 11,0 C 16,1 km/h (3 Bft) 94,29 %
12.08.2017 06:04 13,4 C 20,6 C 92 % 1016,4 hPa 0,0 l/m 8,7 km/h (2 Bft) W-SW 258 0 min 0,000 mm 0,0 UV-I 7 W/m 12,1 C 12,0 C 12,9 km/h (3 Bft) 98,21 %
12.08.2017 06:06 13,4 C 20,6 C 92 % 1016,4 hPa 0,0 l/m 10,6 km/h (2 Bft) W-SW 238 0 min 0,000 mm 0,0 UV-I 9 W/m 12,1 C 11,1 C 19,3 km/h (3 Bft) 97,87 %
12.08.2017 06:08 13,4 C 20,6 C 92 % 1016,4 hPa 0,0 l/m 10,0 km/h (2 Bft) W-SW 256 0 min 0,000 mm 0,0 UV-I 9 W/m 12,1 C 11,4 C 16,1 km/h (3 Bft) 97,56 %
12.08.2017 06:10 13,4 C 20,6 C 92 % 1016,4 hPa 0,0 l/m 10,3 km/h (2 Bft) W-SW 239 0 min 0,000 mm 0,0 UV-I 11 W/m 12,1 C 11,2 C 14,5 km/h (3 Bft) 97,62 %
12.08.2017 06:12 13,4 C 20,6 C 92 % 1016,4 hPa 0,0 l/m 12,3 km/h (3 Bft) W-SW 249 0 min 0,000 mm 0,0 UV-I 16 W/m 12,1 C 10,3 C 17,7 km/h (3 Bft) 98,28 %
12.08.2017 06:14 13,4 C 20,6 C 92 % 1016,4 hPa 0,0 l/m 10,6 km/h (2 Bft) SW 215 0 min 0,000 mm 0,0 UV-I 20 W/m 12,1 C 11,1 C 16,1 km/h (3 Bft) 97,62 %
12.08.2017 06:16 13,4 C 20,6 C 92 % 1016,3 hPa 0,0 l/m 10,2 km/h (2 Bft) SW 230 0 min 0,000 mm 0,0 UV-I 23 W/m 12,1 C 11,3 C 17,7 km/h (3 Bft) 93,62 %
12.08.2017 06:18 13,4 C 20,6 C 92 % 1016,4 hPa 0,0 l/m 11,3 km/h (2 Bft) W-SW 248 0 min 0,000 mm 0,0 UV-I 26 W/m 12,1 C 10,7 C 16,1 km/h (3 Bft) 97,56 %
12.08.2017 06:20 13,4 C 20,6 C 92 % 1016,4 hPa 0,0 l/m 10,4 km/h (2 Bft) W-SW 242 0 min 0,000 mm 0,0 UV-I 29 W/m 12,1 C 11,2 C 17,7 km/h (3 Bft) 96,43 %
12.08.2017 06:22 13,4 C 20,6 C 92 % 1016,4 hPa 0,0 l/m 12,0 km/h (2 Bft) W 259 0 min 0,000 mm 0,0 UV-I 33 W/m 12,1 C 10,4 C 19,3 km/h (3 Bft) 98,00 %
12.08.2017 06:24 13,4 C 20,6 C 92 % 1016,4 hPa 0,0 l/m 11,0 km/h (2 Bft) W-SW 241 2 min 0,000 mm 0,0 UV-I 37 W/m 12,1 C 10,9 C 17,7 km/h (3 Bft) 97,56 %
12.08.2017 06:26 13,4 C 20,6 C 92 % 1016,4 hPa 0,0 l/m 14,0 km/h (3 Bft) W-SW 258 0 min 0,000 mm 0,0 UV-I 37 W/m 12,1 C 9,6 C 24,1 km/h (4 Bft) 98,00 %
12.08.2017 06:28 13,4 C 20,6 C 92 % 1016,4 hPa 0,0 l/m 11,3 km/h (2 Bft) SW 227 0 min 0,000 mm 0,0 UV-I 42 W/m 12,1 C 10,7 C 17,7 km/h (3 Bft) 97,56 %
12.08.2017 06:30 13,4 C 20,6 C 92 % 1016,4 hPa 0,0 l/m 13,7 km/h (3 Bft) SW 226 0 min 0,000 mm 0,0 UV-I 39 W/m 12,1 C 9,7 C 19,3 km/h (3 Bft) 98,11 %
12.08.2017 06:32 13,4 C 20,6 C 92 % 1016,4 hPa 0,0 l/m 10,2 km/h (2 Bft) W-SW 239 0 min 0,000 mm 0,0 UV-I 35 W/m 12,1 C 11,3 C 19,3 km/h (3 Bft) 97,73 %
12.08.2017 06:34 13,4 C 20,6 C 92 % 1016,5 hPa 0,0 l/m 9,8 km/h (2 Bft) W 270 0 min 0,000 mm 0,0 UV-I 39 W/m 12,1 C 11,5 C 17,7 km/h (3 Bft) 97,73 %
12.08.2017 06:36 13,4 C 20,6 C 92 % 1016,5 hPa 0,0 l/m 10,2 km/h (2 Bft) SW 236 0 min 0,000 mm 0,0 UV-I 43 W/m 12,1 C 11,3 C 14,5 km/h (3 Bft) 98,00 %
12.08.2017 06:38 13,4 C 20,6 C 92 % 1016,5 hPa 0,0 l/m 10,6 km/h (2 Bft) SW 234 0 min 0,000 mm 0,0 UV-I 51 W/m 12,1 C 11,1 C 16,1 km/h (3 Bft) 98,11 %
12.08.2017 06:40 13,5 C 20,6 C 92 % 1016,5 hPa 0,0 l/m 9,5 km/h (2 Bft) W-SW 255 0 min 0,000 mm 0,0 UV-I 54 W/m 12,2 C 11,7 C 16,1 km/h (3 Bft) 97,37 %
12.08.2017 06:42 13,5 C 20,6 C 92 % 1016,5 hPa 0,0 l/m 9,4 km/h (2 Bft) W-SW 250 0 min 0,000 mm 0,0 UV-I 57 W/m 12,2 C 11,8 C 19,3 km/h (3 Bft) 98,00 %
12.08.2017 06:44 13,5 C 20,6 C 92 % 1016,5 hPa 0,0 l/m 10,4 km/h (2 Bft) W-SW 257 0 min 0,000 mm 0,0 UV-I 51 W/m 12,2 C 11,3 C 17,7 km/h (3 Bft) 97,37 %
12.08.2017 06:46 13,6 C 20,6 C 92 % 1016,5 hPa 0,0 l/m 5,7 km/h (1 Bft) W-SW 248 0 min 0,000 mm 0,0 UV-I 44 W/m 12,3 C 13,6 C 8,0 km/h (2 Bft) 96,23 %
12.08.2017 06:48 13,6 C 20,6 C 92 % 1016,5 hPa 0,0 l/m 8,2 km/h (2 Bft) SW 235 0 min 0,000 mm 0,0 UV-I 44 W/m 12,3 C 12,5 C 12,9 km/h (3 Bft) 98,00 %
12.08.2017 06:50 13,6 C 20,6 C 92 % 1016,5 hPa 0,0 l/m 9,1 km/h (2 Bft) W-SW 243 0 min 0,000 mm 0,0 UV-I 49 W/m 12,3 C 12,0 C 17,7 km/h (3 Bft) 89,74 %
12.08.2017 06:52 13,6 C 20,6 C 92 % 1016,6 hPa 0,0 l/m 12,7 km/h (3 Bft) W-SW 240 0 min 0,000 mm 0,0 UV-I 47 W/m 12,3 C 10,4 C 17,7 km/h (3 Bft) 98,28 %
12.08.2017 06:54 13,6 C 20,6 C 92 % 1016,5 hPa 0,0 l/m 10,7 km/h (2 Bft) W-SW 248 0 min 0,000 mm 0,0 UV-I 41 W/m 12,3 C 11,2 C 17,7 km/h (3 Bft) 95,83 %
12.08.2017 06:56 13,6 C 20,6 C 92 % 1016,6 hPa 0,0 l/m 8,5 km/h (2 Bft) SW 232 0 min 0,000 mm 0,0 UV-I 46 W/m 12,3 C 12,4 C 12,9 km/h (3 Bft) 100,00 %
12.08.2017 06:58 13,6 C 20,6 C 92 % 1016,5 hPa 0,0 l/m 7,5 km/h (2 Bft) W-SW 245 0 min 0,000 mm 0,0 UV-I 49 W/m 12,3 C 12,9 C 14,5 km/h (3 Bft) 95,74 %
12.08.2017 07:00 13,7 C 20,6 C 92 % 1016,6 hPa 0,0 l/m 8,4 km/h (2 Bft) S-SW 212 0 min 0,025 mm 0,0 UV-I 38 W/m 12,4 C 12,5 C 12,9 km/h (3 Bft) 98,11 %
12.08.2017 07:02 13,7 C 20,6 C 92 % 1016,6 hPa 0,0 l/m 8,8 km/h (2 Bft) SW 215 0 min 0,000 mm 0,0 UV-I 31 W/m 12,4 C 12,3 C 16,1 km/h (3 Bft) 100,00 %
12.08.2017 07:04 13,7 C 20,6 C 92 % 1016,6 hPa 0,0 l/m 12,8 km/h (3 Bft) W-SW 240 0 min 0,000 mm 0,0 UV-I 40 W/m 12,4 C 10,4 C 17,7 km/h (3 Bft) 100,00 %
12.08.2017 07:06 13,7 C 20,6 C 92 % 1016,6 hPa 0,0 l/m 10,9 km/h (2 Bft) W-SW 240 0 min 0,000 mm 0,0 UV-I 63 W/m 12,4 C 11,3 C 16,1 km/h (3 Bft) 100,00 %
12.08.2017 07:08 13,7 C 20,6 C 92 % 1016,5 hPa 0,0 l/m 8,6 km/h (2 Bft) W 269 0 min 0,000 mm 0,0 UV-I 75 W/m 12,4 C 12,4 C 14,5 km/h (3 Bft) 100,00 %
12.08.2017 07:10 13,7 C 20,6 C 91 % 1016,6 hPa 0,0 l/m 8,7 km/h (2 Bft) S-SW 203 0 min 0,000 mm 0,0 UV-I 79 W/m 12,3 C 12,3 C 12,9 km/h (3 Bft) 97,56 %
12.08.2017 07:12 13,8 C 20,6 C 92 % 1016,6 hPa 0,0 l/m 8,5 km/h (2 Bft) W-SW 254 0 min 0,000 mm 0,0 UV-I 81 W/m 12,5 C 12,6 C 14,5 km/h (3 Bft) 98,21 %
12.08.2017 07:14 13,8 C 20,6 C 92 % 1016,6 hPa 0,0 l/m 9,5 km/h (2 Bft) W-SW 248 0 min 0,000 mm 0,0 UV-I 71 W/m 12,5 C 12,0 C 12,9 km/h (3 Bft) 98,00 %
12.08.2017 07:16 13,8 C 20,6 C 91 % 1016,6 hPa 0,0 l/m 10,5 km/h (2 Bft) W-SW 254 0 min 0,000 mm 0,0 UV-I 70 W/m 12,4 C 11,6 C 16,1 km/h (3 Bft) 97,14 %
12.08.2017 07:18 13,8 C 20,6 C 91 % 1016,5 hPa 0,0 l/m 8,0 km/h (2 Bft) SW 221 0 min 0,000 mm 0,0 UV-I 79 W/m 12,4 C 12,8 C 12,9 km/h (3 Bft) 98,31 %
12.08.2017 07:20 13,8 C 20,6 C 91 % 1016,5 hPa 0,0 l/m 8,7 km/h (2 Bft) W-NW 282 0 min 0,000 mm 0,0 UV-I 95 W/m 12,4 C 12,5 C 14,5 km/h (3 Bft) 94,74 %
12.08.2017 07:22 13,9 C 20,6 C 91 % 1016,6 hPa 0,0 l/m 12,7 km/h (3 Bft) SW 215 0 min 0,000 mm 0,0 UV-I 106 W/m 12,5 C 10,7 C 22,5 km/h (4 Bft) 98,11 %
12.08.2017 07:24 13,9 C 20,6 C 91 % 1016,7 hPa 0,0 l/m 13,5 km/h (3 Bft) W-SW 248 0 min 0,000 mm 0,0 UV-I 104 W/m 12,5 C 10,4 C 20,9 km/h (4 Bft) 97,37 %
12.08.2017 07:26 13,9 C 20,6 C 91 % 1016,7 hPa 0,0 l/m 9,4 km/h (2 Bft) W-SW 252 0 min 0,000 mm 0,0 UV-I 98 W/m 12,5 C 12,2 C 16,1 km/h (3 Bft) 96,43 %
12.08.2017 07:28 13,9 C 20,6 C 91 % 1016,7 hPa 0,0 l/m 10,5 km/h (2 Bft) S-SW 192 0 min 0,000 mm 0,0 UV-I 107 W/m 12,5 C 11,7 C 16,1 km/h (3 Bft) 98,00 %
12.08.2017 07:30 13,9 C 20,6 C 91 % 1016,7 hPa 0,0 l/m 9,7 km/h (2 Bft) W-SW 237 0 min 0,000 mm 0,0 UV-I 116 W/m 12,5 C 12,0 C 17,7 km/h (3 Bft) 97,44 %
12.08.2017 07:32 13,9 C 20,6 C 91 % 1016,7 hPa 0,0 l/m 10,1 km/h (2 Bft) SW 219 0 min 0,000 mm 0,0 UV-I 129 W/m 12,5 C 11,9 C 17,7 km/h (3 Bft) 98,18 %
12.08.2017 07:34 13,9 C 20,6 C 91 % 1016,7 hPa 0,0 l/m 11,7 km/h (2 Bft) W-SW 246 0 min 0,000 mm 0,0 UV-I 128 W/m 12,5 C 11,1 C 20,9 km/h (4 Bft) 97,62 %
12.08.2017 07:36 14,0 C 20,6 C 91 % 1016,8 hPa 0,0 l/m 10,5 km/h (2 Bft) W-SW 238 0 min 0,000 mm 0,0 UV-I 133 W/m 12,6 C 11,8 C 17,7 km/h (3 Bft) 97,56 %
12.08.2017 07:38 14,1 C 20,6 C 91 % 1016,8 hPa 0,0 l/m 8,6 km/h (2 Bft) S-SW 202 0 min 0,000 mm 0,0 UV-I 138 W/m 12,7 C 12,8 C 12,9 km/h (3 Bft) 96,00 %
12.08.2017 07:40 14,1 C 20,6 C 91 % 1016,8 hPa 0,0 l/m 14,2 km/h (3 Bft) W-SW 238 0 min 0,000 mm 0,0 UV-I 130 W/m 12,7 C 10,4 C 20,9 km/h (4 Bft) 97,73 %
12.08.2017 07:42 14,1 C 20,6 C 91 % 1016,8 hPa 0,0 l/m 13,5 km/h (3 Bft) SW 218 0 min 0,000 mm 0,0 UV-I 124 W/m 12,7 C 10,6 C 17,7 km/h (3 Bft) 98,00 %
12.08.2017 07:44 14,1 C 20,6 C 91 % 1016,9 hPa 0,0 l/m 13,8 km/h (3 Bft) SW 223 0 min 0,000 mm 0,0 UV-I 108 W/m 12,7 C 10,5 C 22,5 km/h (4 Bft) 100,00 %
12.08.2017 07:46 14,1 C 20,6 C 91 % 1016,7 hPa 0,0 l/m 10,1 km/h (2 Bft) W 259 0 min 0,000 mm 0,0 UV-I 87 W/m 12,7 C 12,1 C 16,1 km/h (3 Bft) 100,00 %
12.08.2017 07:48 14,0 C 20,6 C 91 % 1016,7 hPa 0,0 l/m 13,0 km/h (3 Bft) SW 229 0 min 0,000 mm 0,0 UV-I 90 W/m 12,6 C 10,7 C 19,3 km/h (3 Bft) 100,00 %
12.08.2017 07:50 13,9 C 20,6 C 91 % 1016,8 hPa 0,0 l/m 8,8 km/h (2 Bft) W-SW 250 0 min 0,000 mm 0,3 UV-I 103 W/m 12,5 C 12,5 C 16,1 km/h (3 Bft) 98,00 %
12.08.2017 07:52 14,0 C 20,6 C 91 % 1016,8 hPa 0,0 l/m 11,6 km/h (2 Bft) W-SW 244 0 min 0,000 mm 0,5 UV-I 113 W/m 12,6 C 11,3 C 19,3 km/h (3 Bft) 97,83 %
12.08.2017 07:54 14,0 C 20,6 C 91 % 1016,8 hPa 0,0 l/m 9,9 km/h (2 Bft) W-SW 253 2 min 0,000 mm 0,5 UV-I 254 W/m 12,6 C 12,1 C 14,5 km/h (3 Bft) 100,00 %
12.08.2017 07:56 14,1 C 20,6 C 91 % 1016,9 hPa 0,0 l/m 11,3 km/h (2 Bft) SW 215 2 min 0,000 mm 0,5 UV-I 204 W/m 12,7 C 11,5 C 16,1 km/h (3 Bft) 97,56 %
12.08.2017 07:58 14,1 C 20,6 C 91 % 1016,9 hPa 0,0 l/m 13,8 km/h (3 Bft) W 273 2 min 0,000 mm 0,5 UV-I 207 W/m 12,7 C 10,5 C 17,7 km/h (3 Bft) 100,00 %
12.08.2017 08:00 14,2 C 20,6 C 91 % 1016,9 hPa 0,0 l/m 11,6 km/h (2 Bft) W 262 2 min 0,076 mm 0,6 UV-I 323 W/m 12,8 C 11,5 C 19,3 km/h (3 Bft) 100,00 %
12.08.2017 08:02 14,3 C 20,6 C 91 % 1016,9 hPa 0,0 l/m 11,6 km/h (2 Bft) W 259 2 min 0,000 mm 0,6 UV-I 207 W/m 12,8 C 11,6 C 19,3 km/h (3 Bft) 100,00 %
12.08.2017 08:04 14,3 C 20,6 C 91 % 1017,0 hPa 0,0 l/m 12,1 km/h (2 Bft) W 266 2 min 0,000 mm 0,6 UV-I 220 W/m 12,8 C 11,4 C 17,7 km/h (3 Bft) 100,00 %
12.08.2017 08:06 14,4 C 20,6 C 91 % 1017,0 hPa 0,0 l/m 11,1 km/h (2 Bft) W-SW 244 2 min 0,000 mm 0,7 UV-I 344 W/m 12,9 C 12,0 C 17,7 km/h (3 Bft) 100,00 %
12.08.2017 08:08 14,6 C 20,6 C 90 % 1017,0 hPa 0,0 l/m 11,3 km/h (2 Bft) W-SW 238 2 min 0,000 mm 0,7 UV-I 363 W/m 13,0 C 12,1 C 16,1 km/h (3 Bft) 100,00 %
12.08.2017 08:10 14,8 C 20,6 C 89 % 1017,0 hPa 0,0 l/m 11,9 km/h (2 Bft) W-SW 240 2 min 0,000 mm 0,7 UV-I 380 W/m 13,0 C 12,1 C 22,5 km/h (4 Bft) 96,00 %
12.08.2017 08:12 14,8 C 20,6 C 88 % 1017,1 hPa 0,0 l/m 12,1 km/h (2 Bft) W-SW 240 2 min 0,000 mm 0,8 UV-I 407 W/m 12,8 C 12,0 C 24,1 km/h (4 Bft) 100,00 %
12.08.2017 08:14 14,9 C 20,6 C 87 % 1017,1 hPa 0,0 l/m 15,6 km/h (3 Bft) SW 231 2 min 0,000 mm 0,7 UV-I 224 W/m 12,8 C 10,9 C 20,9 km/h (4 Bft) 100,00 %
12.08.2017 08:16 14,8 C 20,6 C 87 % 1017,1 hPa 0,0 l/m 14,1 km/h (3 Bft) W-SW 257 0 min 0,000 mm 0,7 UV-I 169 W/m 12,7 C 11,3 C 19,3 km/h (3 Bft) 100,00 %
12.08.2017 08:18 14,8 C 20,6 C 86 % 1017,1 hPa 0,0 l/m 14,5 km/h (3 Bft) SW 235 2 min 0,000 mm 0,9 UV-I 351 W/m 12,5 C 11,1 C 24,1 km/h (4 Bft) 100,00 %
12.08.2017 08:20 14,9 C 20,6 C 86 % 1017,2 hPa 0,0 l/m 16,7 km/h (3 Bft) W-NW 290 2 min 0,000 mm 0,9 UV-I 470 W/m 12,6 C 10,5 C 24,1 km/h (4 Bft) 100,00 %
12.08.2017 08:22 15,0 C 20,6 C 87 % 1017,4 hPa 0,0 l/m 12,0 km/h (2 Bft) W-SW 257 2 min 0,000 mm 0,7 UV-I 452 W/m 12,9 C 12,3 C 20,9 km/h (4 Bft) 100,00 %
12.08.2017 08:24 15,0 C 20,6 C 86 % 1017,3 hPa 0,0 l/m 12,7 km/h (3 Bft) W 267 0 min 0,000 mm 0,6 UV-I 80 W/m 12,7 C 12,0 C 19,3 km/h (3 Bft) 100,00 %
12.08.2017 08:26 14,9 C 20,6 C 86 % 1017,3 hPa 0,0 l/m 13,6 km/h (3 Bft) W 265 0 min 0,000 mm 0,5 UV-I 68 W/m 12,6 C 11,6 C 24,1 km/h (4 Bft) 97,87 %
12.08.2017 08:28 14,8 C 20,6 C 86 % 1017,2 hPa 0,0 l/m 13,2 km/h (3 Bft) SW 232 0 min 0,000 mm 0,6 UV-I 79 W/m 12,5 C 11,6 C 19,3 km/h (3 Bft) 100,00 %
12.08.2017 08:30 14,7 C 20,6 C 86 % 1017,2 hPa 0,0 l/m 15,5 km/h (3 Bft) SW 229 0 min 0,000 mm 0,7 UV-I 67 W/m 12,4 C 10,7 C 25,7 km/h (4 Bft) 100,00 %
12.08.2017 08:32 14,7 C 20,6 C 86 % 1017,3 hPa 0,0 l/m 14,3 km/h (3 Bft) W 275 0 min 0,000 mm 0,8 UV-I 109 W/m 12,4 C 11,1 C 20,9 km/h (4 Bft) 100,00 %
12.08.2017 08:34 14,6 C 20,6 C 85 % 1017,3 hPa 0,0 l/m 7,7 km/h (2 Bft) W-SW 248 0 min 0,000 mm 0,8 UV-I 129 W/m 12,1 C 13,8 C 11,3 km/h (2 Bft) 100,00 %
12.08.2017 08:36 14,6 C 20,6 C 86 % 1017,4 hPa 0,0 l/m 8,0 km/h (2 Bft) W-SW 253 0 min 0,000 mm 0,9 UV-I 130 W/m 12,3 C 13,7 C 12,9 km/h (3 Bft) 100,00 %
12.08.2017 08:38 14,7 C 20,6 C 85 % 1017,4 hPa 0,0 l/m 12,1 km/h (2 Bft) W-SW 251 2 min 0,000 mm 1,0 UV-I 377 W/m 12,2 C 11,9 C 19,3 km/h (3 Bft) 100,00 %
12.08.2017 08:40 14,9 C 20,6 C 83 % 1017,5 hPa 0,0 l/m 9,0 km/h (2 Bft) W-SW 254 2 min 0,000 mm 0,9 UV-I 370 W/m 12,0 C 13,5 C 17,7 km/h (3 Bft) 100,00 %
12.08.2017 08:42 15,0 C 20,6 C 83 % 1017,5 hPa 0,0 l/m 12,0 km/h (2 Bft) SW 233 0 min 0,000 mm 0,8 UV-I 224 W/m 12,1 C 12,3 C 17,7 km/h (3 Bft) 100,00 %
12.08.2017 08:44 15,0 C 20,6 C 81 % 1017,5 hPa 0,0 l/m 11,2 km/h (2 Bft) W-SW 242 0 min 0,000 mm 0,8 UV-I 159 W/m 11,8 C 12,6 C 20,9 km/h (4 Bft) 100,00 %
12.08.2017 08:46 14,9 C 20,6 C 82 % 1017,5 hPa 0,0 l/m 11,5 km/h (2 Bft) W 273 2 min 0,000 mm 1,0 UV-I 278 W/m 11,9 C 12,4 C 16,1 km/h (3 Bft) 100,00 %
12.08.2017 08:48 15,0 C 20,6 C 82 % 1017,6 hPa 0,0 l/m 11,0 km/h (2 Bft) W 270 2 min 0,000 mm 1,1 UV-I 358 W/m 12,0 C 12,7 C 24,1 km/h (4 Bft) 100,00 %
12.08.2017 08:50 15,1 C 20,6 C 81 % 1017,5 hPa 0,0 l/m 11,5 km/h (2 Bft) W 262 2 min 0,000 mm 1,2 UV-I 362 W/m 11,9 C 12,6 C 22,5 km/h (4 Bft) 100,00 %
12.08.2017 08:52 15,1 C 20,6 C 82 % 1017,5 hPa 0,0 l/m 10,1 km/h (2 Bft) W-SW 252 2 min 0,000 mm 1,2 UV-I 356 W/m 12,0 C 13,2 C 22,5 km/h (4 Bft) 100,00 %
12.08.2017 08:54 15,2 C 20,6 C 81 % 1017,4 hPa 0,0 l/m 10,5 km/h (2 Bft) W-SW 240 2 min 0,000 mm 1,1 UV-I 327 W/m 12,0 C 13,1 C 16,1 km/h (3 Bft) 100,00 %
12.08.2017 08:56 15,3 C 20,6 C 81 % 1017,4 hPa 0,0 l/m 7,2 km/h (2 Bft) W-SW 243 2 min 0,000 mm 1,1 UV-I 367 W/m 12,1 C 14,9 C 12,9 km/h (3 Bft) 100,00 %
12.08.2017 08:58 15,3 C 20,6 C 79 % 1017,4 hPa 0,0 l/m 14,8 km/h (3 Bft) W-SW 239 0 min 0,000 mm 0,7 UV-I 228 W/m 11,7 C 11,6 C 22,5 km/h (4 Bft) 100,00 %
12.08.2017 09:00 15,2 C 20,6 C 80 % 1017,5 hPa 0,0 l/m 14,6 km/h (3 Bft) W-SW 248 0 min 0,153 mm 0,7 UV-I 101 W/m 11,8 C 11,6 C 25,7 km/h (4 Bft) 100,00 %
12.08.2017 09:02 15,1 C 20,6 C 80 % 1017,5 hPa 0,0 l/m 11,5 km/h (2 Bft) SW 232 0 min 0,000 mm 0,8 UV-I 112 W/m 11,7 C 12,6 C 19,3 km/h (3 Bft) 100,00 %
12.08.2017 09:04 15,1 C 20,6 C 81 % 1017,5 hPa 0,0 l/m 10,5 km/h (2 Bft) W-NW 286 0 min 0,000 mm 0,9 UV-I 155 W/m 11,9 C 13,0 C 16,1 km/h (3 Bft) 95,12 %
12.08.2017 09:06 14,9 C 20,6 C 81 % 1017,6 hPa 0,0 l/m 7,4 km/h (2 Bft) S-SW 209 0 min 0,000 mm 1,0 UV-I 154 W/m 11,7 C 14,3 C 12,9 km/h (3 Bft) 97,56 %
12.08.2017 09:08 14,9 C 20,6 C 82 % 1017,6 hPa 0,0 l/m 4,8 km/h (1 Bft) W 269 0 min 0,000 mm 1,0 UV-I 155 W/m 11,9 C 14,9 C 11,3 km/h (2 Bft) 96,55 %
12.08.2017 09:10 14,9 C 20,6 C 82 % 1017,7 hPa 0,0 l/m 7,3 km/h (2 Bft) W 259 0 min 0,000 mm 1,0 UV-I 155 W/m 11,9 C 14,4 C 12,9 km/h (3 Bft) 95,74 %
12.08.2017 09:12 14,9 C 20,6 C 82 % 1017,6 hPa 0,0 l/m 6,4 km/h (2 Bft) W-SW 246 0 min 0,000 mm 1,1 UV-I 208 W/m 11,9 C 14,9 C 12,9 km/h (3 Bft) 97,87 %
12.08.2017 09:14 14,9 C 20,6 C 83 % 1017,7 hPa 0,0 l/m 4,6 km/h (1 Bft) W-NW 287 2 min 0,000 mm 1,2 UV-I 324 W/m 12,0 C 14,9 C 9,7 km/h (2 Bft) 97,37 %
12.08.2017 09:16 15,1 C 20,6 C 82 % 1017,7 hPa 0,0 l/m 5,1 km/h (1 Bft) W-NW 290 2 min 0,000 mm 1,2 UV-I 345 W/m 12,0 C 15,1 C 11,3 km/h (2 Bft) 98,00 %
12.08.2017 09:18 15,2 C 20,6 C 81 % 1017,7 hPa 0,0 l/m 10,5 km/h (2 Bft) W 264 2 min 0,000 mm 0,8 UV-I 341 W/m 12,0 C 13,1 C 16,1 km/h (3 Bft) 97,73 %
12.08.2017 09:20 15,2 C 20,6 C 81 % 1017,7 hPa 0,0 l/m 9,7 km/h (2 Bft) NW 309 0 min 0,000 mm 0,2 UV-I 114 W/m 12,0 C 13,5 C 16,1 km/h (3 Bft) 97,56 %
12.08.2017 09:22 15,2 C 20,0 C 81 % 1017,7 hPa 0,0 l/m 9,5 km/h (2 Bft) W-SW 253 0 min 0,000 mm 0,0 UV-I 95 W/m 12,0 C 13,6 C 16,1 km/h (3 Bft) 97,78 %
12.08.2017 09:24 15,1 C 20,0 C 81 % 1017,7 hPa 0,0 l/m 6,1 km/h (2 Bft) W 265 0 min 0,000 mm 0,0 UV-I 72 W/m 11,9 C 15,1 C 11,3 km/h (2 Bft) 96,23 %
12.08.2017 09:26 15,1 C 20,0 C 81 % 1017,8 hPa 0,0 l/m 8,2 km/h (2 Bft) W-SW 237 0 min 0,000 mm 0,0 UV-I 50 W/m 11,9 C 14,1 C 12,9 km/h (3 Bft) 96,15 %
12.08.2017 09:28 15,0 C 20,0 C 81 % 1017,8 hPa 0,0 l/m 6,3 km/h (2 Bft) W-NW 285 0 min 0,000 mm 0,0 UV-I 41 W/m 11,8 C 15,0 C 9,7 km/h (2 Bft) 97,44 %
12.08.2017 09:30 14,9 C 20,0 C 81 % 1017,8 hPa 0,0 l/m 6,1 km/h (2 Bft) W 280 0 min 0,000 mm 0,0 UV-I 45 W/m 11,7 C 14,9 C 8,0 km/h (2 Bft) 98,11 %
12.08.2017 09:32 14,8 C 20,0 C 82 % 1017,8 hPa 0,0 l/m 6,1 km/h (2 Bft) W-SW 239 0 min 0,000 mm 0,0 UV-I 65 W/m 11,8 C 14,8 C 11,3 km/h (2 Bft) 98,00 %
12.08.2017 09:34 14,8 C 20,0 C 82 % 1017,8 hPa 0,0 l/m 8,2 km/h (2 Bft) W-NW 283 0 min 0,000 mm 0,0 UV-I 65 W/m 11,8 C 13,8 C 19,3 km/h (3 Bft) 96,00 %
12.08.2017 09:36 14,8 C 20,0 C 82 % 1017,8 hPa 0,0 l/m 9,4 km/h (2 Bft) W-NW 288 0 min 0,000 mm 0,1 UV-I 85 W/m 11,8 C 13,2 C 14,5 km/h (3 Bft) 97,73 %
12.08.2017 09:38 14,8 C 20,0 C 82 % 1017,8 hPa 0,0 l/m 7,5 km/h (2 Bft) W-SW 247 0 min 0,000 mm 0,6 UV-I 117 W/m 11,8 C 14,2 C 12,9 km/h (3 Bft) 95,12 %
12.08.2017 09:40 14,8 C 20,0 C 82 % 1017,8 hPa 0,0 l/m 6,5 km/h (2 Bft) W-SW 238 0 min 0,000 mm 0,7 UV-I 136 W/m 11,8 C 14,8 C 11,3 km/h (2 Bft) 98,00 %
12.08.2017 09:42 14,8 C 20,0 C 83 % 1017,9 hPa 0,0 l/m 5,8 km/h (2 Bft) W-SW 239 0 min 0,000 mm 0,7 UV-I 138 W/m 11,9 C 14,8 C 9,7 km/h (2 Bft) 97,87 %
12.08.2017 09:44 14,8 C 20,0 C 83 % 1017,9 hPa 0,0 l/m 6,5 km/h (2 Bft) W 270 0 min 0,000 mm 1,1 UV-I 171 W/m 11,9 C 14,8 C 11,3 km/h (2 Bft) 97,73 %
12.08.2017 09:46 14,9 C 20,0 C 83 % 1017,8 hPa 0,0 l/m 5,0 km/h (1 Bft) W-SW 242 0 min 0,000 mm 1,2 UV-I 186 W/m 12,0 C 14,9 C 8,0 km/h (2 Bft) 96,23 %
12.08.2017 09:48 14,9 C 20,6 C 83 % 1017,8 hPa 0,0 l/m 6,9 km/h (2 Bft) N-NW 344 0 min 0,000 mm 1,2 UV-I 195 W/m 12,0 C 14,6 C 11,3 km/h (2 Bft) 97,56 %
12.08.2017 09:50 15,0 C 20,0 C 83 % 1017,9 hPa 0,0 l/m 5,6 km/h (1 Bft) W 261 0 min 0,000 mm 1,1 UV-I 164 W/m 12,1 C 15,0 C 9,7 km/h (2 Bft) 98,00 %
12.08.2017 09:52 15,1 C 20,0 C 83 % 1017,9 hPa 0,0 l/m 6,8 km/h (2 Bft) SW 232 0 min 0,000 mm 1,1 UV-I 139 W/m 12,2 C 14,9 C 9,7 km/h (2 Bft) 97,37 %
12.08.2017 09:54 15,1 C 20,6 C 82 % 1017,9 hPa 0,0 l/m 4,2 km/h (1 Bft) W-NW 290 0 min 0,000 mm 1,1 UV-I 182 W/m 12,0 C 15,1 C 8,0 km/h (2 Bft) 98,11 %
12.08.2017 09:56 15,1 C 20,6 C 82 % 1018,0 hPa 0,0 l/m 5,9 km/h (2 Bft) W 271 0 min 0,000 mm 1,2 UV-I 247 W/m 12,0 C 15,1 C 11,3 km/h (2 Bft) 96,23 %
12.08.2017 09:58 15,2 C 20,6 C 82 % 1018,0 hPa 0,0 l/m 6,8 km/h (2 Bft) W-NW 284 0 min 0,000 mm 1,1 UV-I 236 W/m 12,1 C 15,0 C 17,7 km/h (3 Bft) 100,00 %
12.08.2017 10:00 15,2 C 20,6 C 81 % 1018,0 hPa 0,0 l/m 6,4 km/h (2 Bft) W 279 0 min 0,000 mm 1,1 UV-I 214 W/m 12,0 C 15,2 C 12,9 km/h (3 Bft) 93,75 %
12.08.2017 10:02 15,3 C 20,6 C 81 % 1017,9 hPa 0,0 l/m 4,7 km/h (1 Bft) SW 229 0 min 0,101 mm 0,9 UV-I 163 W/m 12,1 C 15,3 C 8,0 km/h (2 Bft) 97,56 %
12.08.2017 10:04 15,3 C 20,0 C 82 % 1018,0 hPa 0,0 l/m 4,6 km/h (1 Bft) W 263 0 min 0,000 mm 0,9 UV-I 129 W/m 12,2 C 15,3 C 6,4 km/h (2 Bft) 98,21 %
12.08.2017 10:06 15,3 C 20,6 C 80 % 1017,9 hPa 0,0 l/m 7,1 km/h (2 Bft) SW 227 0 min 0,000 mm 1,1 UV-I 179 W/m 11,9 C 14,9 C 14,5 km/h (3 Bft) 97,56 %
12.08.2017 10:08 15,3 C 20,6 C 80 % 1018,0 hPa 0,0 l/m 7,0 km/h (2 Bft) N-NW 342 0 min 0,000 mm 1,5 UV-I 227 W/m 11,9 C 15,0 C 11,3 km/h (2 Bft) 98,11 %
12.08.2017 10:10 15,3 C 20,6 C 80 % 1018,0 hPa 0,0 l/m 3,9 km/h (1 Bft) W 271 0 min 0,000 mm 1,9 UV-I 298 W/m 11,9 C 15,3 C 9,7 km/h (2 Bft) 97,62 %
12.08.2017 10:12 15,4 C 20,6 C 80 % 1018,0 hPa 0,0 l/m 9,3 km/h (2 Bft) W-SW 254 2 min 0,000 mm 2,3 UV-I 404 W/m 12,0 C 13,9 C 14,5 km/h (3 Bft) 98,11 %
12.08.2017 10:14 15,6 C 20,6 C 80 % 1018,0 hPa 0,0 l/m 5,3 km/h (1 Bft) W-SW 244 2 min 0,000 mm 2,2 UV-I 425 W/m 12,2 C 15,6 C 11,3 km/h (2 Bft) 97,73 %
12.08.2017 10:16 15,8 C 20,6 C 78 % 1017,9 hPa 0,0 l/m 7,0 km/h (2 Bft) W 270 2 min 0,000 mm 2,9 UV-I 686 W/m 12,0 C 15,5 C 17,7 km/h (3 Bft) 97,37 %
12.08.2017 10:18 16,2 C 20,6 C 79 % 1017,9 hPa 0,0 l/m 5,1 km/h (1 Bft) W 262 2 min 0,000 mm 2,6 UV-I 719 W/m 12,6 C 16,2 C 16,1 km/h (3 Bft) 96,23 %
12.08.2017 10:20 16,2 C 20,6 C 76 % 1017,9 hPa 0,0 l/m 9,8 km/h (2 Bft) W-SW 242 2 min 0,000 mm 2,6 UV-I 382 W/m 12,0 C 14,5 C 17,7 km/h (3 Bft) 97,73 %
12.08.2017 10:22 16,3 C 20,6 C 77 % 1017,8 hPa 0,0 l/m 6,8 km/h (2 Bft) SW 229 0 min 0,000 mm 3,1 UV-I 346 W/m 12,3 C 16,1 C 17,7 km/h (3 Bft) 98,00 %
12.08.2017 10:24 16,3 C 20,6 C 76 % 1017,7 hPa 0,0 l/m 7,1 km/h (2 Bft) W-SW 256 2 min 0,000 mm 3,0 UV-I 597 W/m 12,1 C 15,9 C 14,5 km/h (3 Bft) 98,00 %
12.08.2017 10:26 16,6 C 20,6 C 78 % 1017,8 hPa 0,0 l/m 4,1 km/h (1 Bft) W-NW 300 2 min 0,000 mm 3,4 UV-I 734 W/m 12,7 C 16,6 C 9,7 km/h (2 Bft) 97,37 %
12.08.2017 10:28 16,8 C 20,6 C 77 % 1017,9 hPa 0,0 l/m 2,3 km/h (1 Bft) N 5 2 min 0,000 mm 3,5 UV-I 846 W/m 12,7 C 16,8 C 4,8 km/h (1 Bft) 97,87 %
12.08.2017 10:30 16,9 C 20,6 C 77 % 1017,9 hPa 0,0 l/m 4,8 km/h (1 Bft) SW 234 2 min 0,000 mm 2,4 UV-I 526 W/m 12,8 C 16,9 C 9,7 km/h (2 Bft) 97,73 %
12.08.2017 10:32 17,0 C 20,6 C 76 % 1017,8 hPa 0,0 l/m 6,4 km/h (2 Bft) SW 229 2 min 0,000 mm 2,3 UV-I 412 W/m 12,7 C 17,0 C 12,9 km/h (3 Bft) 98,21 %
12.08.2017 10:34 16,9 C 20,6 C 75 % 1017,9 hPa 0,0 l/m 7,8 km/h (2 Bft) NW 304 2 min 0,000 mm 2,0 UV-I 415 W/m 12,4 C 16,2 C 12,9 km/h (3 Bft) 97,56 %
12.08.2017 10:36 16,8 C 20,6 C 74 % 1017,9 hPa 0,0 l/m 9,7 km/h (2 Bft) SW 220 0 min 0,000 mm 1,7 UV-I 302 W/m 12,1 C 15,2 C 19,3 km/h (3 Bft) 96,23 %
12.08.2017 10:38 16,7 C 20,6 C 75 % 1018,1 hPa 0,0 l/m 9,7 km/h (2 Bft) SW 230 0 min 0,000 mm 1,5 UV-I 250 W/m 12,2 C 15,1 C 14,5 km/h (3 Bft) 98,00 %
12.08.2017 10:40 16,6 C 20,6 C 74 % 1018,2 hPa 0,0 l/m 9,2 km/h (2 Bft) SW 222 0 min 0,000 mm 1,3 UV-I 221 W/m 11,9 C 15,2 C 17,7 km/h (3 Bft) 97,87 %
12.08.2017 10:42 16,5 C 20,6 C 74 % 1018,2 hPa 0,0 l/m 9,2 km/h (2 Bft) W-SW 246 0 min 0,000 mm 1,1 UV-I 186 W/m 11,8 C 15,1 C 14,5 km/h (3 Bft) 100,00 %
12.08.2017 10:44 16,4 C 20,6 C 74 % 1018,2 hPa 0,0 l/m 9,9 km/h (2 Bft) SW 233 0 min 0,000 mm 1,0 UV-I 172 W/m 11,8 C 14,7 C 14,5 km/h (3 Bft) 98,00 %
12.08.2017 10:46 16,4 C 20,6 C 75 % 1018,2 hPa 0,0 l/m 12,6 km/h (3 Bft) SW 224 0 min 0,000 mm 1,1 UV-I 176 W/m 12,0 C 13,7 C 19,3 km/h (3 Bft) 100,00 %
12.08.2017 10:48 16,3 C 20,6 C 73 % 1018,2 hPa 0,0 l/m 15,5 km/h (3 Bft) W-SW 244 0 min 0,000 mm 1,0 UV-I 172 W/m 11,4 C 12,6 C 22,5 km/h (4 Bft) 100,00 %
12.08.2017 10:50 16,2 C 20,6 C 73 % 1018,2 hPa 0,0 l/m 12,6 km/h (3 Bft) NW 304 0 min 0,000 mm 0,9 UV-I 163 W/m 11,4 C 13,4 C 17,7 km/h (3 Bft) 100,00 %
12.08.2017 10:52 16,2 C 20,6 C 75 % 1018,2 hPa 0,0 l/m 9,6 km/h (2 Bft) W 275 0 min 0,000 mm 1,2 UV-I 189 W/m 11,8 C 14,6 C 17,7 km/h (3 Bft) 100,00 %
12.08.2017 10:54 16,2 C 20,6 C 75 % 1018,2 hPa 0,0 l/m 11,8 km/h (2 Bft) W 261 0 min 0,000 mm 1,2 UV-I 204 W/m 11,8 C 13,7 C 19,3 km/h (3 Bft) 100,00 %
12.08.2017 10:56 16,2 C 20,6 C 75 % 1018,2 hPa 0,0 l/m 10,4 km/h (2 Bft) SW 228 0 min 0,000 mm 1,3 UV-I 230 W/m 11,8 C 14,3 C 16,1 km/h (3 Bft) 100,00 %
12.08.2017 10:58 16,1 C 20,6 C 74 % 1018,1 hPa 0,0 l/m 10,6 km/h (2 Bft) W-SW 246 0 min 0,000 mm 1,6 UV-I 259 W/m 11,5 C 14,1 C 16,1 km/h (3 Bft) 96,43 %
12.08.2017 11:00 16,2 C 20,6 C 75 % 1018,0 hPa 0,0 l/m 9,0 km/h (2 Bft) SW 235 0 min 0,000 mm 1,6 UV-I 251 W/m 11,8 C 14,9 C 17,7 km/h (3 Bft) 95,12 %
12.08.2017 11:02 16,2 C 20,6 C 75 % 1018,0 hPa 0,0 l/m 11,9 km/h (2 Bft) W 269 0 min 0,203 mm 1,4 UV-I 219 W/m 11,8 C 13,7 C 16,1 km/h (3 Bft) 96,55 %
12.08.2017 11:04 16,2 C 20,6 C 74 % 1018,1 hPa 0,0 l/m 10,6 km/h (2 Bft) W-SW 255 0 min 0,000 mm 1,4 UV-I 205 W/m 11,6 C 14,2 C 22,5 km/h (4 Bft) 98,53 %
12.08.2017 11:06 16,2 C 20,6 C 75 % 1018,0 hPa 0,0 l/m 8,6 km/h (2 Bft) W-SW 246 0 min 0,000 mm 1,4 UV-I 207 W/m 11,8 C 15,1 C 14,5 km/h (3 Bft) 95,45 %
12.08.2017 11:08 16,2 C 20,6 C 74 % 1018,0 hPa 0,0 l/m 6,8 km/h (2 Bft) SW 230 0 min 0,000 mm 1,6 UV-I 241 W/m 11,6 C 16,0 C 14,5 km/h (3 Bft) 96,00 %
12.08.2017 11:10 16,2 C 20,6 C 74 % 1018,0 hPa 0,0 l/m 15,2 km/h (3 Bft) W-SW 252 0 min 0,000 mm 1,8 UV-I 292 W/m 11,6 C 12,6 C 22,5 km/h (4 Bft) 97,56 %
12.08.2017 11:12 16,2 C 20,6 C 75 % 1017,9 hPa 0,0 l/m 11,1 km/h (2 Bft) SW 222 0 min 0,000 mm 1,7 UV-I 277 W/m 11,8 C 14,0 C 16,1 km/h (3 Bft) 95,45 %
12.08.2017 11:14 16,2 C 20,6 C 76 % 1018,0 hPa 0,0 l/m 9,0 km/h (2 Bft) W-SW 244 0 min 0,000 mm 1,5 UV-I 252 W/m 12,0 C 14,9 C 20,9 km/h (4 Bft) 97,87 %
12.08.2017 11:16 16,2 C 20,6 C 76 % 1018,0 hPa 0,0 l/m 15,5 km/h (3 Bft) W 263 0 min 0,000 mm 1,4 UV-I 227 W/m 12,0 C 12,5 C 24,1 km/h (4 Bft) 98,11 %
12.08.2017 11:18 16,2 C 20,6 C 76 % 1018,0 hPa 0,0 l/m 10,5 km/h (2 Bft) W-SW 258 0 min 0,000 mm 1,4 UV-I 223 W/m 12,0 C 14,2 C 20,9 km/h (4 Bft) 98,00 %
12.08.2017 11:20 16,2 C 20,6 C 76 % 1018,0 hPa 0,0 l/m 9,9 km/h (2 Bft) W-SW 244 0 min 0,000 mm 1,5 UV-I 247 W/m 12,0 C 14,5 C 17,7 km/h (3 Bft) 97,37 %
12.08.2017 11:22 16,2 C 20,6 C 77 % 1018,0 hPa 0,0 l/m 5,2 km/h (1 Bft) W 260 0 min 0,000 mm 1,7 UV-I 286 W/m 12,2 C 16,2 C 8,0 km/h (2 Bft) 98,00 %
12.08.2017 11:24 16,2 C 20,6 C 76 % 1018,0 hPa 0,0 l/m 10,3 km/h (2 Bft) W-SW 240 0 min 0,000 mm 2,3 UV-I 367 W/m 12,0 C 14,3 C 16,1 km/h (3 Bft) 96,23 %
12.08.2017 11:26 16,3 C 20,6 C 77 % 1018,0 hPa 0,0 l/m 8,7 km/h (2 Bft) W-SW 249 0 min 0,000 mm 2,3 UV-I 367 W/m 12,3 C 15,1 C 14,5 km/h (3 Bft) 97,62 %
12.08.2017 11:28 16,3 C 20,6 C 77 % 1018,0 hPa 0,0 l/m 9,0 km/h (2 Bft) W-NW 298 0 min 0,000 mm 2,3 UV-I 355 W/m 12,3 C 15,0 C 16,1 km/h (3 Bft) 96,23 %
12.08.2017 11:30 16,4 C 20,6 C 77 % 1018,0 hPa 0,0 l/m 12,5 km/h (3 Bft) W 272 0 min 0,000 mm 2,2 UV-I 342 W/m 12,4 C 13,7 C 19,3 km/h (3 Bft) 100,00 %
12.08.2017 11:32 16,4 C 20,6 C 77 % 1018,0 hPa 0,0 l/m 11,7 km/h (2 Bft) W-SW 239 0 min 0,000 mm 2,2 UV-I 330 W/m 12,4 C 14,0 C 17,7 km/h (3 Bft) 98,21 %
12.08.2017 11:34 16,4 C 20,6 C 75 % 1018,0 hPa 0,0 l/m 11,9 km/h (2 Bft) W-SW 242 0 min 0,000 mm 2,0 UV-I 312 W/m 12,0 C 13,9 C 20,9 km/h (4 Bft) 98,21 %
12.08.2017 11:36 16,4 C 20,6 C 76 % 1017,9 hPa 0,0 l/m 9,0 km/h (2 Bft) NW 309 0 min 0,000 mm 2,0 UV-I 299 W/m 12,2 C 15,1 C 17,7 km/h (3 Bft) 100,00 %
12.08.2017 11:38 16,4 C 20,6 C 76 % 1017,9 hPa 0,0 l/m 5,3 km/h (1 Bft) W-SW 244 0 min 0,000 mm 1,9 UV-I 293 W/m 12,2 C 16,4 C 9,7 km/h (2 Bft) 100,00 %
12.08.2017 11:40 16,4 C 20,6 C 76 % 1018,0 hPa 0,0 l/m 5,7 km/h (1 Bft) W-SW 258 0 min 0,000 mm 1,9 UV-I 277 W/m 12,2 C 16,4 C 11,3 km/h (2 Bft) 100,00 %
12.08.2017 11:42 16,4 C 20,6 C 74 % 1017,9 hPa 0,0 l/m 10,7 km/h (2 Bft) W 263 0 min 0,000 mm 1,9 UV-I 288 W/m 11,8 C 14,4 C 24,1 km/h (4 Bft) 100,00 %
12.08.2017 11:44 16,4 C 20,6 C 75 % 1018,0 hPa 0,0 l/m 9,4 km/h (2 Bft) W-SW 244 0 min 0,000 mm 2,2 UV-I 334 W/m 12,0 C 14,9 C 14,5 km/h (3 Bft) 96,23 %
12.08.2017 11:46 16,4 C 20,6 C 75 % 1017,9 hPa 0,0 l/m 7,0 km/h (2 Bft) W-SW 256 0 min 0,000 mm 2,6 UV-I 382 W/m 12,0 C 16,1 C 12,9 km/h (3 Bft) 100,00 %
12.08.2017 11:48 16,4 C 20,6 C 75 % 1017,8 hPa 0,0 l/m 7,4 km/h (2 Bft) NW 311 0 min 0,000 mm 2,8 UV-I 399 W/m 12,0 C 15,9 C 14,5 km/h (3 Bft) 100,00 %
12.08.2017 11:50 16,5 C 20,6 C 76 % 1017,9 hPa 0,0 l/m 10,1 km/h (2 Bft) W-SW 257 2 min 0,000 mm 3,1 UV-I 438 W/m 12,3 C 14,7 C 16,1 km/h (3 Bft) 100,00 %
12.08.2017 11:52 16,6 C 20,6 C 75 % 1017,8 hPa 0,0 l/m 7,3 km/h (2 Bft) W-SW 245 2 min 0,000 mm 3,5 UV-I 486 W/m 12,1 C 16,1 C 11,3 km/h (2 Bft) 100,00 %
12.08.2017 11:54 16,7 C 20,6 C 75 % 1017,8 hPa 0,0 l/m 7,9 km/h (2 Bft) NW 310 2 min 0,000 mm 3,8 UV-I 535 W/m 12,2 C 15,9 C 14,5 km/h (3 Bft) 100,00 %
12.08.2017 11:56 16,9 C 20,6 C 77 % 1017,8 hPa 0,0 l/m 9,8 km/h (2 Bft) W 277 2 min 0,000 mm 4,1 UV-I 592 W/m 12,8 C 15,3 C 14,5 km/h (3 Bft) 100,00 %
12.08.2017 11:58 17,0 C 20,6 C 74 % 1017,9 hPa 0,0 l/m 15,3 km/h (3 Bft) W 259 2 min 0,000 mm 4,4 UV-I 631 W/m 12,3 C 13,5 C 22,5 km/h (4 Bft) 100,00 %
12.08.2017 12:00 17,0 C 20,6 C 74 % 1017,9 hPa 0,0 l/m 11,9 km/h (2 Bft) SW 236 2 min 0,000 mm 4,4 UV-I 635 W/m 12,3 C 14,6 C 20,9 km/h (4 Bft) 100,00 %
12.08.2017 12:02 17,1 C 20,6 C 73 % 1018,0 hPa 0,0 l/m 14,1 km/h (3 Bft) W-SW 247 2 min 0,229 mm 4,7 UV-I 635 W/m 12,2 C 14,0 C 22,5 km/h (4 Bft) 100,00 %
12.08.2017 12:04 17,2 C 20,6 C 73 % 1017,9 hPa 0,0 l/m 15,2 km/h (3 Bft) W-SW 250 2 min 0,000 mm 5,4 UV-I 824 W/m 12,3 C 13,8 C 22,5 km/h (4 Bft) 100,00 %
12.08.2017 12:06 17,4 C 20,6 C 71 % 1017,9 hPa 0,0 l/m 14,5 km/h (3 Bft) SW 234 2 min 0,000 mm 5,7 UV-I 1099 W/m 12,1 C 14,2 C 22,5 km/h (4 Bft) 100,00 %
12.08.2017 12:08 17,6 C 20,6 C 71 % 1017,9 hPa 0,0 l/m 13,4 km/h (3 Bft) W-SW 250 2 min 0,000 mm 5,2 UV-I 1096 W/m 12,3 C 14,8 C 19,3 km/h (3 Bft) 100,00 %
12.08.2017 12:10 17,7 C 20,6 C 71 % 1018,1 hPa 0,0 l/m 15,7 km/h (3 Bft) W 264 2 min 0,000 mm 3,6 UV-I 637 W/m 12,4 C 14,3 C 22,5 km/h (4 Bft) 100,00 %
12.08.2017 12:12 17,6 C 20,6 C 71 % 1018,0 hPa 0,0 l/m 14,8 km/h (3 Bft) W-SW 248 2 min 0,000 mm 3,7 UV-I 648 W/m 12,3 C 14,4 C 20,9 km/h (4 Bft) 100,00 %
12.08.2017 12:14 17,4 C 20,6 C 71 % 1018,1 hPa 0,0 l/m 15,1 km/h (3 Bft) W 259 0 min 0,000 mm 2,2 UV-I 426 W/m 12,1 C 14,1 C 25,7 km/h (4 Bft) 100,00 %
12.08.2017 12:16 17,3 C 20,6 C 72 % 1018,0 hPa 0,0 l/m 9,6 km/h (2 Bft) W-NW 286 0 min 0,000 mm 1,7 UV-I 260 W/m 12,2 C 15,8 C 16,1 km/h (3 Bft) 100,00 %
12.08.2017 12:18 17,1 C 20,6 C 73 % 1018,0 hPa 0,0 l/m 10,3 km/h (2 Bft) N-NO 21 0 min 0,000 mm 1,4 UV-I 211 W/m 12,2 C 15,3 C 19,3 km/h (3 Bft) 100,00 %
12.08.2017 12:20 17,0 C 20,6 C 73 % 1018,1 hPa 0,0 l/m 13,7 km/h (3 Bft) W-SW 252 0 min 0,000 mm 1,3 UV-I 185 W/m 12,1 C 14,0 C 24,1 km/h (4 Bft) 100,00 %
12.08.2017 12:22 16,8 C 20,6 C 74 % 1018,2 hPa 0,0 l/m 11,2 km/h (2 Bft) W-SW 246 0 min 0,000 mm 1,4 UV-I 207 W/m 12,1 C 14,6 C 19,3 km/h (3 Bft) 100,00 %
12.08.2017 12:24 16,8 C 20,6 C 73 % 1018,2 hPa 0,0 l/m 11,1 km/h (2 Bft) W 271 0 min 0,000 mm 1,7 UV-I 240 W/m 11,9 C 14,7 C 17,7 km/h (3 Bft) 100,00 %
12.08.2017 12:26 16,7 C 20,6 C 73 % 1018,2 hPa 0,0 l/m 14,5 km/h (3 Bft) W-SW 240 0 min 0,000 mm 2,0 UV-I 285 W/m 11,8 C 13,4 C 19,3 km/h (3 Bft) 100,00 %
12.08.2017 12:28 16,8 C 20,6 C 74 % 1018,2 hPa 0,0 l/m 11,8 km/h (2 Bft) W-SW 258 0 min 0,000 mm 2,2 UV-I 317 W/m 12,1 C 14,4 C 16,1 km/h (3 Bft) 98,11 %
12.08.2017 12:30 16,8 C 20,6 C 74 % 1018,2 hPa 0,0 l/m 10,4 km/h (2 Bft) W 265 0 min 0,000 mm 1,9 UV-I 277 W/m 12,1 C 14,9 C 16,1 km/h (3 Bft) 100,00 %
12.08.2017 12:32 16,8 C 20,6 C 74 % 1018,2 hPa 0,0 l/m 8,7 km/h (2 Bft) W 265 0 min 0,000 mm 1,5 UV-I 212 W/m 12,1 C 15,7 C 14,5 km/h (3 Bft) 98,11 %
12.08.2017 12:34 16,8 C 20,6 C 75 % 1018,2 hPa 0,0 l/m 5,5 km/h (1 Bft) W 267 0 min 0,000 mm 1,2 UV-I 181 W/m 12,3 C 16,8 C 12,9 km/h (3 Bft) 97,56 %
12.08.2017 12:36 16,7 C 20,6 C 74 % 1018,2 hPa 0,0 l/m 5,1 km/h (1 Bft) W 279 0 min 0,000 mm 1,3 UV-I 190 W/m 12,0 C 16,7 C 9,7 km/h (2 Bft) 100,00 %
12.08.2017 12:38 16,7 C 20,6 C 76 % 1018,2 hPa 0,0 l/m 4,1 km/h (1 Bft) W-NW 294 0 min 0,000 mm 1,9 UV-I 257 W/m 12,4 C 16,7 C 9,7 km/h (2 Bft) 97,87 %
12.08.2017 12:40 16,7 C 20,6 C 75 % 1018,2 hPa 0,0 l/m 4,9 km/h (1 Bft) W-SW 240 0 min 0,000 mm 2,3 UV-I 304 W/m 12,2 C 16,7 C 8,0 km/h (2 Bft) 100,00 %
12.08.2017 12:42 16,7 C 20,6 C 75 % 1018,2 hPa 0,0 l/m 2,9 km/h (1 Bft) W 269 0 min 0,000 mm 2,3 UV-I 290 W/m 12,2 C 16,7 C 11,3 km/h (2 Bft) 97,56 %
12.08.2017 12:44 16,8 C 20,6 C 77 % 1018,3 hPa 0,0 l/m 4,4 km/h (1 Bft) SW 227 0 min 0,000 mm 2,2 UV-I 275 W/m 12,7 C 16,8 C 9,7 km/h (2 Bft) 100,00 %
12.08.2017 12:46 16,8 C 20,6 C 74 % 1018,2 hPa 0,0 l/m 3,9 km/h (1 Bft) W-NW 292 0 min 0,000 mm 2,0 UV-I 262 W/m 12,1 C 16,8 C 11,3 km/h (2 Bft) 100,00 %
12.08.2017 12:48 16,8 C 20,6 C 75 % 1018,3 hPa 0,0 l/m 7,9 km/h (2 Bft) W 270 0 min 0,000 mm 1,8 UV-I 248 W/m 12,3 C 16,0 C 16,1 km/h (3 Bft) 100,00 %
12.08.2017 12:50 16,8 C 20,6 C 74 % 1018,2 hPa 0,0 l/m 6,9 km/h (2 Bft) W-SW 252 0 min 0,000 mm 1,8 UV-I 246 W/m 12,1 C 16,5 C 12,9 km/h (3 Bft) 100,00 %
12.08.2017 12:52 16,7 C 20,6 C 75 % 1018,3 hPa 0,0 l/m 10,7 km/h (2 Bft) SW 228 0 min 0,000 mm 1,6 UV-I 221 W/m 12,2 C 14,7 C 17,7 km/h (3 Bft) 93,62 %
12.08.2017 12:54 16,7 C 20,6 C 74 % 1018,4 hPa 0,0 l/m 10,7 km/h (2 Bft) SW 235 0 min 0,000 mm 1,4 UV-I 199 W/m 12,0 C 14,7 C 17,7 km/h (3 Bft) 92,11 %
12.08.2017 12:56 16,6 C 20,6 C 75 % 1018,4 hPa 0,0 l/m 9,2 km/h (2 Bft) NW 305 0 min 0,000 mm 1,4 UV-I 195 W/m 12,1 C 15,2 C 16,1 km/h (3 Bft) 98,21 %
12.08.2017 12:58 16,6 C 20,6 C 75 % 1018,4 hPa 0,0 l/m 6,5 km/h (2 Bft) SW 235 0 min 0,000 mm 1,3 UV-I 172 W/m 12,1 C 16,6 C 16,1 km/h (3 Bft) 94,74 %
12.08.2017 13:00 16,5 C 20,6 C 75 % 1018,4 hPa 0,0 l/m 6,9 km/h (2 Bft) SW 233 0 min 0,229 mm 1,0 UV-I 146 W/m 12,1 C 16,2 C 14,5 km/h (3 Bft) 96,43 %
12.08.2017 13:02 16,4 C 20,6 C 77 % 1018,4 hPa 0,0 l/m 4,1 km/h (1 Bft) W 266 0 min 0,000 mm 0,9 UV-I 127 W/m 12,4 C 16,4 C 11,3 km/h (2 Bft) 97,37 %
12.08.2017 13:04 16,4 C 20,6 C 77 % 1018,4 hPa 0,0 l/m 6,8 km/h (2 Bft) W 279 0 min 0,000 mm 0,8 UV-I 109 W/m 12,4 C 16,2 C 11,3 km/h (2 Bft) 97,87 %
12.08.2017 13:06 16,3 C 20,6 C 76 % 1018,5 hPa 0,0 l/m 5,8 km/h (2 Bft) W-SW 246 0 min 0,000 mm 0,6 UV-I 89 W/m 12,1 C 16,3 C 11,3 km/h (2 Bft) 98,00 %
12.08.2017 13:08 16,3 C 20,6 C 76 % 1018,5 hPa 0,0 l/m 10,8 km/h (2 Bft) NW 316 0 min 0,000 mm 0,6 UV-I 84 W/m 12,1 C 14,2 C 17,7 km/h (3 Bft) 97,37 %
12.08.2017 13:10 16,2 C 20,6 C 76 % 1018,5 hPa 0,0 l/m 6,0 km/h (2 Bft) W-SW 242 0 min 0,000 mm 0,7 UV-I 98 W/m 12,0 C 16,2 C 14,5 km/h (3 Bft) 96,43 %
12.08.2017 13:12 15,9 C 20,6 C 77 % 1018,5 hPa 0,0 l/m 6,7 km/h (2 Bft) W-SW 248 0 min 0,000 mm 0,7 UV-I 102 W/m 11,9 C 15,7 C 12,9 km/h (3 Bft) 97,56 %
12.08.2017 13:14 15,8 C 20,6 C 79 % 1018,5 hPa 0,0 l/m 8,1 km/h (2 Bft) W-SW 246 0 min 0,000 mm 0,7 UV-I 92 W/m 12,2 C 14,9 C 14,5 km/h (3 Bft) 98,00 %
12.08.2017 13:16 15,6 C 20,6 C 81 % 1018,6 hPa 0,0 l/m 6,8 km/h (2 Bft) W-SW 243 0 min 0,000 mm 0,6 UV-I 84 W/m 12,3 C 15,4 C 12,9 km/h (3 Bft) 98,11 %
12.08.2017 13:18 15,4 C 20,6 C 81 % 1018,6 hPa 0,0 l/m 9,2 km/h (2 Bft) W-SW 238 0 min 0,000 mm 0,6 UV-I 84 W/m 12,2 C 13,9 C 14,5 km/h (3 Bft) 97,37 %
12.08.2017 13:20 15,3 C 20,6 C 83 % 1018,6 hPa 0,0 l/m 8,5 km/h (2 Bft) N-NW 334 0 min 0,000 mm 0,6 UV-I 88 W/m 12,4 C 14,2 C 12,9 km/h (3 Bft) 97,92 %
12.08.2017 13:22 15,2 C 20,6 C 83 % 1018,7 hPa 0,0 l/m 8,8 km/h (2 Bft) SW 235 0 min 0,000 mm 0,7 UV-I 95 W/m 12,3 C 13,9 C 14,5 km/h (3 Bft) 96,15 %
12.08.2017 13:24 15,0 C 20,6 C 84 % 1018,7 hPa 0,0 l/m 9,6 km/h (2 Bft) W-SW 258 0 min 0,000 mm 0,7 UV-I 96 W/m 12,3 C 13,3 C 16,1 km/h (3 Bft) 97,62 %
12.08.2017 13:26 14,9 C 20,6 C 86 % 1018,8 hPa 0,0 l/m 9,3 km/h (2 Bft) W-NW 292 0 min 0,000 mm 0,6 UV-I 82 W/m 12,6 C 13,3 C 16,1 km/h (3 Bft) 100,00 %
12.08.2017 13:28 14,8 C 20,6 C 86 % 1018,8 hPa 0,2 l/m 8,1 km/h (2 Bft) W-NW 294 0 min 0,000 mm 0,6 UV-I 85 W/m 12,5 C 13,8 C 14,5 km/h (3 Bft) 100,00 %
12.08.2017 13:30 14,7 C 20,6 C 86 % 1018,8 hPa 0,0 l/m 12,9 km/h (3 Bft) W 271 0 min 0,000 mm 0,7 UV-I 102 W/m 12,4 C 11,6 C 20,9 km/h (4 Bft) 97,87 %
12.08.2017 13:32 14,6 C 20,6 C 87 % 1018,8 hPa 0,0 l/m 9,2 km/h (2 Bft) W-SW 255 0 min 0,000 mm 1,0 UV-I 137 W/m 12,5 C 13,1 C 19,3 km/h (3 Bft) 100,00 %
12.08.2017 13:34 14,5 C 20,6 C 88 % 1018,8 hPa 0,0 l/m 9,8 km/h (2 Bft) W-SW 254 0 min 0,000 mm 1,2 UV-I 166 W/m 12,5 C 12,7 C 17,7 km/h (3 Bft) 100,00 %
12.08.2017 13:36 14,4 C 20,6 C 88 % 1018,9 hPa 0,0 l/m 8,5 km/h (2 Bft) W-SW 254 0 min 0,000 mm 1,0 UV-I 149 W/m 12,4 C 13,2 C 17,7 km/h (3 Bft) 98,31 %
12.08.2017 13:38 14,4 C 20,6 C 89 % 1018,9 hPa 0,0 l/m 7,6 km/h (2 Bft) W-SW 258 0 min 0,000 mm 0,9 UV-I 136 W/m 12,6 C 13,7 C 14,5 km/h (3 Bft) 97,14 %
12.08.2017 13:40 14,4 C 20,6 C 89 % 1018,9 hPa 0,0 l/m 13,2 km/h (3 Bft) W 269 0 min 0,000 mm 1,0 UV-I 142 W/m 12,6 C 11,1 C 20,9 km/h (4 Bft) 98,21 %
12.08.2017 13:42 14,4 C 20,6 C 89 % 1018,9 hPa 0,0 l/m 9,2 km/h (2 Bft) W-SW 248 0 min 0,000 mm 1,1 UV-I 161 W/m 12,6 C 12,8 C 16,1 km/h (3 Bft) 97,73 %
12.08.2017 13:44 14,3 C 20,6 C 90 % 1018,9 hPa 0,0 l/m 8,6 km/h (2 Bft) W-SW 242 0 min 0,000 mm 1,5 UV-I 216 W/m 12,7 C 13,0 C 17,7 km/h (3 Bft) 96,23 %
12.08.2017 13:46 14,3 C 20,6 C 90 % 1018,9 hPa 0,0 l/m 8,4 km/h (2 Bft) W-SW 242 0 min 0,000 mm 2,0 UV-I 290 W/m 12,7 C 13,1 C 14,5 km/h (3 Bft) 95,45 %
12.08.2017 13:48 14,4 C 20,6 C 91 % 1018,8 hPa 0,0 l/m 9,5 km/h (2 Bft) W-SW 244 0 min 0,000 mm 2,4 UV-I 335 W/m 12,9 C 12,7 C 14,5 km/h (3 Bft) 97,37 %
12.08.2017 13:50 14,4 C 20,6 C 91 % 1018,7 hPa 0,0 l/m 6,9 km/h (2 Bft) W-SW 252 0 min 0,000 mm 2,5 UV-I 351 W/m 12,9 C 14,1 C 14,5 km/h (3 Bft) 98,11 %
12.08.2017 13:52 14,5 C 20,6 C 91 % 1018,7 hPa 0,0 l/m 5,7 km/h (1 Bft) W 271 0 min 0,000 mm 2,8 UV-I 380 W/m 13,0 C 14,5 C 9,7 km/h (2 Bft) 96,00 %
12.08.2017 13:54 14,6 C 20,6 C 91 % 1018,7 hPa 0,0 l/m 2,8 km/h (1 Bft) W-SW 254 0 min 0,000 mm 3,0 UV-I 405 W/m 13,1 C 14,6 C 6,4 km/h (2 Bft) 98,00 %
12.08.2017 13:56 14,7 C 20,6 C 91 % 1018,7 hPa 0,0 l/m 1,2 km/h (1 Bft) W-SW 254 0 min 0,000 mm 2,9 UV-I 387 W/m 13,2 C 14,7 C 4,8 km/h (1 Bft) 97,37 %
12.08.2017 13:58 14,8 C 20,6 C 90 % 1018,7 hPa 0,0 l/m 0,6 km/h (0 Bft) W-SW 254 0 min 0,000 mm 2,7 UV-I 373 W/m 13,2 C 14,8 C 4,8 km/h (1 Bft) 96,43 %
12.08.2017 14:00 14,9 C 20,6 C 90 % 1018,6 hPa 0,0 l/m 6,5 km/h (2 Bft) N-NW 328 0 min 0,000 mm 2,5 UV-I 353 W/m 13,3 C 14,9 C 12,9 km/h (3 Bft) 97,44 %
12.08.2017 14:02 15,1 C 20,6 C 90 % 1018,6 hPa 0,0 l/m 5,0 km/h (1 Bft) W-SW 246 0 min 0,101 mm 2,5 UV-I 346 W/m 13,5 C 15,1 C 11,3 km/h (2 Bft) 98,00 %
12.08.2017 14:04 15,2 C 20,6 C 89 % 1018,6 hPa 0,0 l/m 1,9 km/h (1 Bft) S-SW 205 0 min 0,000 mm 3,0 UV-I 425 W/m 13,4 C 15,2 C 4,8 km/h (1 Bft) 97,87 %
12.08.2017 14:06 15,4 C 20,6 C 90 % 1018,6 hPa 0,0 l/m 7,2 km/h (2 Bft) W-SW 248 2 min 0,000 mm 3,6 UV-I 488 W/m 13,8 C 15,0 C 11,3 km/h (2 Bft) 97,37 %
12.08.2017 14:08 15,7 C 20,6 C 89 % 1018,6 hPa 0,0 l/m 8,8 km/h (2 Bft) W-SW 257 2 min 0,000 mm 4,5 UV-I 539 W/m 13,9 C 14,4 C 11,3 km/h (2 Bft) 98,28 %
12.08.2017 14:10 15,8 C 20,6 C 88 % 1018,6 hPa 0,0 l/m 7,6 km/h (2 Bft) W-SW 254 2 min 0,000 mm 4,9 UV-I 831 W/m 13,8 C 15,1 C 14,5 km/h (3 Bft) 97,56 %
12.08.2017 14:12 15,9 C 20,6 C 86 % 1018,6 hPa 0,0 l/m 6,4 km/h (2 Bft) S-SW 208 2 min 0,000 mm 4,6 UV-I 990 W/m 13,6 C 15,9 C 11,3 km/h (2 Bft) 97,87 %
12.08.2017 14:14 16,0 C 20,6 C 86 % 1018,6 hPa 0,0 l/m 7,4 km/h (2 Bft) SW 236 2 min 0,000 mm 4,2 UV-I 995 W/m 13,7 C 15,5 C 12,9 km/h (3 Bft) 94,00 %
12.08.2017 14:16 16,2 C 20,6 C 86 % 1018,6 hPa 0,0 l/m 4,1 km/h (1 Bft) W 260 2 min 0,000 mm 4,9 UV-I 552 W/m 13,9 C 16,2 C 9,7 km/h (2 Bft) 97,87 %
12.08.2017 14:18 16,3 C 20,6 C 86 % 1018,7 hPa 0,0 l/m 8,7 km/h (2 Bft) W-SW 250 2 min 0,000 mm 4,0 UV-I 510 W/m 14,0 C 15,1 C 20,9 km/h (4 Bft) 98,00 %
12.08.2017 14:20 16,3 C 20,6 C 83 % 1018,7 hPa 0,0 l/m 7,2 km/h (2 Bft) W-SW 242 0 min 0,000 mm 3,2 UV-I 429 W/m 13,4 C 15,9 C 14,5 km/h (3 Bft) 97,37 %
12.08.2017 14:22 16,3 C 20,6 C 84 % 1018,7 hPa 0,0 l/m 6,4 km/h (2 Bft) W-NW 291 0 min 0,000 mm 3,2 UV-I 431 W/m 13,6 C 16,3 C 17,7 km/h (3 Bft) 98,11 %
12.08.2017 14:24 16,4 C 20,6 C 85 % 1018,7 hPa 0,0 l/m 11,3 km/h (2 Bft) W 274 2 min 0,000 mm 3,8 UV-I 490 W/m 13,9 C 14,1 C 14,5 km/h (3 Bft) 97,56 %
12.08.2017 14:26 16,6 C 20,6 C 85 % 1018,8 hPa 0,0 l/m 11,2 km/h (2 Bft) W 263 2 min 0,000 mm 4,2 UV-I 589 W/m 14,1 C 14,4 C 20,9 km/h (4 Bft) 98,00 %
12.08.2017 14:28 16,7 C 20,6 C 83 % 1018,8 hPa 0,0 l/m 12,6 km/h (3 Bft) SW 219 0 min 0,000 mm 2,9 UV-I 357 W/m 13,8 C 14,0 C 19,3 km/h (3 Bft) 97,73 %
12.08.2017 14:30 16,7 C 20,6 C 83 % 1018,7 hPa 0,0 l/m 8,9 km/h (2 Bft) S-SW 211 2 min 0,000 mm 3,5 UV-I 439 W/m 13,8 C 15,5 C 14,5 km/h (3 Bft) 98,21 %
12.08.2017 14:32 16,8 C 20,6 C 83 % 1018,8 hPa 0,0 l/m 8,0 km/h (2 Bft) SW 221 2 min 0,000 mm 3,0 UV-I 432 W/m 13,9 C 16,0 C 12,9 km/h (3 Bft) 97,37 %
12.08.2017 14:34 16,9 C 20,6 C 84 % 1018,7 hPa 0,0 l/m 7,2 km/h (2 Bft) S-SO 161 0 min 0,000 mm 2,3 UV-I 335 W/m 14,2 C 16,5 C 11,3 km/h (2 Bft) 94,34 %
12.08.2017 14:36 16,9 C 20,6 C 83 % 1018,7 hPa 0,0 l/m 6,4 km/h (2 Bft) S-SW 202 0 min 0,000 mm 1,9 UV-I 281 W/m 14,0 C 16,9 C 14,5 km/h (3 Bft) 97,56 %
12.08.2017 14:38 16,8 C 20,6 C 81 % 1018,7 hPa 0,0 l/m 10,8 km/h (2 Bft) W 278 0 min 0,000 mm 1,6 UV-I 254 W/m 13,5 C 14,8 C 17,7 km/h (3 Bft) 96,00 %
12.08.2017 14:40 16,8 C 20,6 C 81 % 1018,6 hPa 0,0 l/m 5,7 km/h (1 Bft) SW 234 0 min 0,000 mm 1,8 UV-I 263 W/m 13,5 C 16,8 C 12,9 km/h (3 Bft) 97,44 %
12.08.2017 14:42 16,8 C 20,6 C 83 % 1018,6 hPa 0,0 l/m 8,6 km/h (2 Bft) SW 227 0 min 0,000 mm 1,9 UV-I 271 W/m 13,9 C 15,7 C 17,7 km/h (3 Bft) 100,00 %
12.08.2017 14:44 16,8 C 20,6 C 82 % 1018,6 hPa 0,0 l/m 7,6 km/h (2 Bft) W 269 0 min 0,000 mm 1,8 UV-I 254 W/m 13,7 C 16,2 C 11,3 km/h (2 Bft) 94,00 %
12.08.2017 14:46 16,8 C 20,6 C 83 % 1018,6 hPa 0,0 l/m 9,8 km/h (2 Bft) SW 218 0 min 0,000 mm 1,8 UV-I 292 W/m 13,9 C 15,2 C 16,1 km/h (3 Bft) 97,87 %
12.08.2017 14:48 16,8 C 20,6 C 83 % 1018,6 hPa 0,0 l/m 9,2 km/h (2 Bft) SW 225 0 min 0,000 mm 2,4 UV-I 398 W/m 13,9 C 15,4 C 14,5 km/h (3 Bft) 97,87 %
12.08.2017 14:50 16,9 C 20,6 C 82 % 1018,5 hPa 0,0 l/m 7,1 km/h (2 Bft) W-SW 245 0 min 0,000 mm 2,7 UV-I 398 W/m 13,8 C 16,5 C 16,1 km/h (3 Bft) 95,74 %
12.08.2017 14:52 17,2 C 20,6 C 83 % 1018,6 hPa 0,0 l/m 13,1 km/h (3 Bft) W-SW 252 2 min 0,000 mm 3,5 UV-I 544 W/m 14,3 C 14,4 C 22,5 km/h (4 Bft) 94,74 %
12.08.2017 14:54 17,3 C 20,6 C 81 % 1018,5 hPa 0,0 l/m 11,2 km/h (2 Bft) S-SW 209 2 min 0,000 mm 3,8 UV-I 626 W/m 14,0 C 15,2 C 16,1 km/h (3 Bft) 94,55 %
12.08.2017 14:56 17,5 C 20,6 C 80 % 1018,4 hPa 0,0 l/m 6,2 km/h (2 Bft) S-SW 208 2 min 0,000 mm 3,2 UV-I 545 W/m 14,0 C 17,5 C 11,3 km/h (2 Bft) 97,56 %
12.08.2017 14:58 17,6 C 20,6 C 82 % 1018,5 hPa 0,0 l/m 6,9 km/h (2 Bft) W-SW 252 2 min 0,000 mm 3,1 UV-I 468 W/m 14,5 C 17,4 C 11,3 km/h (2 Bft) 98,00 %
12.08.2017 15:00 17,7 C 20,6 C 82 % 1018,5 hPa 0,0 l/m 6,4 km/h (2 Bft) S-SW 203 0 min 0,000 mm 3,4 UV-I 363 W/m 14,6 C 17,7 C 9,7 km/h (2 Bft) 97,56 %
12.08.2017 15:02 17,8 C 20,6 C 81 % 1018,4 hPa 0,0 l/m 6,3 km/h (2 Bft) SW 223 2 min 0,280 mm 4,4 UV-I 447 W/m 14,5 C 17,8 C 9,7 km/h (2 Bft) 98,11 %
12.08.2017 15:04 18,0 C 20,6 C 81 % 1018,4 hPa 0,0 l/m 5,2 km/h (1 Bft) SW 222 2 min 0,000 mm 4,2 UV-I 991 W/m 14,7 C 18,0 C 12,9 km/h (3 Bft) 98,00 %
12.08.2017 15:06 18,3 C 20,6 C 79 % 1018,4 hPa 0,0 l/m 11,0 km/h (2 Bft) S-SW 203 2 min 0,000 mm 4,6 UV-I 962 W/m 14,6 C 16,4 C 20,9 km/h (4 Bft) 95,74 %
12.08.2017 15:08 18,3 C 20,6 C 79 % 1018,4 hPa 0,0 l/m 10,5 km/h (2 Bft) SW 226 2 min 0,000 mm 4,5 UV-I 913 W/m 14,6 C 16,6 C 16,1 km/h (3 Bft) 97,37 %
12.08.2017 15:10 18,3 C 20,6 C 78 % 1018,4 hPa 0,0 l/m 11,3 km/h (2 Bft) W-SW 246 2 min 0,000 mm 4,4 UV-I 912 W/m 14,4 C 16,3 C 20,9 km/h (4 Bft) 96,23 %
12.08.2017 15:12 18,4 C 20,6 C 77 % 1018,4 hPa 0,0 l/m 13,0 km/h (3 Bft) SW 222 2 min 0,000 mm 3,9 UV-I 923 W/m 14,3 C 15,9 C 20,9 km/h (4 Bft) 97,73 %
12.08.2017 15:14 18,3 C 20,6 C 77 % 1018,4 hPa 0,0 l/m 12,9 km/h (3 Bft) SW 226 2 min 0,000 mm 3,5 UV-I 421 W/m 14,2 C 15,8 C 20,9 km/h (4 Bft) 98,00 %
12.08.2017 15:16 18,4 C 20,6 C 79 % 1018,4 hPa 0,0 l/m 12,5 km/h (3 Bft) W-SW 239 2 min 0,000 mm 4,0 UV-I 939 W/m 14,7 C 16,0 C 19,3 km/h (3 Bft) 97,44 %
12.08.2017 15:18 18,4 C 20,6 C 76 % 1018,4 hPa 0,0 l/m 12,8 km/h (3 Bft) S 188 2 min 0,000 mm 3,2 UV-I 442 W/m 14,1 C 15,9 C 17,7 km/h (3 Bft) 95,74 %
12.08.2017 15:20 18,4 C 20,6 C 74 % 1018,3 hPa 0,0 l/m 15,2 km/h (3 Bft) W-SW 237 2 min 0,000 mm 3,9 UV-I 921 W/m 13,7 C 15,3 C 22,5 km/h (4 Bft) 96,36 %
12.08.2017 15:22 18,4 C 20,6 C 73 % 1018,4 hPa 0,0 l/m 10,3 km/h (2 Bft) S-SW 199 2 min 0,000 mm 2,5 UV-I 399 W/m 13,5 C 16,8 C 16,1 km/h (3 Bft) 100,00 %
12.08.2017 15:24 18,3 C 20,6 C 74 % 1018,3 hPa 0,0 l/m 9,8 km/h (2 Bft) SW 226 0 min 0,000 mm 2,3 UV-I 339 W/m 13,6 C 16,8 C 17,7 km/h (3 Bft) 100,00 %
12.08.2017 15:26 18,2 C 20,6 C 76 % 1018,3 hPa 0,0 l/m 11,6 km/h (2 Bft) S-SW 213 0 min 0,000 mm 2,2 UV-I 367 W/m 13,9 C 16,1 C 19,3 km/h (3 Bft) 100,00 %
12.08.2017 15:28 18,2 C 20,6 C 77 % 1018,3 hPa 0,0 l/m 11,2 km/h (2 Bft) S-SW 200 0 min 0,000 mm 2,2 UV-I 379 W/m 14,1 C 16,2 C 16,1 km/h (3 Bft) 100,00 %
12.08.2017 15:30 18,2 C 20,6 C 77 % 1018,2 hPa 0,0 l/m 10,9 km/h (2 Bft) S-SW 210 0 min 0,000 mm 2,2 UV-I 347 W/m 14,1 C 16,3 C 16,1 km/h (3 Bft) 100,00 %
12.08.2017 15:32 18,1 C 21,1 C 77 % 1018,2 hPa 0,0 l/m 10,3 km/h (2 Bft) SW 228 0 min 0,000 mm 1,8 UV-I 280 W/m 14,0 C 16,4 C 14,5 km/h (3 Bft) 100,00 %
12.08.2017 15:34 18,1 C 20,6 C 78 % 1018,2 hPa 0,0 l/m 11,1 km/h (2 Bft) W-SW 244 0 min 0,000 mm 1,4 UV-I 230 W/m 14,2 C 16,1 C 22,5 km/h (4 Bft) 100,00 %
12.08.2017 15:36 18,0 C 20,6 C 77 % 1018,2 hPa 0,0 l/m 15,0 km/h (3 Bft) S 189 0 min 0,000 mm 1,3 UV-I 217 W/m 13,9 C 14,8 C 24,1 km/h (4 Bft) 100,00 %
12.08.2017 15:38 17,9 C 21,1 C 77 % 1018,1 hPa 0,0 l/m 8,5 km/h (2 Bft) W-SW 238 0 min 0,000 mm 1,3 UV-I 218 W/m 13,8 C 16,9 C 14,5 km/h (3 Bft) 100,00 %
12.08.2017 15:40 17,9 C 20,6 C 77 % 1018,1 hPa 0,0 l/m 9,1 km/h (2 Bft) W-SW 254 0 min 0,000 mm 1,2 UV-I 200 W/m 13,8 C 16,7 C 14,5 km/h (3 Bft) 98,08 %
12.08.2017 15:42 17,9 C 20,6 C 77 % 1018,2 hPa 0,0 l/m 9,8 km/h (2 Bft) W-SW 252 0 min 0,000 mm 1,0 UV-I 174 W/m 13,8 C 16,4 C 16,1 km/h (3 Bft) 97,37 %
12.08.2017 15:44 17,8 C 20,6 C 76 % 1018,1 hPa 0,0 l/m 11,4 km/h (2 Bft) SW 227 0 min 0,000 mm 0,8 UV-I 151 W/m 13,5 C 15,7 C 16,1 km/h (3 Bft) 100,00 %
12.08.2017 15:46 17,8 C 20,6 C 78 % 1018,2 hPa 0,0 l/m 11,9 km/h (2 Bft) W-SW 242 0 min 0,000 mm 0,8 UV-I 150 W/m 13,9 C 15,5 C 16,1 km/h (3 Bft) 97,14 %
12.08.2017 15:48 17,8 C 20,6 C 77 % 1018,2 hPa 0,0 l/m 10,0 km/h (2 Bft) SW 220 0 min 0,000 mm 1,1 UV-I 226 W/m 13,7 C 16,2 C 14,5 km/h (3 Bft) 100,00 %
12.08.2017 15:50 17,9 C 20,6 C 77 % 1018,1 hPa 0,0 l/m 10,4 km/h (2 Bft) W 261 0 min 0,000 mm 1,7 UV-I 304 W/m 13,8 C 16,2 C 16,1 km/h (3 Bft) 100,00 %
12.08.2017 15:52 18,1 C 21,1 C 76 % 1018,0 hPa 0,0 l/m 7,6 km/h (2 Bft) W 275 0 min 0,000 mm 2,2 UV-I 348 W/m 13,8 C 17,5 C 12,9 km/h (3 Bft) 100,00 %
12.08.2017 15:54 18,3 C 21,1 C 77 % 1018,1 hPa 0,0 l/m 7,8 km/h (2 Bft) W 259 2 min 0,000 mm 2,3 UV-I 386 W/m 14,2 C 17,7 C 11,3 km/h (2 Bft) 97,73 %
12.08.2017 15:56 18,5 C 21,1 C 76 % 1018,0 hPa 0,0 l/m 9,5 km/h (2 Bft) W 263 2 min 0,000 mm 2,7 UV-I 464 W/m 14,2 C 17,2 C 12,9 km/h (3 Bft) 100,00 %
12.08.2017 15:58 18,8 C 21,1 C 75 % 1018,1 hPa 0,0 l/m 8,8 km/h (2 Bft) W-SW 246 2 min 0,000 mm 3,2 UV-I 760 W/m 14,3 C 17,8 C 19,3 km/h (3 Bft) 97,73 %
12.08.2017 16:00 18,9 C 21,1 C 72 % 1018,0 hPa 0,0 l/m 14,7 km/h (3 Bft) W 261 2 min 0,304 mm 2,6 UV-I 762 W/m 13,7 C 16,0 C 20,9 km/h (4 Bft) 97,62 %
12.08.2017 16:02 18,9 C 21,1 C 70 % 1018,0 hPa 0,0 l/m 12,4 km/h (3 Bft) W-SW 256 2 min 0,000 mm 1,7 UV-I 423 W/m 13,3 C 16,6 C 17,7 km/h (3 Bft) 98,00 %
12.08.2017 16:04 18,7 C 21,1 C 69 % 1018,0 hPa 0,0 l/m 13,2 km/h (3 Bft) W-SW 241 0 min 0,000 mm 1,1 UV-I 160 W/m 12,9 C 16,2 C 20,9 km/h (4 Bft) 100,00 %
12.08.2017 16:06 18,5 C 21,1 C 71 % 1018,0 hPa 0,0 l/m 6,6 km/h (2 Bft) SW 229 0 min 0,000 mm 0,7 UV-I 135 W/m 13,1 C 18,4 C 12,9 km/h (3 Bft) 100,00 %
12.08.2017 16:08 18,3 C 21,1 C 72 % 1018,0 hPa 0,0 l/m 6,6 km/h (2 Bft) W-SW 250 0 min 0,000 mm 0,6 UV-I 121 W/m 13,2 C 18,2 C 12,9 km/h (3 Bft) 100,00 %
12.08.2017 16:10 18,2 C 21,1 C 72 % 1018,0 hPa 0,0 l/m 6,6 km/h (2 Bft) W-SW 252 0 min 0,000 mm 0,5 UV-I 103 W/m 13,1 C 18,1 C 16,1 km/h (3 Bft) 100,00 %
12.08.2017 16:12 18,1 C 21,1 C 71 % 1018,0 hPa 0,0 l/m 4,7 km/h (1 Bft) W 265 0 min 0,000 mm 0,3 UV-I 98 W/m 12,8 C 18,1 C 8,0 km/h (2 Bft) 100,00 %
12.08.2017 16:14 18,0 C 21,1 C 73 % 1018,0 hPa 0,0 l/m 3,3 km/h (1 Bft) W-NW 293 0 min 0,000 mm 0,6 UV-I 113 W/m 13,1 C 18,0 C 4,8 km/h (1 Bft) 100,00 %
12.08.2017 16:16 17,9 C 21,1 C 72 % 1018,0 hPa 0,0 l/m 4,8 km/h (1 Bft) W-SW 239 0 min 0,000 mm 0,6 UV-I 113 W/m 12,8 C 17,9 C 9,7 km/h (2 Bft) 100,00 %
12.08.2017 16:18 17,8 C 21,1 C 73 % 1018,2 hPa 0,0 l/m 3,8 km/h (1 Bft) W-SW 252 0 min 0,000 mm 0,2 UV-I 82 W/m 12,9 C 17,8 C 8,0 km/h (2 Bft) 100,00 %
12.08.2017 16:20 17,8 C 21,1 C 74 % 1018,2 hPa 0,0 l/m 4,5 km/h (1 Bft) NW 307 0 min 0,000 mm 0,0 UV-I 68 W/m 13,1 C 17,8 C 14,5 km/h (3 Bft) 100,00 %
12.08.2017 16:22 17,7 C 21,1 C 72 % 1018,2 hPa 0,0 l/m 7,1 km/h (2 Bft) W-SW 242 0 min 0,000 mm 0,0 UV-I 72 W/m 12,6 C 17,4 C 16,1 km/h (3 Bft) 97,56 %
12.08.2017 16:24 17,6 C 21,1 C 72 % 1018,3 hPa 0,0 l/m 7,8 km/h (2 Bft) W-SW 247 0 min 0,000 mm 0,3 UV-I 92 W/m 12,5 C 16,9 C 12,9 km/h (3 Bft) 100,00 %
12.08.2017 16:26 17,6 C 21,1 C 74 % 1018,3 hPa 0,0 l/m 1,9 km/h (1 Bft) W 275 0 min 0,000 mm 0,4 UV-I 96 W/m 12,9 C 17,6 C 6,4 km/h (2 Bft) 100,00 %
12.08.2017 16:28 17,5 C 21,1 C 73 % 1018,3 hPa 0,0 l/m 6,0 km/h (2 Bft) NW 326 0 min 0,000 mm 0,0 UV-I 82 W/m 12,6 C 17,5 C 16,1 km/h (3 Bft) 100,00 %
12.08.2017 16:30 17,4 C 21,1 C 75 % 1018,3 hPa 0,0 l/m 4,1 km/h (1 Bft) NW 310 0 min 0,000 mm 0,0 UV-I 62 W/m 12,9 C 17,4 C 11,3 km/h (2 Bft) 100,00 %
12.08.2017 16:32 17,4 C 21,1 C 75 % 1018,3 hPa 0,0 l/m 3,7 km/h (1 Bft) NW 304 0 min 0,000 mm 0,0 UV-I 48 W/m 12,9 C 17,4 C 9,7 km/h (2 Bft) 100,00 %
12.08.2017 16:34 17,4 C 21,1 C 74 % 1018,3 hPa 0,0 l/m 3,3 km/h (1 Bft) NW 323 0 min 0,000 mm 0,0 UV-I 39 W/m 12,7 C 17,4 C 8,0 km/h (2 Bft) 100,00 %
12.08.2017 16:36 17,3 C 21,1 C 75 % 1018,4 hPa 0,0 l/m 1,8 km/h (1 Bft) W-SW 256 0 min 0,000 mm 0,0 UV-I 31 W/m 12,8 C 17,3 C 6,4 km/h (2 Bft) 100,00 %
12.08.2017 16:38 17,3 C 21,1 C 75 % 1018,4 hPa 0,0 l/m 1,3 km/h (1 Bft) W-SW 250 0 min 0,000 mm 0,0 UV-I 23 W/m 12,8 C 17,3 C 3,2 km/h (1 Bft) 100,00 %
12.08.2017 16:40 17,2 C 21,1 C 74 % 1018,3 hPa 0,0 l/m 3,8 km/h (1 Bft) N 11 0 min 0,000 mm 0,0 UV-I 19 W/m 12,5 C 17,2 C 8,0 km/h (2 Bft) 97,56 %
12.08.2017 16:42 17,2 C 21,1 C 76 % 1018,4 hPa 0,0 l/m 1,9 km/h (1 Bft) W-SW 246 0 min 0,000 mm 0,0 UV-I 15 W/m 12,9 C 17,2 C 16,1 km/h (3 Bft) 96,00 %
12.08.2017 16:44 17,2 C 20,6 C 76 % 1018,4 hPa 0,0 l/m 5,6 km/h (1 Bft) N-NW 337 0 min 0,000 mm 0,0 UV-I 13 W/m 12,9 C 17,2 C 16,1 km/h (3 Bft) 97,87 %
12.08.2017 16:46 17,1 C 20,6 C 76 % 1018,5 hPa 0,0 l/m 3,1 km/h (1 Bft) NW 311 0 min 0,000 mm 0,0 UV-I 12 W/m 12,8 C 17,1 C 8,0 km/h (2 Bft) 96,00 %
12.08.2017 16:48 17,0 C 20,6 C 76 % 1018,5 hPa 0,0 l/m 3,0 km/h (1 Bft) NW 317 0 min 0,000 mm 0,0 UV-I 11 W/m 12,7 C 17,0 C 8,0 km/h (2 Bft) 98,00 %
12.08.2017 16:50 16,8 C 20,6 C 76 % 1018,6 hPa 0,0 l/m 5,0 km/h (1 Bft) SW 224 0 min 0,000 mm 0,0 UV-I 11 W/m 12,5 C 16,8 C 12,9 km/h (3 Bft) 98,00 %
12.08.2017 16:52 16,7 C 20,6 C 77 % 1018,7 hPa 0,0 l/m 4,2 km/h (1 Bft) W 267 0 min 0,000 mm 0,0 UV-I 10 W/m 12,6 C 16,7 C 11,3 km/h (2 Bft) 97,56 %
12.08.2017 16:54 16,6 C 20,6 C 77 % 1018,7 hPa 0,0 l/m 4,5 km/h (1 Bft) W-SW 250 0 min 0,000 mm 0,0 UV-I 9 W/m 12,5 C 16,6 C 9,7 km/h (2 Bft) 94,34 %
12.08.2017 16:56 16,4 C 20,6 C 79 % 1018,7 hPa 0,0 l/m 2,3 km/h (1 Bft) W 273 0 min 0,000 mm 0,0 UV-I 9 W/m 12,7 C 16,4 C 6,4 km/h (2 Bft) 97,56 %
12.08.2017 16:58 16,3 C 20,6 C 79 % 1018,7 hPa 0,0 l/m 3,8 km/h (1 Bft) W-NW 290 0 min 0,000 mm 0,0 UV-I 10 W/m 12,6 C 16,3 C 14,5 km/h (3 Bft) 96,00 %
12.08.2017 17:00 16,1 C 20,6 C 80 % 1018,7 hPa 0,0 l/m 3,1 km/h (1 Bft) W-NW 302 0 min 0,000 mm 0,0 UV-I 11 W/m 12,6 C 16,1 C 4,8 km/h (1 Bft) 98,00 %
12.08.2017 17:02 16,0 C 20,6 C 82 % 1018,7 hPa 0,0 l/m 1,7 km/h (1 Bft) W-NW 287 0 min 0,051 mm 0,0 UV-I 12 W/m 12,9 C 16,0 C 4,8 km/h (1 Bft) 97,37 %
12.08.2017 17:04 15,9 C 20,6 C 81 % 1018,7 hPa 0,0 l/m 1,9 km/h (1 Bft) W-NW 298 0 min 0,000 mm 0,0 UV-I 12 W/m 12,6 C 15,9 C 6,4 km/h (2 Bft) 97,56 %
12.08.2017 17:06 15,8 C 20,6 C 81 % 1018,7 hPa 0,0 l/m 4,3 km/h (1 Bft) W 274 0 min 0,000 mm 0,0 UV-I 12 W/m 12,5 C 15,8 C 8,0 km/h (2 Bft) 98,11 %
12.08.2017 17:08 15,7 C 20,6 C 82 % 1018,8 hPa 0,0 l/m 4,1 km/h (1 Bft) W 267 0 min 0,000 mm 0,0 UV-I 14 W/m 12,6 C 15,7 C 9,7 km/h (2 Bft) 96,43 %
12.08.2017 17:10 15,6 C 20,6 C 81 % 1018,7 hPa 0,0 l/m 8,2 km/h (2 Bft) W-NW 297 0 min 0,000 mm 0,0 UV-I 14 W/m 12,3 C 14,6 C 25,7 km/h (4 Bft) 97,73 %
12.08.2017 17:12 15,6 C 20,6 C 81 % 1018,7 hPa 0,0 l/m 3,7 km/h (1 Bft) W-NW 298 0 min 0,000 mm 0,0 UV-I 16 W/m 12,3 C 15,6 C 11,3 km/h (2 Bft) 94,74 %
12.08.2017 17:14 15,6 C 20,6 C 82 % 1018,8 hPa 0,0 l/m 5,8 km/h (2 Bft) W-SW 257 0 min 0,000 mm 0,0 UV-I 16 W/m 12,5 C 15,6 C 11,3 km/h (2 Bft) 94,34 %
12.08.2017 17:16 15,5 C 20,6 C 81 % 1018,9 hPa 0,0 l/m 5,5 km/h (1 Bft) W-SW 238 0 min 0,000 mm 0,0 UV-I 16 W/m 12,3 C 15,5 C 11,3 km/h (2 Bft) 100,00 %
12.08.2017 17:18 15,4 C 20,6 C 80 % 1018,8 hPa 0,0 l/m 4,3 km/h (1 Bft) W-SW 255 0 min 0,000 mm 0,0 UV-I 19 W/m 12,0 C 15,4 C 11,3 km/h (2 Bft) 100,00 %
12.08.2017 17:20 15,4 C 20,6 C 82 % 1018,8 hPa 0,0 l/m 3,2 km/h (1 Bft) NW 305 0 min 0,000 mm 0,0 UV-I 23 W/m 12,3 C 15,4 C 8,0 km/h (2 Bft) 100,00 %
12.08.2017 17:22 15,3 C 20,6 C 81 % 1018,8 hPa 0,0 l/m 4,5 km/h (1 Bft) W-NW 295 0 min 0,000 mm 0,0 UV-I 27 W/m 12,1 C 15,3 C 12,9 km/h (3 Bft) 98,00 %
12.08.2017 17:24 15,2 C 20,6 C 82 % 1018,9 hPa 0,0 l/m 4,0 km/h (1 Bft) W 262 0 min 0,000 mm 0,0 UV-I 32 W/m 12,1 C 15,2 C 11,3 km/h (2 Bft) 97,56 %
12.08.2017 17:26 15,2 C 20,6 C 83 % 1018,9 hPa 0,0 l/m 8,0 km/h (2 Bft) S-SW 207 0 min 0,000 mm 0,0 UV-I 37 W/m 12,3 C 14,3 C 12,9 km/h (3 Bft) 100,00 %
12.08.2017 17:28 15,2 C 20,6 C 82 % 1019,0 hPa 0,0 l/m 8,7 km/h (2 Bft) SW 223 0 min 0,000 mm 0,0 UV-I 39 W/m 12,1 C 14,0 C 17,7 km/h (3 Bft) 100,00 %
12.08.2017 17:30 15,1 C 20,6 C 83 % 1019,1 hPa 0,0 l/m 12,4 km/h (3 Bft) W-SW 238 0 min 0,000 mm 0,0 UV-I 39 W/m 12,2 C 12,2 C 17,7 km/h (3 Bft) 100,00 %
12.08.2017 17:32 15,0 C 20,6 C 84 % 1019,0 hPa 0,2 l/m 8,2 km/h (2 Bft) W-SW 246 0 min 0,000 mm 0,0 UV-I 38 W/m 12,3 C 14,0 C 14,5 km/h (3 Bft) 100,00 %
12.08.2017 17:34 14,9 C 20,6 C 85 % 1019,2 hPa 0,0 l/m 10,5 km/h (2 Bft) W 273 0 min 0,000 mm 0,0 UV-I 36 W/m 12,4 C 12,8 C 22,5 km/h (4 Bft) 97,37 %
12.08.2017 17:36 14,8 C 20,6 C 85 % 1019,1 hPa 0,0 l/m 11,3 km/h (2 Bft) W 268 0 min 0,000 mm 0,0 UV-I 32 W/m 12,3 C 12,3 C 19,3 km/h (3 Bft) 97,73 %
12.08.2017 17:39 14,7 C 20,6 C 86 % 1019,1 hPa 0,0 l/m 9,9 km/h (2 Bft) W-SW 248 0 min 0,000 mm 0,0 UV-I 32 W/m 12,4 C 12,8 C 17,7 km/h (3 Bft) 100,00 %
12.08.2017 17:40 14,6 C 20,6 C 86 % 1019,1 hPa 0,0 l/m 12,4 km/h (3 Bft) W 259 0 min 0,000 mm 0,0 UV-I 32 W/m 12,3 C 11,7 C 19,3 km/h (3 Bft) 100,00 %
12.08.2017 17:42 14,6 C 20,6 C 87 % 1019,1 hPa 0,0 l/m 11,7 km/h (2 Bft) W-SW 245 0 min 0,000 mm 0,0 UV-I 34 W/m 12,5 C 11,9 C 17,7 km/h (3 Bft) 100,00 %
12.08.2017 17:44 14,5 C 20,6 C 88 % 1019,1 hPa 0,0 l/m 10,0 km/h (2 Bft) W-SW 253 0 min 0,000 mm 0,0 UV-I 39 W/m 12,5 C 12,6 C 19,3 km/h (3 Bft) 100,00 %
12.08.2017 17:46 14,4 C 20,6 C 88 % 1019,1 hPa 0,0 l/m 10,7 km/h (2 Bft) W-SW 242 0 min 0,000 mm 0,0 UV-I 55 W/m 12,4 C 12,1 C 19,3 km/h (3 Bft) 100,00 %
12.08.2017 17:48 14,4 C 20,6 C 88 % 1019,1 hPa 0,0 l/m 11,9 km/h (2 Bft) SW 223 0 min 0,000 mm 0,0 UV-I 72 W/m 12,4 C 11,6 C 16,1 km/h (3 Bft) 100,00 %
12.08.2017 17:50 14,3 C 20,6 C 88 % 1019,0 hPa 0,0 l/m 9,3 km/h (2 Bft) W 261 0 min 0,000 mm 0,0 UV-I 91 W/m 12,3 C 12,7 C 16,1 km/h (3 Bft) 96,43 %
12.08.2017 17:52 14,3 C 20,6 C 88 % 1018,9 hPa 0,0 l/m 7,3 km/h (2 Bft) SW 233 0 min 0,000 mm 0,0 UV-I 109 W/m 12,3 C 13,8 C 11,3 km/h (2 Bft) 97,73 %
12.08.2017 17:54 14,3 C 20,6 C 89 % 1018,9 hPa 0,0 l/m 7,0 km/h (2 Bft) SW 219 0 min 0,000 mm 0,0 UV-I 122 W/m 12,5 C 13,9 C 9,7 km/h (2 Bft) 96,23 %
12.08.2017 17:56 14,4 C 20,6 C 89 % 1018,8 hPa 0,2 l/m 6,4 km/h (2 Bft) SW 216 0 min 0,000 mm 0,0 UV-I 124 W/m 12,6 C 14,4 C 8,0 km/h (2 Bft) 97,22 %
12.08.2017 17:58 14,4 C 20,6 C 89 % 1018,8 hPa 0,0 l/m 7,6 km/h (2 Bft) S-SW 207 0 min 0,000 mm 0,0 UV-I 116 W/m 12,6 C 13,7 C 12,9 km/h (3 Bft) 98,00 %
12.08.2017 18:00 14,4 C 20,6 C 89 % 1018,8 hPa 0,0 l/m 7,2 km/h (2 Bft) S-SW 209 0 min 0,000 mm 0,0 UV-I 116 W/m 12,6 C 13,9 C 9,7 km/h (2 Bft) 98,00 %
12.08.2017 18:02 14,4 C 20,6 C 89 % 1018,9 hPa 0,0 l/m 6,3 km/h (2 Bft) SW 233 0 min 0,051 mm 0,0 UV-I 114 W/m 12,6 C 14,4 C 9,7 km/h (2 Bft) 97,56 %
12.08.2017 18:04 14,5 C 20,6 C 89 % 1018,9 hPa 0,0 l/m 8,0 km/h (2 Bft) SW 232 0 min 0,000 mm 0,0 UV-I 93 W/m 12,7 C 13,6 C 11,3 km/h (2 Bft) 98,11 %
12.08.2017 18:06 14,4 C 20,6 C 89 % 1018,9 hPa 0,0 l/m 5,3 km/h (1 Bft) W-SW 237 0 min 0,000 mm 0,0 UV-I 72 W/m 12,6 C 14,4 C 8,0 km/h (2 Bft) 97,73 %
12.08.2017 18:08 14,4 C 20,6 C 89 % 1018,9 hPa 0,0 l/m 6,7 km/h (2 Bft) W-SW 240 0 min 0,000 mm 0,0 UV-I 57 W/m 12,6 C 14,2 C 9,7 km/h (2 Bft) 97,73 %
12.08.2017 18:10 14,5 C 20,6 C 89 % 1018,8 hPa 0,0 l/m 7,6 km/h (2 Bft) SW 223 0 min 0,000 mm 0,0 UV-I 46 W/m 12,7 C 13,8 C 14,5 km/h (3 Bft) 96,00 %
12.08.2017 18:12 14,4 C 20,6 C 88 % 1018,8 hPa 0,0 l/m 7,9 km/h (2 Bft) SW 225 0 min 0,000 mm 0,0 UV-I 41 W/m 12,4 C 13,5 C 16,1 km/h (3 Bft) 100,00 %
12.08.2017 18:14 14,4 C 20,6 C 88 % 1018,8 hPa 0,0 l/m 11,3 km/h (2 Bft) SW 223 0 min 0,000 mm 0,0 UV-I 39 W/m 12,4 C 11,9 C 16,1 km/h (3 Bft) 96,00 %
12.08.2017 18:16 14,4 C 20,6 C 88 % 1018,8 hPa 0,0 l/m 7,1 km/h (2 Bft) SW 229 0 min 0,000 mm 0,0 UV-I 40 W/m 12,4 C 14,0 C 11,3 km/h (2 Bft) 98,21 %
12.08.2017 18:18 14,5 C 20,6 C 87 % 1018,7 hPa 0,0 l/m 7,0 km/h (2 Bft) W-SW 248 0 min 0,000 mm 0,0 UV-I 41 W/m 12,4 C 14,2 C 11,3 km/h (2 Bft) 97,73 %
12.08.2017 18:20 14,5 C 20,6 C 87 % 1018,8 hPa 0,0 l/m 8,7 km/h (2 Bft) SW 229 0 min 0,000 mm 0,0 UV-I 42 W/m 12,4 C 13,2 C 12,9 km/h (3 Bft) 96,30 %
12.08.2017 18:22 14,5 C 20,6 C 86 % 1018,8 hPa 0,0 l/m 7,5 km/h (2 Bft) W-SW 242 0 min 0,000 mm 0,0 UV-I 42 W/m 12,2 C 13,9 C 9,7 km/h (2 Bft) 98,44 %
12.08.2017 18:24 14,6 C 20,6 C 86 % 1018,8 hPa 0,0 l/m 9,8 km/h (2 Bft) W-SW 254 0 min 0,000 mm 0,0 UV-I 44 W/m 12,3 C 12,8 C 14,5 km/h (3 Bft) 97,87 %
12.08.2017 18:26 14,6 C 20,6 C 86 % 1018,9 hPa 0,0 l/m 8,2 km/h (2 Bft) W-SW 257 0 min 0,000 mm 0,0 UV-I 46 W/m 12,3 C 13,6 C 14,5 km/h (3 Bft) 98,11 %
12.08.2017 18:28 14,6 C 20,6 C 86 % 1018,8 hPa 0,0 l/m 6,0 km/h (2 Bft) W 260 0 min 0,000 mm 0,0 UV-I 47 W/m 12,3 C 14,6 C 11,3 km/h (2 Bft) 97,37 %
12.08.2017 18:30 14,6 C 20,6 C 86 % 1018,8 hPa 0,0 l/m 8,7 km/h (2 Bft) SW 236 0 min 0,000 mm 0,0 UV-I 47 W/m 12,3 C 13,3 C 14,5 km/h (3 Bft) 97,73 %
12.08.2017 18:32 14,7 C 20,6 C 86 % 1018,9 hPa 0,0 l/m 7,4 km/h (2 Bft) W-SW 246 0 min 0,000 mm 0,0 UV-I 48 W/m 12,4 C 14,1 C 12,9 km/h (3 Bft) 98,00 %
12.08.2017 18:34 14,7 C 20,6 C 86 % 1018,8 hPa 0,0 l/m 7,2 km/h (2 Bft) SW 227 0 min 0,000 mm 0,0 UV-I 50 W/m 12,4 C 14,2 C 11,3 km/h (2 Bft) 95,56 %
12.08.2017 18:36 14,7 C 20,6 C 86 % 1018,8 hPa 0,0 l/m 8,3 km/h (2 Bft) SW 215 0 min 0,000 mm 0,0 UV-I 51 W/m 12,4 C 13,6 C 11,3 km/h (2 Bft) 96,00 %
12.08.2017 18:38 14,7 C 20,6 C 86 % 1018,8 hPa 0,0 l/m 9,0 km/h (2 Bft) W-SW 238 0 min 0,000 mm 0,0 UV-I 51 W/m 12,4 C 13,3 C 16,1 km/h (3 Bft) 97,87 %
12.08.2017 18:40 14,7 C 20,6 C 86 % 1018,8 hPa 0,0 l/m 9,7 km/h (2 Bft) W-SW 237 0 min 0,000 mm 0,0 UV-I 54 W/m 12,4 C 12,9 C 12,9 km/h (3 Bft) 94,23 %
12.08.2017 18:43 14,7 C 20,6 C 86 % 1018,8 hPa 0,0 l/m 6,5 km/h (2 Bft) W-SW 254 0 min 0,000 mm 0,0 UV-I 57 W/m 12,4 C 14,7 C 9,7 km/h (2 Bft) 96,88 %
12.08.2017 18:44 14,7 C 20,6 C 86 % 1018,8 hPa 0,0 l/m 5,8 km/h (2 Bft) S 187 0 min 0,000 mm 0,0 UV-I 58 W/m 12,4 C 14,7 C 8,0 km/h (2 Bft) 91,67 %
12.08.2017 18:46 14,7 C 20,6 C 86 % 1018,8 hPa 0,0 l/m 6,4 km/h (2 Bft) SW 232 0 min 0,000 mm 0,0 UV-I 57 W/m 12,4 C 14,7 C 9,7 km/h (2 Bft) 97,56 %
12.08.2017 18:48 14,7 C 20,6 C 86 % 1018,8 hPa 0,0 l/m 6,9 km/h (2 Bft) SW 225 0 min 0,000 mm 0,0 UV-I 56 W/m 12,4 C 14,4 C 9,7 km/h (2 Bft) 96,61 %
12.08.2017 18:50 14,7 C 20,6 C 86 % 1018,8 hPa 0,0 l/m 9,8 km/h (2 Bft) SW 234 0 min 0,000 mm 0,0 UV-I 56 W/m 12,4 C 12,9 C 14,5 km/h (3 Bft) 97,14 %
12.08.2017 18:52 14,7 C 20,6 C 86 % 1018,9 hPa 0,0 l/m 10,2 km/h (2 Bft) W-SW 240 0 min 0,000 mm 0,0 UV-I 55 W/m 12,4 C 12,7 C 14,5 km/h (3 Bft) 98,11 %
12.08.2017 18:54 14,7 C 20,6 C 86 % 1018,8 hPa 0,0 l/m 7,9 km/h (2 Bft) W-SW 241 0 min 0,000 mm 0,0 UV-I 54 W/m 12,4 C 13,8 C 11,3 km/h (2 Bft) 95,74 %
12.08.2017 18:56 14,7 C 20,6 C 86 % 1018,8 hPa 0,0 l/m 8,1 km/h (2 Bft) SW 225 0 min 0,000 mm 0,0 UV-I 50 W/m 12,4 C 13,7 C 12,9 km/h (3 Bft) 95,74 %
12.08.2017 18:58 14,7 C 20,6 C 85 % 1018,7 hPa 0,0 l/m 9,1 km/h (2 Bft) W-SW 248 0 min 0,000 mm 0,0 UV-I 49 W/m 12,2 C 13,2 C 12,9 km/h (3 Bft) 95,92 %
12.08.2017 19:00 14,7 C 20,6 C 85 % 1018,6 hPa 0,0 l/m 7,7 km/h (2 Bft) W-SW 238 0 min 0,000 mm 0,0 UV-I 49 W/m 12,2 C 14,0 C 11,3 km/h (2 Bft) 98,00 %
12.08.2017 19:02 14,8 C 20,6 C 85 % 1018,7 hPa 0,0 l/m 6,0 km/h (2 Bft) SW 220 0 min 0,051 mm 0,0 UV-I 49 W/m 12,3 C 14,8 C 9,7 km/h (2 Bft) 94,74 %
12.08.2017 19:04 14,8 C 20,6 C 86 % 1018,7 hPa 0,0 l/m 7,3 km/h (2 Bft) S-SW 201 0 min 0,000 mm 0,0 UV-I 49 W/m 12,5 C 14,3 C 11,3 km/h (2 Bft) 98,11 %
12.08.2017 19:06 14,8 C 20,6 C 86 % 1018,7 hPa 0,0 l/m 5,9 km/h (2 Bft) SW 225 0 min 0,000 mm 0,0 UV-I 51 W/m 12,5 C 14,8 C 8,0 km/h (2 Bft) 97,87 %
12.08.2017 19:08 14,8 C 20,6 C 86 % 1018,7 hPa 0,0 l/m 4,9 km/h (1 Bft) SW 227 0 min 0,000 mm 0,0 UV-I 51 W/m 12,5 C 14,8 C 8,0 km/h (2 Bft) 96,00 %
12.08.2017 19:10 14,8 C 20,6 C 86 % 1018,8 hPa 0,0 l/m 6,5 km/h (2 Bft) SW 228 0 min 0,000 mm 0,0 UV-I 51 W/m 12,5 C 14,8 C 9,7 km/h (2 Bft) 94,74 %
12.08.2017 19:12 14,8 C 20,6 C 86 % 1018,7 hPa 0,0 l/m 5,7 km/h (1 Bft) SW 235 0 min 0,000 mm 0,0 UV-I 53 W/m 12,5 C 14,8 C 9,7 km/h (2 Bft) 97,92 %
12.08.2017 19:14 14,8 C 20,6 C 86 % 1018,7 hPa 0,0 l/m 7,2 km/h (2 Bft) W-SW 242 0 min 0,000 mm 0,0 UV-I 57 W/m 12,5 C 14,3 C 9,7 km/h (2 Bft) 96,15 %
12.08.2017 19:16 14,8 C 20,6 C 86 % 1018,7 hPa 0,0 l/m 7,2 km/h (2 Bft) SW 225 0 min 0,000 mm 0,0 UV-I 61 W/m 12,5 C 14,3 C 11,3 km/h (2 Bft) 100,00 %
12.08.2017 19:18 14,8 C 20,6 C 86 % 1018,7 hPa 0,0 l/m 5,7 km/h (1 Bft) W-SW 240 0 min 0,000 mm 0,0 UV-I 69 W/m 12,5 C 14,8 C 8,0 km/h (2 Bft) 100,00 %
12.08.2017 19:20 14,8 C 20,6 C 86 % 1018,7 hPa 0,0 l/m 6,0 km/h (2 Bft) SW 234 0 min 0,000 mm 0,0 UV-I 69 W/m 12,5 C 14,8 C 8,0 km/h (2 Bft) 100,00 %
12.08.2017 19:22 14,8 C 20,6 C 87 % 1018,7 hPa 0,0 l/m 4,5 km/h (1 Bft) SW 232 0 min 0,000 mm 0,0 UV-I 65 W/m 12,7 C 14,8 C 6,4 km/h (2 Bft) 100,00 %
12.08.2017 19:24 14,8 C 20,6 C 87 % 1018,7 hPa 0,0 l/m 5,1 km/h (1 Bft) W-SW 238 0 min 0,000 mm 0,0 UV-I 58 W/m 12,7 C 14,8 C 8,0 km/h (2 Bft) 100,00 %
12.08.2017 19:26 14,8 C 20,6 C 87 % 1018,7 hPa 0,0 l/m 7,0 km/h (2 Bft) SW 236 0 min 0,000 mm 0,0 UV-I 53 W/m 12,7 C 14,5 C 9,7 km/h (2 Bft) 97,56 %
12.08.2017 19:28 14,8 C 20,6 C 87 % 1018,6 hPa 0,0 l/m 5,9 km/h (2 Bft) W-SW 239 0 min 0,000 mm 0,0 UV-I 51 W/m 12,7 C 14,8 C 8,0 km/h (2 Bft) 100,00 %
12.08.2017 19:30 14,8 C 20,6 C 87 % 1018,6 hPa 0,0 l/m 6,3 km/h (2 Bft) S-SW 211 0 min 0,000 mm 0,0 UV-I 53 W/m 12,7 C 14,8 C 11,3 km/h (2 Bft) 100,00 %
12.08.2017 19:32 14,8 C 20,6 C 87 % 1018,7 hPa 0,0 l/m 6,3 km/h (2 Bft) SW 225 2 min 0,000 mm 0,0 UV-I 73 W/m 12,7 C 14,8 C 11,3 km/h (2 Bft) 100,00 %
12.08.2017 19:34 14,9 C 20,6 C 88 % 1018,7 hPa 0,0 l/m 5,1 km/h (1 Bft) SW 215 2 min 0,000 mm 0,0 UV-I 87 W/m 12,9 C 14,9 C 8,0 km/h (2 Bft) 100,00 %
12.08.2017 19:36 15,0 C 20,6 C 88 % 1018,7 hPa 0,0 l/m 6,0 km/h (2 Bft) SW 215 2 min 0,000 mm 0,0 UV-I 71 W/m 13,0 C 15,0 C 8,0 km/h (2 Bft) 97,56 %
12.08.2017 19:38 15,0 C 20,6 C 88 % 1018,7 hPa 0,0 l/m 5,5 km/h (1 Bft) W-SW 242 0 min 0,000 mm 0,0 UV-I 55 W/m 13,0 C 15,0 C 8,0 km/h (2 Bft) 100,00 %
12.08.2017 19:40 15,1 C 20,6 C 87 % 1018,7 hPa 0,0 l/m 7,2 km/h (2 Bft) S-SW 213 2 min 0,000 mm 0,0 UV-I 59 W/m 13,0 C 14,6 C 9,7 km/h (2 Bft) 100,00 %
12.08.2017 19:42 15,1 C 20,6 C 87 % 1018,6 hPa 0,0 l/m 5,7 km/h (1 Bft) SW 228 2 min 0,000 mm 0,0 UV-I 64 W/m 13,0 C 15,1 C 9,7 km/h (2 Bft) 100,00 %
12.08.2017 19:44 15,1 C 20,6 C 87 % 1018,6 hPa 0,0 l/m 7,0 km/h (2 Bft) S-SW 205 0 min 0,000 mm 0,0 UV-I 48 W/m 13,0 C 14,8 C 11,3 km/h (2 Bft) 100,00 %
12.08.2017 19:46 15,1 C 20,6 C 88 % 1018,6 hPa 0,0 l/m 6,8 km/h (2 Bft) S-SW 208 0 min 0,000 mm 0,0 UV-I 39 W/m 13,1 C 14,9 C 9,7 km/h (2 Bft) 100,00 %
12.08.2017 19:48 15,2 C 20,6 C 88 % 1018,5 hPa 0,0 l/m 5,2 km/h (1 Bft) S-SW 209 0 min 0,000 mm 0,0 UV-I 39 W/m 13,2 C 15,2 C 8,0 km/h (2 Bft) 100,00 %
12.08.2017 19:50 15,1 C 20,6 C 88 % 1018,5 hPa 0,0 l/m 6,6 km/h (2 Bft) SW 215 0 min 0,000 mm 0,0 UV-I 39 W/m 13,1 C 15,0 C 9,7 km/h (2 Bft) 100,00 %
12.08.2017 19:52 15,2 C 20,6 C 88 % 1018,5 hPa 0,0 l/m 6,2 km/h (2 Bft) W-SW 241 2 min 0,000 mm 0,0 UV-I 40 W/m 13,2 C 15,2 C 11,3 km/h (2 Bft) 100,00 %
12.08.2017 19:54 15,2 C 20,6 C 88 % 1018,5 hPa 0,0 l/m 6,6 km/h (2 Bft) SW 225 2 min 0,000 mm 0,0 UV-I 39 W/m 13,2 C 15,1 C 11,3 km/h (2 Bft) 100,00 %
12.08.2017 19:56 15,2 C 20,6 C 88 % 1018,5 hPa 0,0 l/m 6,0 km/h (2 Bft) SW 227 2 min 0,000 mm 0,0 UV-I 38 W/m 13,2 C 15,2 C 8,0 km/h (2 Bft) 97,14 %
12.08.2017 19:58 15,3 C 20,6 C 88 % 1018,5 hPa 0,0 l/m 8,2 km/h (2 Bft) SW 223 2 min 0,000 mm 0,0 UV-I 32 W/m 13,3 C 14,3 C 11,3 km/h (2 Bft) 100,00 %
12.08.2017 20:00 15,3 C 20,6 C 88 % 1018,5 hPa 0,0 l/m 8,9 km/h (2 Bft) SW 234 2 min 0,000 mm 0,0 UV-I 25 W/m 13,3 C 14,0 C 16,1 km/h (3 Bft) 98,11 %
12.08.2017 20:02 15,3 C 20,6 C 88 % 1018,5 hPa 0,0 l/m 8,8 km/h (2 Bft) SW 220 0 min 0,051 mm 0,0 UV-I 19 W/m 13,3 C 14,0 C 12,9 km/h (3 Bft) 100,00 %
12.08.2017 20:04 15,3 C 20,6 C 88 % 1018,5 hPa 0,0 l/m 6,6 km/h (2 Bft) W-SW 239 0 min 0,000 mm 0,0 UV-I 17 W/m 13,3 C 15,2 C 9,7 km/h (2 Bft) 98,00 %
12.08.2017 20:06 15,3 C 20,6 C 88 % 1018,5 hPa 0,0 l/m 6,9 km/h (2 Bft) SW 232 0 min 0,000 mm 0,0 UV-I 14 W/m 13,3 C 15,0 C 9,7 km/h (2 Bft) 100,00 %
12.08.2017 20:08 15,3 C 20,6 C 88 % 1018,6 hPa 0,0 l/m 7,2 km/h (2 Bft) W-SW 246 2 min 0,000 mm 0,0 UV-I 13 W/m 13,3 C 14,9 C 11,3 km/h (2 Bft) 100,00 %
12.08.2017 20:10 15,3 C 20,6 C 88 % 1018,6 hPa 0,0 l/m 7,2 km/h (2 Bft) SW 224 2 min 0,000 mm 0,0 UV-I 12 W/m 13,3 C 14,9 C 12,9 km/h (3 Bft) 100,00 %
12.08.2017 20:12 15,3 C 20,6 C 88 % 1018,6 hPa 0,0 l/m 7,8 km/h (2 Bft) W-SW 240 0 min 0,000 mm 0,0 UV-I 12 W/m 13,3 C 14,5 C 9,7 km/h (2 Bft) 100,00 %
12.08.2017 20:14 15,3 C 20,6 C 88 % 1018,5 hPa 0,0 l/m 6,8 km/h (2 Bft) W-SW 246 0 min 0,000 mm 0,0 UV-I 11 W/m 13,3 C 15,1 C 11,3 km/h (2 Bft) 100,00 %
12.08.2017 20:16 15,3 C 20,6 C 88 % 1018,5 hPa 0,0 l/m 7,0 km/h (2 Bft) W-SW 241 0 min 0,000 mm 0,0 UV-I 10 W/m 13,3 C 15,0 C 12,9 km/h (3 Bft) 100,00 %
12.08.2017 20:18 15,3 C 20,6 C 87 % 1018,5 hPa 0,0 l/m 7,5 km/h (2 Bft) W-SW 240 0 min 0,000 mm 0,0 UV-I 9 W/m 13,1 C 14,7 C 11,3 km/h (2 Bft) 100,00 %
12.08.2017 20:20 15,2 C 20,6 C 87 % 1018,6 hPa 0,0 l/m 8,4 km/h (2 Bft) SW 234 0 min 0,000 mm 0,0 UV-I 8 W/m 13,0 C 14,1 C 11,3 km/h (2 Bft) 100,00 %
12.08.2017 20:22 15,2 C 20,6 C 87 % 1018,6 hPa 0,0 l/m 8,5 km/h (2 Bft) SW 233 0 min 0,000 mm 0,0 UV-I 7 W/m 13,0 C 14,1 C 14,5 km/h (3 Bft) 100,00 %
12.08.2017 20:24 15,2 C 20,6 C 87 % 1018,6 hPa 0,0 l/m 8,5 km/h (2 Bft) SW 236 0 min 0,000 mm 0,0 UV-I 7 W/m 13,0 C 14,1 C 14,5 km/h (3 Bft) 97,87 %
12.08.2017 20:26 15,2 C 20,6 C 87 % 1018,5 hPa 0,0 l/m 10,6 km/h (2 Bft) S-SO 165 0 min 0,000 mm 0,0 UV-I 6 W/m 13,0 C 13,1 C 16,1 km/h (3 Bft) 100,00 %
12.08.2017 20:28 15,2 C 20,6 C 87 % 1018,5 hPa 0,0 l/m 11,1 km/h (2 Bft) SW 232 0 min 0,000 mm 0,0 UV-I 5 W/m 13,0 C 12,9 C 16,1 km/h (3 Bft) 100,00 %
12.08.2017 20:30 15,2 C 20,6 C 87 % 1018,5 hPa 0,0 l/m 11,9 km/h (2 Bft) S-SW 213 0 min 0,000 mm 0,0 UV-I 5 W/m 13,0 C 12,5 C 19,3 km/h (3 Bft) 100,00 %
12.08.2017 20:32 15,2 C 20,6 C 86 % 1018,5 hPa 0,0 l/m 12,2 km/h (2 Bft) SW 227 0 min 0,000 mm 0,0 UV-I 5 W/m 12,9 C 12,4 C 17,7 km/h (3 Bft) 98,08 %
12.08.2017 20:34 15,2 C 20,6 C 86 % 1018,5 hPa 0,0 l/m 11,1 km/h (2 Bft) SW 231 0 min 0,000 mm 0,0 UV-I 3 W/m 12,9 C 12,9 C 17,7 km/h (3 Bft) 100,00 %
12.08.2017 20:36 15,2 C 20,6 C 86 % 1018,5 hPa 0,0 l/m 12,3 km/h (3 Bft) W-SW 245 0 min 0,000 mm 0,0 UV-I 0 W/m 12,9 C 12,4 C 20,9 km/h (4 Bft) 100,00 %
12.08.2017 20:38 15,2 C 20,6 C 86 % 1018,6 hPa 0,0 l/m 9,4 km/h (2 Bft) W-SW 238 0 min 0,000 mm 0,0 UV-I 0 W/m 12,9 C 13,6 C 14,5 km/h (3 Bft) 97,14 %
12.08.2017 20:40 15,2 C 20,6 C 86 % 1018,5 hPa 0,0 l/m 10,4 km/h (2 Bft) W-SW 238 0 min 0,000 mm 0,0 UV-I 0 W/m 12,9 C 13,2 C 17,7 km/h (3 Bft) 98,21 %
12.08.2017 20:42 15,2 C 20,6 C 86 % 1018,5 hPa 0,0 l/m 11,3 km/h (2 Bft) SW 229 0 min 0,000 mm 0,0 UV-I 0 W/m 12,9 C 12,8 C 17,7 km/h (3 Bft) 98,11 %
12.08.2017 20:44 15,3 C 20,6 C 86 % 1018,5 hPa 0,0 l/m 12,8 km/h (3 Bft) SW 223 0 min 0,000 mm 0,0 UV-I 0 W/m 13,0 C 12,3 C 17,7 km/h (3 Bft) 95,45 %
12.08.2017 20:46 15,3 C 20,6 C 85 % 1018,5 hPa 0,0 l/m 11,0 km/h (2 Bft) SW 218 0 min 0,000 mm 0,0 UV-I 0 W/m 12,8 C 13,0 C 16,1 km/h (3 Bft) 97,67 %
12.08.2017 20:48 15,3 C 20,6 C 85 % 1018,5 hPa 0,0 l/m 11,8 km/h (2 Bft) W-SW 249 0 min 0,000 mm 0,0 UV-I 0 W/m 12,8 C 12,7 C 16,1 km/h (3 Bft) 98,21 %
12.08.2017 20:50 15,3 C 20,6 C 85 % 1018,5 hPa 0,0 l/m 11,5 km/h (2 Bft) SW 231 0 min 0,000 mm 0,0 UV-I 0 W/m 12,8 C 12,8 C 17,7 km/h (3 Bft) 94,74 %
12.08.2017 20:52 15,3 C 20,6 C 85 % 1018,5 hPa 0,0 l/m 12,2 km/h (2 Bft) W-SW 239 0 min 0,000 mm 0,0 UV-I 0 W/m 12,8 C 12,5 C 16,1 km/h (3 Bft) 98,15 %
12.08.2017 20:54 15,3 C 20,6 C 85 % 1018,5 hPa 0,0 l/m 11,8 km/h (2 Bft) W-SW 240 0 min 0,000 mm 0,0 UV-I 0 W/m 12,8 C 12,7 C 17,7 km/h (3 Bft) 97,73 %
12.08.2017 20:56 15,3 C 20,6 C 85 % 1018,6 hPa 0,0 l/m 11,7 km/h (2 Bft) SW 236 0 min 0,000 mm 0,0 UV-I 0 W/m 12,8 C 12,7 C 17,7 km/h (3 Bft) 96,23 %
12.08.2017 20:58 15,3 C 20,6 C 85 % 1018,6 hPa 0,0 l/m 11,7 km/h (2 Bft) S-SW 213 0 min 0,000 mm 0,0 UV-I 0 W/m 12,8 C 12,7 C 16,1 km/h (3 Bft) 97,56 %
12.08.2017 21:00 15,3 C 20,6 C 85 % 1018,6 hPa 0,0 l/m 9,8 km/h (2 Bft) SW 233 0 min 0,000 mm 0,0 UV-I 0 W/m 12,8 C 13,5 C 16,1 km/h (3 Bft) 100,00 %
12.08.2017 21:02 15,4 C 20,6 C 85 % 1018,7 hPa 0,0 l/m 8,1 km/h (2 Bft) W-SW 242 0 min 0,025 mm 0,0 UV-I 0 W/m 12,9 C 14,5 C 12,9 km/h (3 Bft) 96,00 %
12.08.2017 21:04 15,3 C 20,6 C 85 % 1018,7 hPa 0,0 l/m 9,7 km/h (2 Bft) SW 219 0 min 0,000 mm 0,0 UV-I 0 W/m 12,8 C 13,6 C 14,5 km/h (3 Bft) 98,18 %
12.08.2017 21:06 15,3 C 20,6 C 85 % 1018,7 hPa 0,0 l/m 10,5 km/h (2 Bft) W-SW 244 0 min 0,000 mm 0,0 UV-I 0 W/m 12,8 C 13,2 C 16,1 km/h (3 Bft) 94,74 %
12.08.2017 21:08 15,3 C 20,6 C 85 % 1018,7 hPa 0,0 l/m 9,0 km/h (2 Bft) SW 226 0 min 0,000 mm 0,0 UV-I 0 W/m 12,8 C 13,9 C 12,9 km/h (3 Bft) 96,23 %
12.08.2017 21:10 15,3 C 20,6 C 85 % 1018,7 hPa 0,0 l/m 11,4 km/h (2 Bft) SW 230 0 min 0,000 mm 0,0 UV-I 0 W/m 12,8 C 12,9 C 17,7 km/h (3 Bft) 97,87 %
12.08.2017 21:12 15,3 C 20,6 C 85 % 1018,8 hPa 0,0 l/m 8,0 km/h (2 Bft) SW 233 0 min 0,000 mm 0,0 UV-I 0 W/m 12,8 C 14,4 C 14,5 km/h (3 Bft) 97,44 %
12.08.2017 21:14 15,3 C 20,6 C 85 % 1018,8 hPa 0,0 l/m 9,7 km/h (2 Bft) SW 230 0 min 0,000 mm 0,0 UV-I 0 W/m 12,8 C 13,6 C 16,1 km/h (3 Bft) 98,11 %
12.08.2017 21:16 15,3 C 20,6 C 85 % 1018,8 hPa 0,0 l/m 7,0 km/h (2 Bft) SW 224 0 min 0,000 mm 0,0 UV-I 0 W/m 12,8 C 15,0 C 11,3 km/h (2 Bft) 97,56 %
12.08.2017 21:18 15,3 C 20,6 C 85 % 1018,8 hPa 0,0 l/m 7,6 km/h (2 Bft) SW 219 0 min 0,000 mm 0,0 UV-I 0 W/m 12,8 C 14,6 C 11,3 km/h (2 Bft) 98,21 %
12.08.2017 21:20 15,2 C 20,6 C 85 % 1018,9 hPa 0,0 l/m 7,4 km/h (2 Bft) SW 215 0 min 0,000 mm 0,0 UV-I 0 W/m 12,7 C 14,6 C 12,9 km/h (3 Bft) 100,00 %
12.08.2017 21:23 15,2 C 20,6 C 85 % 1018,9 hPa 0,0 l/m 6,9 km/h (2 Bft) SW 222 0 min 0,000 mm 0,0 UV-I 0 W/m 12,7 C 14,9 C 12,9 km/h (3 Bft) 100,00 %
12.08.2017 21:24 15,2 C 20,6 C 85 % 1018,9 hPa 0,0 l/m 8,1 km/h (2 Bft) S-SW 211 0 min 0,000 mm 0,0 UV-I 0 W/m 12,7 C 14,3 C 12,9 km/h (3 Bft) 100,00 %
12.08.2017 21:26 15,2 C 20,6 C 85 % 1019,0 hPa 0,0 l/m 7,5 km/h (2 Bft) SW 226 0 min 0,000 mm 0,0 UV-I 0 W/m 12,7 C 14,6 C 11,3 km/h (2 Bft) 98,11 %
12.08.2017 21:28 15,2 C 20,6 C 85 % 1019,0 hPa 0,0 l/m 7,5 km/h (2 Bft) W-SW 245 0 min 0,000 mm 0,0 UV-I 0 W/m 12,7 C 14,6 C 14,5 km/h (3 Bft) 97,56 %
12.08.2017 21:30 15,1 C 20,6 C 85 % 1019,0 hPa 0,0 l/m 7,6 km/h (2 Bft) S-SW 205 0 min 0,000 mm 0,0 UV-I 0 W/m 12,6 C 14,4 C 9,7 km/h (2 Bft) 95,45 %
12.08.2017 21:32 15,1 C 20,6 C 85 % 1019,0 hPa 0,0 l/m 9,3 km/h (2 Bft) S-SW 207 0 min 0,000 mm 0,0 UV-I 0 W/m 12,6 C 13,6 C 14,5 km/h (3 Bft) 98,21 %
12.08.2017 21:34 15,1 C 20,6 C 85 % 1019,1 hPa 0,0 l/m 6,9 km/h (2 Bft) W-SW 238 0 min 0,000 mm 0,0 UV-I 0 W/m 12,6 C 14,8 C 9,7 km/h (2 Bft) 97,37 %
12.08.2017 21:36 15,1 C 20,6 C 85 % 1019,1 hPa 0,0 l/m 7,2 km/h (2 Bft) SW 217 0 min 0,000 mm 0,0 UV-I 0 W/m 12,6 C 14,6 C 12,9 km/h (3 Bft) 97,87 %
12.08.2017 21:38 15,1 C 20,6 C 85 % 1019,1 hPa 0,0 l/m 6,8 km/h (2 Bft) W-SW 239 0 min 0,000 mm 0,0 UV-I 0 W/m 12,6 C 14,9 C 9,7 km/h (2 Bft) 97,87 %
12.08.2017 21:40 15,1 C 20,6 C 85 % 1019,1 hPa 0,0 l/m 5,9 km/h (2 Bft) SW 219 0 min 0,000 mm 0,0 UV-I 0 W/m 12,6 C 15,1 C 9,7 km/h (2 Bft) 98,11 %
12.08.2017 21:42 15,1 C 20,6 C 85 % 1019,2 hPa 0,0 l/m 6,6 km/h (2 Bft) SW 219 0 min 0,000 mm 0,0 UV-I 0 W/m 12,6 C 15,0 C 12,9 km/h (3 Bft) 95,74 %
12.08.2017 21:44 15,1 C 20,6 C 85 % 1019,2 hPa 0,0 l/m 6,6 km/h (2 Bft) SW 217 0 min 0,000 mm 0,0 UV-I 0 W/m 12,6 C 15,0 C 8,0 km/h (2 Bft) 100,00 %
12.08.2017 21:46 15,1 C 20,6 C 85 % 1019,2 hPa 0,0 l/m 6,2 km/h (2 Bft) S-SW 212 0 min 0,000 mm 0,0 UV-I 0 W/m 12,6 C 15,1 C 8,0 km/h (2 Bft) 96,23 %
12.08.2017 21:48 15,1 C 20,6 C 85 % 1019,2 hPa 0,0 l/m 6,6 km/h (2 Bft) SW 234 0 min 0,000 mm 0,0 UV-I 0 W/m 12,6 C 15,0 C 9,7 km/h (2 Bft) 96,00 %
12.08.2017 21:50 15,1 C 20,6 C 85 % 1019,2 hPa 0,0 l/m 5,5 km/h (1 Bft) S-SW 198 0 min 0,000 mm 0,0 UV-I 0 W/m 12,6 C 15,1 C 11,3 km/h (2 Bft) 95,74 %
12.08.2017 21:52 15,1 C 20,6 C 84 % 1019,3 hPa 0,0 l/m 7,8 km/h (2 Bft) S-SW 200 0 min 0,000 mm 0,0 UV-I 0 W/m 12,4 C 14,3 C 11,3 km/h (2 Bft) 97,44 %
12.08.2017 21:54 15,1 C 20,6 C 85 % 1019,3 hPa 0,0 l/m 8,1 km/h (2 Bft) SW 217 0 min 0,000 mm 0,0 UV-I 0 W/m 12,6 C 14,2 C 14,5 km/h (3 Bft) 97,73 %
12.08.2017 21:56 15,1 C 20,6 C 85 % 1019,3 hPa 0,0 l/m 5,5 km/h (1 Bft) S-SW 212 0 min 0,000 mm 0,0 UV-I 0 W/m 12,6 C 15,1 C 12,9 km/h (3 Bft) 92,86 %
12.08.2017 21:58 15,1 C 20,6 C 85 % 1019,3 hPa 0,0 l/m 6,1 km/h (2 Bft) S-SW 200 0 min 0,000 mm 0,0 UV-I 0 W/m 12,6 C 15,1 C 11,3 km/h (2 Bft) 96,15 %
12.08.2017 22:00 15,1 C 20,6 C 84 % 1019,3 hPa 0,0 l/m 7,5 km/h (2 Bft) S 187 0 min 0,000 mm 0,0 UV-I 0 W/m 12,4 C 14,5 C 12,9 km/h (3 Bft) 98,53 %
12.08.2017 22:02 15,1 C 20,6 C 85 % 1019,4 hPa 0,0 l/m 6,1 km/h (2 Bft) SW 221 0 min 0,025 mm 0,0 UV-I 0 W/m 12,6 C 15,1 C 9,7 km/h (2 Bft) 97,56 %
12.08.2017 22:04 15,2 C 20,6 C 84 % 1019,4 hPa 0,0 l/m 6,7 km/h (2 Bft) SW 223 0 min 0,000 mm 0,0 UV-I 0 W/m 12,5 C 15,0 C 14,5 km/h (3 Bft) 97,87 %
12.08.2017 22:06 15,2 C 20,6 C 84 % 1019,4 hPa 0,0 l/m 6,4 km/h (2 Bft) S-SW 211 0 min 0,000 mm 0,0 UV-I 0 W/m 12,5 C 15,2 C 11,3 km/h (2 Bft) 96,23 %
12.08.2017 22:08 15,2 C 20,6 C 84 % 1019,3 hPa 0,0 l/m 6,7 km/h (2 Bft) S-SW 213 0 min 0,000 mm 0,0 UV-I 0 W/m 12,5 C 15,0 C 9,7 km/h (2 Bft) 95,12 %
12.08.2017 22:10 15,2 C 20,6 C 84 % 1019,3 hPa 0,0 l/m 7,9 km/h (2 Bft) S-SW 211 0 min 0,000 mm 0,0 UV-I 0 W/m 12,5 C 14,4 C 12,9 km/h (3 Bft) 98,00 %
12.08.2017 22:12 15,3 C 20,6 C 84 % 1019,3 hPa 0,0 l/m 8,4 km/h (2 Bft) SW 215 0 min 0,000 mm 0,0 UV-I 0 W/m 12,6 C 14,2 C 12,9 km/h (3 Bft) 98,00 %
12.08.2017 22:14 15,3 C 20,6 C 83 % 1019,4 hPa 0,0 l/m 9,0 km/h (2 Bft) S-SW 207 0 min 0,000 mm 0,0 UV-I 0 W/m 12,4 C 13,9 C 12,9 km/h (3 Bft) 97,37 %
12.08.2017 22:16 15,3 C 20,6 C 83 % 1019,4 hPa 0,0 l/m 7,8 km/h (2 Bft) S-SW 205 0 min 0,000 mm 0,0 UV-I 0 W/m 12,4 C 14,5 C 11,3 km/h (2 Bft) 100,00 %
12.08.2017 22:18 15,3 C 20,6 C 83 % 1019,4 hPa 0,0 l/m 7,0 km/h (2 Bft) SW 216 0 min 0,000 mm 0,0 UV-I 0 W/m 12,4 C 15,0 C 12,9 km/h (3 Bft) 95,74 %
12.08.2017 22:20 15,3 C 20,6 C 83 % 1019,4 hPa 0,0 l/m 7,5 km/h (2 Bft) SW 235 0 min 0,000 mm 0,0 UV-I 0 W/m 12,4 C 14,7 C 11,3 km/h (2 Bft) 96,00 %
12.08.2017 22:22 15,4 C 20,6 C 83 % 1019,4 hPa 0,0 l/m 6,6 km/h (2 Bft) S-SW 205 0 min 0,000 mm 0,0 UV-I 0 W/m 12,5 C 15,3 C 11,3 km/h (2 Bft) 97,22 %
12.08.2017 22:24 15,4 C 20,6 C 83 % 1019,4 hPa 0,0 l/m 7,9 km/h (2 Bft) S-SW 209 0 min 0,000 mm 0,0 UV-I 0 W/m 12,5 C 14,6 C 12,9 km/h (3 Bft) 98,00 %
12.08.2017 22:26 15,4 C 20,6 C 83 % 1019,4 hPa 0,0 l/m 9,6 km/h (2 Bft) SW 219 0 min 0,000 mm 0,0 UV-I 0 W/m 12,5 C 13,7 C 14,5 km/h (3 Bft) 96,36 %
12.08.2017 22:28 15,4 C 20,6 C 82 % 1019,4 hPa 0,0 l/m 7,9 km/h (2 Bft) W-SW 245 0 min 0,000 mm 0,0 UV-I 0 W/m 12,3 C 14,6 C 12,9 km/h (3 Bft) 100,00 %
12.08.2017 22:30 15,4 C 20,6 C 82 % 1019,3 hPa 0,0 l/m 7,2 km/h (2 Bft) SW 215 0 min 0,000 mm 0,0 UV-I 0 W/m 12,3 C 15,0 C 11,3 km/h (2 Bft) 98,51 %
12.08.2017 22:32 15,5 C 20,6 C 82 % 1019,3 hPa 0,0 l/m 8,8 km/h (2 Bft) SW 229 0 min 0,000 mm 0,0 UV-I 0 W/m 12,4 C 14,2 C 12,9 km/h (3 Bft) 97,44 %
12.08.2017 22:34 15,5 C 20,6 C 82 % 1019,3 hPa 0,0 l/m 6,4 km/h (2 Bft) S-SW 207 0 min 0,000 mm 0,0 UV-I 0 W/m 12,4 C 15,5 C 9,7 km/h (2 Bft) 100,00 %
12.08.2017 22:36 15,5 C 20,6 C 82 % 1019,3 hPa 0,0 l/m 8,7 km/h (2 Bft) S-SW 213 0 min 0,000 mm 0,0 UV-I 0 W/m 12,4 C 14,3 C 12,9 km/h (3 Bft) 100,00 %
12.08.2017 22:38 15,5 C 20,6 C 82 % 1019,3 hPa 0,0 l/m 9,2 km/h (2 Bft) S 186 0 min 0,000 mm 0,0 UV-I 0 W/m 12,4 C 14,0 C 14,5 km/h (3 Bft) 100,00 %
12.08.2017 22:40 15,6 C 20,6 C 82 % 1019,3 hPa 0,0 l/m 9,9 km/h (2 Bft) SW 223 0 min 0,000 mm 0,0 UV-I 0 W/m 12,5 C 13,8 C 12,9 km/h (3 Bft) 98,21 %
12.08.2017 22:42 15,6 C 20,6 C 82 % 1019,3 hPa 0,0 l/m 10,7 km/h (2 Bft) S-SW 195 0 min 0,000 mm 0,0 UV-I 0 W/m 12,5 C 13,5 C 17,7 km/h (3 Bft) 100,00 %
12.08.2017 22:44 15,6 C 20,6 C 81 % 1019,2 hPa 0,0 l/m 9,1 km/h (2 Bft) S-SW 211 0 min 0,000 mm 0,0 UV-I 0 W/m 12,3 C 14,2 C 12,9 km/h (3 Bft) 100,00 %
12.08.2017 22:46 15,6 C 20,6 C 81 % 1019,2 hPa 0,0 l/m 10,2 km/h (2 Bft) SW 232 0 min 0,000 mm 0,0 UV-I 0 W/m 12,3 C 13,7 C 16,1 km/h (3 Bft) 100,00 %
12.08.2017 22:48 15,6 C 20,6 C 81 % 1019,2 hPa 0,0 l/m 10,4 km/h (2 Bft) SW 219 0 min 0,000 mm 0,0 UV-I 0 W/m 12,3 C 13,6 C 17,7 km/h (3 Bft) 96,92 %
12.08.2017 22:50 15,6 C 20,6 C 81 % 1019,2 hPa 0,0 l/m 8,7 km/h (2 Bft) SW 221 0 min 0,000 mm 0,0 UV-I 0 W/m 12,3 C 14,4 C 11,3 km/h (2 Bft) 97,87 %
12.08.2017 22:52 15,6 C 20,6 C 81 % 1019,2 hPa 0,0 l/m 8,7 km/h (2 Bft) SW 223 0 min 0,000 mm 0,0 UV-I 0 W/m 12,3 C 14,4 C 14,5 km/h (3 Bft) 97,56 %
12.08.2017 22:54 15,6 C 20,6 C 81 % 1019,2 hPa 0,0 l/m 8,4 km/h (2 Bft) W-SW 238 0 min 0,000 mm 0,0 UV-I 0 W/m 12,3 C 14,5 C 14,5 km/h (3 Bft) 98,31 %
12.08.2017 22:56 15,6 C 20,6 C 81 % 1019,2 hPa 0,0 l/m 11,9 km/h (2 Bft) S-SW 201 0 min 0,000 mm 0,0 UV-I 0 W/m 12,3 C 13,0 C 17,7 km/h (3 Bft) 97,56 %
12.08.2017 22:58 15,6 C 20,6 C 81 % 1019,2 hPa 0,0 l/m 12,1 km/h (2 Bft) S-SW 209 0 min 0,000 mm 0,0 UV-I 0 W/m 12,3 C 12,9 C 17,7 km/h (3 Bft) 97,37 %
12.08.2017 23:00 15,6 C 20,6 C 81 % 1019,2 hPa 0,0 l/m 6,9 km/h (2 Bft) SW 231 0 min 0,000 mm 0,0 UV-I 0 W/m 12,3 C 15,3 C 11,3 km/h (2 Bft) 96,72 %
12.08.2017 23:03 15,6 C 20,6 C 80 % 1019,1 hPa 0,0 l/m 9,8 km/h (2 Bft) S-SW 200 0 min 0,026 mm 0,0 UV-I 0 W/m 12,2 C 13,9 C 17,7 km/h (3 Bft) 98,65 %
12.08.2017 23:04 15,7 C 20,0 C 80 % 1019,1 hPa 0,0 l/m 10,3 km/h (2 Bft) S-SW 200 0 min 0,000 mm 0,0 UV-I 0 W/m 12,3 C 13,8 C 16,1 km/h (3 Bft) 92,86 %
12.08.2017 23:06 15,7 C 20,6 C 80 % 1019,1 hPa 0,0 l/m 8,8 km/h (2 Bft) S-SW 209 0 min 0,000 mm 0,0 UV-I 0 W/m 12,3 C 14,4 C 12,9 km/h (3 Bft) 98,11 %
12.08.2017 23:08 15,7 C 20,6 C 80 % 1019,0 hPa 0,0 l/m 9,4 km/h (2 Bft) SW 229 0 min 0,000 mm 0,0 UV-I 0 W/m 12,3 C 14,2 C 14,5 km/h (3 Bft) 97,56 %
12.08.2017 23:10 15,7 C 20,6 C 80 % 1019,0 hPa 0,0 l/m 11,3 km/h (2 Bft) SW 233 0 min 0,000 mm 0,0 UV-I 0 W/m 12,3 C 13,3 C 17,7 km/h (3 Bft) 95,24 %
12.08.2017 23:12 15,7 C 20,0 C 80 % 1018,9 hPa 0,0 l/m 12,2 km/h (2 Bft) S-SW 202 0 min 0,000 mm 0,0 UV-I 0 W/m 12,3 C 13,0 C 22,5 km/h (4 Bft) 96,23 %
12.08.2017 23:14 15,7 C 20,0 C 80 % 1018,9 hPa 0,0 l/m 11,5 km/h (2 Bft) SW 234 0 min 0,000 mm 0,0 UV-I 0 W/m 12,3 C 13,3 C 17,7 km/h (3 Bft) 97,56 %
12.08.2017 23:16 15,7 C 20,0 C 80 % 1018,8 hPa 0,0 l/m 12,4 km/h (3 Bft) SW 224 0 min 0,000 mm 0,0 UV-I 0 W/m 12,3 C 12,9 C 20,9 km/h (4 Bft) 97,87 %
12.08.2017 23:18 15,7 C 20,0 C 80 % 1018,8 hPa 0,0 l/m 15,1 km/h (3 Bft) S-SW 213 0 min 0,000 mm 0,0 UV-I 0 W/m 12,3 C 12,0 C 24,1 km/h (4 Bft) 97,14 %
12.08.2017 23:20 15,7 C 20,0 C 80 % 1018,7 hPa 0,0 l/m 15,4 km/h (3 Bft) SW 230 0 min 0,000 mm 0,0 UV-I 0 W/m 12,3 C 11,9 C 25,7 km/h (4 Bft) 96,43 %
12.08.2017 23:23 15,7 C 20,0 C 80 % 1018,7 hPa 0,0 l/m 13,1 km/h (3 Bft) W-SW 244 0 min 0,000 mm 0,0 UV-I 0 W/m 12,3 C 12,7 C 19,3 km/h (3 Bft) 98,82 %
12.08.2017 23:24 15,7 C 20,0 C 80 % 1018,7 hPa 0,0 l/m 16,6 km/h (3 Bft) W-SW 256 0 min 0,000 mm 0,0 UV-I 0 W/m 12,3 C 11,6 C 30,6 km/h (5 Bft) 100,00 %
12.08.2017 23:26 15,7 C 20,0 C 80 % 1018,7 hPa 0,0 l/m 19,3 km/h (3 Bft) W-SW 257 0 min 0,000 mm 0,0 UV-I 0 W/m 12,3 C 10,8 C 25,7 km/h (4 Bft) 100,00 %
12.08.2017 23:28 15,7 C 20,0 C 79 % 1018,7 hPa 0,0 l/m 17,3 km/h (3 Bft) W-SW 257 0 min 0,000 mm 0,0 UV-I 0 W/m 12,1 C 11,4 C 25,7 km/h (4 Bft) 100,00 %
12.08.2017 23:30 15,7 C 20,0 C 80 % 1018,7 hPa 0,0 l/m 12,2 km/h (2 Bft) W-SW 243 0 min 0,000 mm 0,0 UV-I 0 W/m 12,3 C 13,0 C 17,7 km/h (3 Bft) 100,00 %
12.08.2017 23:32 15,7 C 20,0 C 80 % 1018,7 hPa 0,0 l/m 12,7 km/h (3 Bft) W-SW 242 0 min 0,000 mm 0,0 UV-I 0 W/m 12,3 C 12,8 C 20,9 km/h (4 Bft) 97,87 %
12.08.2017 23:34 15,7 C 20,0 C 80 % 1018,7 hPa 0,0 l/m 16,3 km/h (3 Bft) SW 229 0 min 0,000 mm 0,0 UV-I 0 W/m 12,3 C 11,6 C 22,5 km/h (4 Bft) 100,00 %
12.08.2017 23:36 15,7 C 20,0 C 80 % 1018,7 hPa 0,0 l/m 13,2 km/h (3 Bft) SW 234 0 min 0,000 mm 0,0 UV-I 0 W/m 12,3 C 12,6 C 20,9 km/h (4 Bft) 100,00 %
12.08.2017 23:38 15,7 C 20,0 C 80 % 1018,7 hPa 0,0 l/m 15,3 km/h (3 Bft) W-SW 238 0 min 0,000 mm 0,0 UV-I 0 W/m 12,3 C 11,9 C 20,9 km/h (4 Bft) 100,00 %
12.08.2017 23:40 15,7 C 20,0 C 80 % 1018,7 hPa 0,0 l/m 12,9 km/h (3 Bft) W-SW 238 0 min 0,000 mm 0,0 UV-I 0 W/m 12,3 C 12,7 C 19,3 km/h (3 Bft) 100,00 %
12.08.2017 23:42 15,7 C 20,0 C 80 % 1018,8 hPa 0,0 l/m 12,1 km/h (2 Bft) SW 225 0 min 0,000 mm 0,0 UV-I 0 W/m 12,3 C 13,0 C 17,7 km/h (3 Bft) 100,00 %
12.08.2017 23:44 15,7 C 20,0 C 80 % 1018,9 hPa 0,0 l/m 12,6 km/h (3 Bft) W-SW 237 0 min 0,000 mm 0,0 UV-I 0 W/m 12,3 C 12,9 C 19,3 km/h (3 Bft) 100,00 %
12.08.2017 23:46 15,7 C 20,0 C 80 % 1018,9 hPa 0,0 l/m 12,9 km/h (3 Bft) SW 229 0 min 0,000 mm 0,0 UV-I 0 W/m 12,3 C 12,7 C 19,3 km/h (3 Bft) 100,00 %
12.08.2017 23:48 15,7 C 20,0 C 80 % 1018,9 hPa 0,0 l/m 12,4 km/h (3 Bft) SW 236 0 min 0,000 mm 0,0 UV-I 0 W/m 12,3 C 12,9 C 20,9 km/h (4 Bft) 100,00 %
12.08.2017 23:50 15,7 C 20,0 C 80 % 1019,0 hPa 0,0 l/m 12,7 km/h (3 Bft) S 186 0 min 0,000 mm 0,0 UV-I 0 W/m 12,3 C 12,8 C 19,3 km/h (3 Bft) 100,00 %
12.08.2017 23:52 15,7 C 20,0 C 80 % 1019,0 hPa 0,0 l/m 13,3 km/h (3 Bft) S-SW 212 0 min 0,000 mm 0,0 UV-I 0 W/m 12,3 C 12,6 C 20,9 km/h (4 Bft) 100,00 %
12.08.2017 23:54 15,7 C 20,0 C 80 % 1019,0 hPa 0,0 l/m 13,4 km/h (3 Bft) W-SW 242 0 min 0,000 mm 0,0 UV-I 0 W/m 12,3 C 12,6 C 20,9 km/h (4 Bft) 100,00 %
12.08.2017 23:56 15,7 C 20,0 C 80 % 1019,0 hPa 0,0 l/m 15,6 km/h (3 Bft) W-SW 251 0 min 0,000 mm 0,0 UV-I 0 W/m 12,3 C 11,9 C 20,9 km/h (4 Bft) 100,00 %
12.08.2017 23:58 15,7 C 20,0 C 80 % 1019,0 hPa 0,0 l/m 12,7 km/h (3 Bft) SW 232 0 min 0,000 mm 0,0 UV-I 0 W/m 12,3 C 12,8 C 17,7 km/h (3 Bft) 100,00 %
_ Min-Zeit 00:48 09:22 16:04 03:18 - 13:58 - - - - - - 00:48 04:30 16:38 06:50
Minimum _ 12,4 C 20,0 C 69 % 1015,9 hPa - 0,6 km/h (0 Bft) - - - - - - 11,0 C 8,3 C 3,2 km/h (1 Bft) 89,74 %
_ Max-Zeit 16:00 00:00 00:58 22:02 13:28 04:30 - - 06:24 16:00 12:06 12:06 15:16 16:06 23:24 00:00
Maximum _ 18,9 C 21,1 C 92 % 1019,4 hPa 0,2 l/m 19,5 km/h
SW (3 Bft)
- - 2 min 0,304 mm 5,7 UV-I 1099 W/m 14,7 C 18,4 C 30,6 km/h
SW (5 Bft)
100,00 %
Durchschnitt _ 15,0 C 20,6 C 85 % 1017,7 hPa #0,6 l/m 9,5 km/h (2 Bft) SW - #3:04 h #2,083 mm 1,8 UV-I 201 W/m 12,3 C 13,3 C 15,5 km/h (3 Bft) 98,21 %